<?xml version="1.0" encoding="UTF-8" standalone="no" ?>
<gpx xmlns="http://www.topografix.com/GPX/1/1" xmlns:xsi="http://www.w3.org/2001/XMLSchema-instance" xsi:schemaLocation="http://www.topografix.com/GPX/1/1 http://www.topografix.com/GPX/1/1/gpx.xsd" version="1.1" creator="VisuGPX - https://www.visugpx.com">
  <metadata>
    <name>GTJ J3</name>
    <desc><![CDATA[Traversée VTT Jura]]></desc>
  </metadata>
  <trk>
    <name><![CDATA[ACTIVE LOG075927]]></name>
    <trkseg>
      <trkpt lat="47.05316" lon="6.59886">
        <ele>754</ele>
        <time>2011-08-06T05:59:25Z</time>
      </trkpt>
      <trkpt lat="47.05316" lon="6.59886">
        <ele>754</ele>
        <time>2011-08-06T06:00:09Z</time>
      </trkpt>
      <trkpt lat="47.05312" lon="6.59885">
        <ele>754</ele>
        <time>2011-08-06T06:00:20Z</time>
      </trkpt>
      <trkpt lat="47.05306" lon="6.59889">
        <ele>754</ele>
        <time>2011-08-06T06:00:32Z</time>
      </trkpt>
      <trkpt lat="47.05306" lon="6.59889">
        <ele>754</ele>
        <time>2011-08-06T06:00:40Z</time>
      </trkpt>
      <trkpt lat="47.05307" lon="6.59911">
        <ele>754</ele>
        <time>2011-08-06T06:00:55Z</time>
      </trkpt>
      <trkpt lat="47.05307" lon="6.59916">
        <ele>754</ele>
        <time>2011-08-06T06:01:10Z</time>
      </trkpt>
      <trkpt lat="47.05348" lon="6.59955">
        <ele>756</ele>
        <time>2011-08-06T06:01:27Z</time>
      </trkpt>
      <trkpt lat="47.0539" lon="6.59991">
        <ele>758</ele>
        <time>2011-08-06T06:01:45Z</time>
      </trkpt>
      <trkpt lat="47.05398" lon="6.59953">
        <ele>758</ele>
        <time>2011-08-06T06:01:55Z</time>
      </trkpt>
      <trkpt lat="47.05398" lon="6.59941">
        <ele>759</ele>
        <time>2011-08-06T06:02:05Z</time>
      </trkpt>
      <trkpt lat="47.05398" lon="6.59942">
        <ele>759</ele>
        <time>2011-08-06T06:02:28Z</time>
      </trkpt>
      <trkpt lat="47.05397" lon="6.59938">
        <ele>759</ele>
        <time>2011-08-06T06:02:55Z</time>
      </trkpt>
      <trkpt lat="47.05397" lon="6.59937">
        <ele>759</ele>
        <time>2011-08-06T06:03:06Z</time>
      </trkpt>
      <trkpt lat="47.05392" lon="6.59949">
        <ele>758</ele>
        <time>2011-08-06T06:03:12Z</time>
      </trkpt>
      <trkpt lat="47.05391" lon="6.59978">
        <ele>758</ele>
        <time>2011-08-06T06:03:18Z</time>
      </trkpt>
      <trkpt lat="47.05375" lon="6.59976">
        <ele>757</ele>
        <time>2011-08-06T06:03:24Z</time>
      </trkpt>
      <trkpt lat="47.05318" lon="6.59923">
        <ele>754</ele>
        <time>2011-08-06T06:03:40Z</time>
      </trkpt>
      <trkpt lat="47.05303" lon="6.59914">
        <ele>754</ele>
        <time>2011-08-06T06:03:44Z</time>
      </trkpt>
      <trkpt lat="47.05282" lon="6.59899">
        <ele>754</ele>
        <time>2011-08-06T06:03:49Z</time>
      </trkpt>
      <trkpt lat="47.05221" lon="6.59878">
        <ele>753</ele>
        <time>2011-08-06T06:04:02Z</time>
      </trkpt>
      <trkpt lat="47.0522" lon="6.59875">
        <ele>753</ele>
        <time>2011-08-06T06:04:20Z</time>
      </trkpt>
      <trkpt lat="47.05216" lon="6.5988">
        <ele>753</ele>
        <time>2011-08-06T06:04:56Z</time>
      </trkpt>
      <trkpt lat="47.05162" lon="6.59862">
        <ele>752</ele>
        <time>2011-08-06T06:05:12Z</time>
      </trkpt>
      <trkpt lat="47.05072" lon="6.59811">
        <ele>752</ele>
        <time>2011-08-06T06:05:32Z</time>
      </trkpt>
      <trkpt lat="47.05053" lon="6.59798">
        <ele>752</ele>
        <time>2011-08-06T06:05:36Z</time>
      </trkpt>
      <trkpt lat="47.05031" lon="6.59776">
        <ele>752</ele>
        <time>2011-08-06T06:05:41Z</time>
      </trkpt>
      <trkpt lat="47.04993" lon="6.59721">
        <ele>752</ele>
        <time>2011-08-06T06:05:51Z</time>
      </trkpt>
      <trkpt lat="47.04984" lon="6.59702">
        <ele>752</ele>
        <time>2011-08-06T06:05:54Z</time>
      </trkpt>
      <trkpt lat="47.04966" lon="6.59589">
        <ele>751</ele>
        <time>2011-08-06T06:06:10Z</time>
      </trkpt>
      <trkpt lat="47.04957" lon="6.59548">
        <ele>752</ele>
        <time>2011-08-06T06:06:16Z</time>
      </trkpt>
      <trkpt lat="47.04948" lon="6.59531">
        <ele>752</ele>
        <time>2011-08-06T06:06:19Z</time>
      </trkpt>
      <trkpt lat="47.04862" lon="6.59447">
        <ele>752</ele>
        <time>2011-08-06T06:06:39Z</time>
      </trkpt>
      <trkpt lat="47.04771" lon="6.59361">
        <ele>751</ele>
        <time>2011-08-06T06:06:59Z</time>
      </trkpt>
      <trkpt lat="47.04742" lon="6.59293">
        <ele>750</ele>
        <time>2011-08-06T06:07:09Z</time>
      </trkpt>
      <trkpt lat="47.04719" lon="6.59287">
        <ele>750</ele>
        <time>2011-08-06T06:07:15Z</time>
      </trkpt>
      <trkpt lat="47.04716" lon="6.59292">
        <ele>750</ele>
        <time>2011-08-06T06:07:16Z</time>
      </trkpt>
      <trkpt lat="47.04659" lon="6.59395">
        <ele>751</ele>
        <time>2011-08-06T06:07:32Z</time>
      </trkpt>
      <trkpt lat="47.04642" lon="6.59416">
        <ele>751</ele>
        <time>2011-08-06T06:07:36Z</time>
      </trkpt>
      <trkpt lat="47.04618" lon="6.5941">
        <ele>751</ele>
        <time>2011-08-06T06:07:41Z</time>
      </trkpt>
      <trkpt lat="47.04537" lon="6.59337">
        <ele>751</ele>
        <time>2011-08-06T06:07:58Z</time>
      </trkpt>
      <trkpt lat="47.04504" lon="6.59335">
        <ele>751</ele>
        <time>2011-08-06T06:08:04Z</time>
      </trkpt>
      <trkpt lat="47.04467" lon="6.59356">
        <ele>751</ele>
        <time>2011-08-06T06:08:11Z</time>
      </trkpt>
      <trkpt lat="47.04451" lon="6.59361">
        <ele>751</ele>
        <time>2011-08-06T06:08:14Z</time>
      </trkpt>
      <trkpt lat="47.04361" lon="6.59351">
        <ele>750</ele>
        <time>2011-08-06T06:08:30Z</time>
      </trkpt>
      <trkpt lat="47.04293" lon="6.59316">
        <ele>750</ele>
        <time>2011-08-06T06:08:43Z</time>
      </trkpt>
      <trkpt lat="47.04272" lon="6.59289">
        <ele>750</ele>
        <time>2011-08-06T06:08:48Z</time>
      </trkpt>
      <trkpt lat="47.0425" lon="6.59238">
        <ele>750</ele>
        <time>2011-08-06T06:08:56Z</time>
      </trkpt>
      <trkpt lat="47.04225" lon="6.59212">
        <ele>750</ele>
        <time>2011-08-06T06:09:02Z</time>
      </trkpt>
      <trkpt lat="47.04188" lon="6.59198">
        <ele>750</ele>
        <time>2011-08-06T06:09:11Z</time>
      </trkpt>
      <trkpt lat="47.041" lon="6.59222">
        <ele>750</ele>
        <time>2011-08-06T06:09:28Z</time>
      </trkpt>
      <trkpt lat="47.04076" lon="6.59238">
        <ele>750</ele>
        <time>2011-08-06T06:09:33Z</time>
      </trkpt>
      <trkpt lat="47.04061" lon="6.5926">
        <ele>750</ele>
        <time>2011-08-06T06:09:37Z</time>
      </trkpt>
      <trkpt lat="47.04056" lon="6.59273">
        <ele>751</ele>
        <time>2011-08-06T06:09:39Z</time>
      </trkpt>
      <trkpt lat="47.0405" lon="6.59292">
        <ele>751</ele>
        <time>2011-08-06T06:09:42Z</time>
      </trkpt>
      <trkpt lat="47.04045" lon="6.59325">
        <ele>751</ele>
        <time>2011-08-06T06:09:47Z</time>
      </trkpt>
      <trkpt lat="47.04037" lon="6.59342">
        <ele>753</ele>
        <time>2011-08-06T06:09:56Z</time>
      </trkpt>
      <trkpt lat="47.04037" lon="6.59342">
        <ele>753</ele>
        <time>2011-08-06T06:09:57Z</time>
      </trkpt>
      <trkpt lat="47.04001" lon="6.59337">
        <ele>752</ele>
        <time>2011-08-06T06:10:08Z</time>
      </trkpt>
      <trkpt lat="47.03987" lon="6.59335">
        <ele>753</ele>
        <time>2011-08-06T06:10:11Z</time>
      </trkpt>
      <trkpt lat="47.03951" lon="6.59325">
        <ele>752</ele>
        <time>2011-08-06T06:10:19Z</time>
      </trkpt>
      <trkpt lat="47.03938" lon="6.59324">
        <ele>752</ele>
        <time>2011-08-06T06:10:22Z</time>
      </trkpt>
      <trkpt lat="47.03898" lon="6.59319">
        <ele>754</ele>
        <time>2011-08-06T06:10:31Z</time>
      </trkpt>
      <trkpt lat="47.03871" lon="6.59325">
        <ele>754</ele>
        <time>2011-08-06T06:10:37Z</time>
      </trkpt>
      <trkpt lat="47.0383" lon="6.59329">
        <ele>754</ele>
        <time>2011-08-06T06:10:46Z</time>
      </trkpt>
      <trkpt lat="47.0379" lon="6.59286">
        <ele>756</ele>
        <time>2011-08-06T06:10:57Z</time>
      </trkpt>
      <trkpt lat="47.03742" lon="6.59225">
        <ele>757</ele>
        <time>2011-08-06T06:11:11Z</time>
      </trkpt>
      <trkpt lat="47.03735" lon="6.59231">
        <ele>757</ele>
        <time>2011-08-06T06:11:15Z</time>
      </trkpt>
      <trkpt lat="47.03731" lon="6.59241">
        <ele>757</ele>
        <time>2011-08-06T06:11:17Z</time>
      </trkpt>
      <trkpt lat="47.03697" lon="6.59283">
        <ele>756</ele>
        <time>2011-08-06T06:11:27Z</time>
      </trkpt>
      <trkpt lat="47.03667" lon="6.59292">
        <ele>756</ele>
        <time>2011-08-06T06:11:37Z</time>
      </trkpt>
      <trkpt lat="47.03657" lon="6.59297">
        <ele>756</ele>
        <time>2011-08-06T06:11:41Z</time>
      </trkpt>
      <trkpt lat="47.03644" lon="6.59322">
        <ele>756</ele>
        <time>2011-08-06T06:11:46Z</time>
      </trkpt>
      <trkpt lat="47.03629" lon="6.59353">
        <ele>756</ele>
        <time>2011-08-06T06:11:57Z</time>
      </trkpt>
      <trkpt lat="47.0363" lon="6.59352">
        <ele>756</ele>
        <time>2011-08-06T06:12:00Z</time>
      </trkpt>
      <trkpt lat="47.0365" lon="6.59309">
        <ele>756</ele>
        <time>2011-08-06T06:12:13Z</time>
      </trkpt>
      <trkpt lat="47.03657" lon="6.59297">
        <ele>756</ele>
        <time>2011-08-06T06:12:23Z</time>
      </trkpt>
      <trkpt lat="47.03656" lon="6.59298">
        <ele>756</ele>
        <time>2011-08-06T06:12:24Z</time>
      </trkpt>
      <trkpt lat="47.03634" lon="6.59335">
        <ele>756</ele>
        <time>2011-08-06T06:12:39Z</time>
      </trkpt>
      <trkpt lat="47.03624" lon="6.59359">
        <ele>756</ele>
        <time>2011-08-06T06:12:44Z</time>
      </trkpt>
      <trkpt lat="47.03591" lon="6.59411">
        <ele>758</ele>
        <time>2011-08-06T06:12:56Z</time>
      </trkpt>
      <trkpt lat="47.03575" lon="6.5943">
        <ele>758</ele>
        <time>2011-08-06T06:13:01Z</time>
      </trkpt>
      <trkpt lat="47.03568" lon="6.59436">
        <ele>758</ele>
        <time>2011-08-06T06:13:03Z</time>
      </trkpt>
      <trkpt lat="47.03554" lon="6.59443">
        <ele>758</ele>
        <time>2011-08-06T06:13:06Z</time>
      </trkpt>
      <trkpt lat="47.03496" lon="6.59461">
        <ele>758</ele>
        <time>2011-08-06T06:13:19Z</time>
      </trkpt>
      <trkpt lat="47.03483" lon="6.59465">
        <ele>758</ele>
        <time>2011-08-06T06:13:22Z</time>
      </trkpt>
      <trkpt lat="47.03474" lon="6.59469">
        <ele>758</ele>
        <time>2011-08-06T06:13:24Z</time>
      </trkpt>
      <trkpt lat="47.03433" lon="6.59478">
        <ele>758</ele>
        <time>2011-08-06T06:13:32Z</time>
      </trkpt>
      <trkpt lat="47.03414" lon="6.5948">
        <ele>758</ele>
        <time>2011-08-06T06:13:36Z</time>
      </trkpt>
      <trkpt lat="47.03346" lon="6.59472">
        <ele>759</ele>
        <time>2011-08-06T06:13:50Z</time>
      </trkpt>
      <trkpt lat="47.03329" lon="6.59471">
        <ele>760</ele>
        <time>2011-08-06T06:13:54Z</time>
      </trkpt>
      <trkpt lat="47.03311" lon="6.59474">
        <ele>760</ele>
        <time>2011-08-06T06:13:58Z</time>
      </trkpt>
      <trkpt lat="47.03282" lon="6.59482">
        <ele>761</ele>
        <time>2011-08-06T06:14:04Z</time>
      </trkpt>
      <trkpt lat="47.03248" lon="6.59493">
        <ele>762</ele>
        <time>2011-08-06T06:14:11Z</time>
      </trkpt>
      <trkpt lat="47.03213" lon="6.59493">
        <ele>762</ele>
        <time>2011-08-06T06:14:18Z</time>
      </trkpt>
      <trkpt lat="47.03194" lon="6.59463">
        <ele>762</ele>
        <time>2011-08-06T06:14:27Z</time>
      </trkpt>
      <trkpt lat="47.03219" lon="6.59426">
        <ele>761</ele>
        <time>2011-08-06T06:14:34Z</time>
      </trkpt>
      <trkpt lat="47.03293" lon="6.59321">
        <ele>761</ele>
        <time>2011-08-06T06:14:53Z</time>
      </trkpt>
      <trkpt lat="47.0335" lon="6.59199">
        <ele>762</ele>
        <time>2011-08-06T06:15:12Z</time>
      </trkpt>
      <trkpt lat="47.03419" lon="6.59069">
        <ele>763</ele>
        <time>2011-08-06T06:15:33Z</time>
      </trkpt>
      <trkpt lat="47.03427" lon="6.59039">
        <ele>763</ele>
        <time>2011-08-06T06:15:38Z</time>
      </trkpt>
      <trkpt lat="47.03457" lon="6.58957">
        <ele>764</ele>
        <time>2011-08-06T06:15:52Z</time>
      </trkpt>
      <trkpt lat="47.03442" lon="6.58941">
        <ele>765</ele>
        <time>2011-08-06T06:15:57Z</time>
      </trkpt>
      <trkpt lat="47.0339" lon="6.58917">
        <ele>770</ele>
        <time>2011-08-06T06:16:14Z</time>
      </trkpt>
      <trkpt lat="47.03335" lon="6.58879">
        <ele>771</ele>
        <time>2011-08-06T06:16:33Z</time>
      </trkpt>
      <trkpt lat="47.03279" lon="6.58854">
        <ele>779</ele>
        <time>2011-08-06T06:16:52Z</time>
      </trkpt>
      <trkpt lat="47.0321" lon="6.58838">
        <ele>787</ele>
        <time>2011-08-06T06:17:15Z</time>
      </trkpt>
      <trkpt lat="47.0316" lon="6.58802">
        <ele>788</ele>
        <time>2011-08-06T06:17:31Z</time>
      </trkpt>
      <trkpt lat="47.03083" lon="6.58737">
        <ele>790</ele>
        <time>2011-08-06T06:17:54Z</time>
      </trkpt>
      <trkpt lat="47.03025" lon="6.58711">
        <ele>791</ele>
        <time>2011-08-06T06:18:12Z</time>
      </trkpt>
      <trkpt lat="47.02966" lon="6.58684">
        <ele>796</ele>
        <time>2011-08-06T06:18:30Z</time>
      </trkpt>
      <trkpt lat="47.02893" lon="6.58618">
        <ele>798</ele>
        <time>2011-08-06T06:18:51Z</time>
      </trkpt>
      <trkpt lat="47.0283" lon="6.58554">
        <ele>803</ele>
        <time>2011-08-06T06:19:10Z</time>
      </trkpt>
      <trkpt lat="47.02757" lon="6.58491">
        <ele>802</ele>
        <time>2011-08-06T06:19:31Z</time>
      </trkpt>
      <trkpt lat="47.02739" lon="6.58467">
        <ele>804</ele>
        <time>2011-08-06T06:19:37Z</time>
      </trkpt>
      <trkpt lat="47.02727" lon="6.5844">
        <ele>803</ele>
        <time>2011-08-06T06:19:42Z</time>
      </trkpt>
      <trkpt lat="47.02676" lon="6.5838">
        <ele>802</ele>
        <time>2011-08-06T06:19:54Z</time>
      </trkpt>
      <trkpt lat="47.02672" lon="6.58337">
        <ele>803</ele>
        <time>2011-08-06T06:20:00Z</time>
      </trkpt>
      <trkpt lat="47.02675" lon="6.58319">
        <ele>802</ele>
        <time>2011-08-06T06:20:03Z</time>
      </trkpt>
      <trkpt lat="47.02667" lon="6.58306">
        <ele>801</ele>
        <time>2011-08-06T06:20:07Z</time>
      </trkpt>
      <trkpt lat="47.02612" lon="6.58265">
        <ele>807</ele>
        <time>2011-08-06T06:20:25Z</time>
      </trkpt>
      <trkpt lat="47.02562" lon="6.58253">
        <ele>812</ele>
        <time>2011-08-06T06:20:40Z</time>
      </trkpt>
      <trkpt lat="47.02523" lon="6.58213">
        <ele>814</ele>
        <time>2011-08-06T06:20:53Z</time>
      </trkpt>
      <trkpt lat="47.02489" lon="6.58178">
        <ele>819</ele>
        <time>2011-08-06T06:21:05Z</time>
      </trkpt>
      <trkpt lat="47.02486" lon="6.58174">
        <ele>819</ele>
        <time>2011-08-06T06:21:06Z</time>
      </trkpt>
      <trkpt lat="47.02449" lon="6.58126">
        <ele>819</ele>
        <time>2011-08-06T06:21:18Z</time>
      </trkpt>
      <trkpt lat="47.02412" lon="6.5809">
        <ele>822</ele>
        <time>2011-08-06T06:21:30Z</time>
      </trkpt>
      <trkpt lat="47.02407" lon="6.58074">
        <ele>822</ele>
        <time>2011-08-06T06:21:38Z</time>
      </trkpt>
      <trkpt lat="47.02401" lon="6.58083">
        <ele>823</ele>
        <time>2011-08-06T06:21:43Z</time>
      </trkpt>
      <trkpt lat="47.0239" lon="6.58086">
        <ele>824</ele>
        <time>2011-08-06T06:21:48Z</time>
      </trkpt>
      <trkpt lat="47.02347" lon="6.58053">
        <ele>825</ele>
        <time>2011-08-06T06:22:05Z</time>
      </trkpt>
      <trkpt lat="47.02295" lon="6.58006">
        <ele>831</ele>
        <time>2011-08-06T06:22:26Z</time>
      </trkpt>
      <trkpt lat="47.02282" lon="6.57998">
        <ele>830</ele>
        <time>2011-08-06T06:22:33Z</time>
      </trkpt>
      <trkpt lat="47.02277" lon="6.57989">
        <ele>830</ele>
        <time>2011-08-06T06:22:47Z</time>
      </trkpt>
      <trkpt lat="47.02275" lon="6.57992">
        <ele>831</ele>
        <time>2011-08-06T06:23:18Z</time>
      </trkpt>
      <trkpt lat="47.02278" lon="6.57996">
        <ele>831</ele>
        <time>2011-08-06T06:23:22Z</time>
      </trkpt>
      <trkpt lat="47.02329" lon="6.58038">
        <ele>830</ele>
        <time>2011-08-06T06:23:34Z</time>
      </trkpt>
      <trkpt lat="47.0241" lon="6.58098">
        <ele>823</ele>
        <time>2011-08-06T06:23:46Z</time>
      </trkpt>
      <trkpt lat="47.02429" lon="6.58111">
        <ele>820</ele>
        <time>2011-08-06T06:23:49Z</time>
      </trkpt>
      <trkpt lat="47.02457" lon="6.58138">
        <ele>819</ele>
        <time>2011-08-06T06:23:54Z</time>
      </trkpt>
      <trkpt lat="47.02485" lon="6.58174">
        <ele>819</ele>
        <time>2011-08-06T06:23:59Z</time>
      </trkpt>
      <trkpt lat="47.02549" lon="6.58245">
        <ele>812</ele>
        <time>2011-08-06T06:24:10Z</time>
      </trkpt>
      <trkpt lat="47.02586" lon="6.58262">
        <ele>808</ele>
        <time>2011-08-06T06:24:15Z</time>
      </trkpt>
      <trkpt lat="47.02658" lon="6.5831">
        <ele>805</ele>
        <time>2011-08-06T06:24:26Z</time>
      </trkpt>
      <trkpt lat="47.02695" lon="6.58298">
        <ele>800</ele>
        <time>2011-08-06T06:24:34Z</time>
      </trkpt>
      <trkpt lat="47.0275" lon="6.5822">
        <ele>799</ele>
        <time>2011-08-06T06:24:45Z</time>
      </trkpt>
      <trkpt lat="47.02774" lon="6.58132">
        <ele>793</ele>
        <time>2011-08-06T06:24:53Z</time>
      </trkpt>
      <trkpt lat="47.02765" lon="6.58048">
        <ele>791</ele>
        <time>2011-08-06T06:25:00Z</time>
      </trkpt>
      <trkpt lat="47.02745" lon="6.57988">
        <ele>792</ele>
        <time>2011-08-06T06:25:05Z</time>
      </trkpt>
      <trkpt lat="47.02668" lon="6.57836">
        <ele>786</ele>
        <time>2011-08-06T06:25:19Z</time>
      </trkpt>
      <trkpt lat="47.02628" lon="6.57717">
        <ele>777</ele>
        <time>2011-08-06T06:25:29Z</time>
      </trkpt>
      <trkpt lat="47.026" lon="6.57669">
        <ele>777</ele>
        <time>2011-08-06T06:25:34Z</time>
      </trkpt>
      <trkpt lat="47.02582" lon="6.5765">
        <ele>779</ele>
        <time>2011-08-06T06:25:37Z</time>
      </trkpt>
      <trkpt lat="47.02582" lon="6.57593">
        <ele>774</ele>
        <time>2011-08-06T06:25:44Z</time>
      </trkpt>
      <trkpt lat="47.02588" lon="6.57588">
        <ele>772</ele>
        <time>2011-08-06T06:25:45Z</time>
      </trkpt>
      <trkpt lat="47.02677" lon="6.57506">
        <ele>763</ele>
        <time>2011-08-06T06:25:58Z</time>
      </trkpt>
      <trkpt lat="47.02721" lon="6.57461">
        <ele>761</ele>
        <time>2011-08-06T06:26:04Z</time>
      </trkpt>
      <trkpt lat="47.02741" lon="6.57404">
        <ele>760</ele>
        <time>2011-08-06T06:26:10Z</time>
      </trkpt>
      <trkpt lat="47.02746" lon="6.57256">
        <ele>761</ele>
        <time>2011-08-06T06:26:28Z</time>
      </trkpt>
      <trkpt lat="47.02717" lon="6.57199">
        <ele>763</ele>
        <time>2011-08-06T06:26:39Z</time>
      </trkpt>
      <trkpt lat="47.02651" lon="6.57097">
        <ele>764</ele>
        <time>2011-08-06T06:26:59Z</time>
      </trkpt>
      <trkpt lat="47.02586" lon="6.57037">
        <ele>766</ele>
        <time>2011-08-06T06:27:13Z</time>
      </trkpt>
      <trkpt lat="47.02541" lon="6.56952">
        <ele>765</ele>
        <time>2011-08-06T06:27:26Z</time>
      </trkpt>
      <trkpt lat="47.02525" lon="6.56835">
        <ele>767</ele>
        <time>2011-08-06T06:27:42Z</time>
      </trkpt>
      <trkpt lat="47.0249" lon="6.5677">
        <ele>768</ele>
        <time>2011-08-06T06:27:53Z</time>
      </trkpt>
      <trkpt lat="47.02398" lon="6.56698">
        <ele>770</ele>
        <time>2011-08-06T06:28:13Z</time>
      </trkpt>
      <trkpt lat="47.02315" lon="6.56646">
        <ele>771</ele>
        <time>2011-08-06T06:28:32Z</time>
      </trkpt>
      <trkpt lat="47.02311" lon="6.56632">
        <ele>772</ele>
        <time>2011-08-06T06:28:35Z</time>
      </trkpt>
      <trkpt lat="47.02324" lon="6.56568">
        <ele>778</ele>
        <time>2011-08-06T06:28:51Z</time>
      </trkpt>
      <trkpt lat="47.02305" lon="6.56547">
        <ele>779</ele>
        <time>2011-08-06T06:29:02Z</time>
      </trkpt>
      <trkpt lat="47.02263" lon="6.56515">
        <ele>779</ele>
        <time>2011-08-06T06:29:23Z</time>
      </trkpt>
      <trkpt lat="47.02246" lon="6.56453">
        <ele>781</ele>
        <time>2011-08-06T06:29:42Z</time>
      </trkpt>
      <trkpt lat="47.0224" lon="6.56372">
        <ele>786</ele>
        <time>2011-08-06T06:30:06Z</time>
      </trkpt>
      <trkpt lat="47.02249" lon="6.56315">
        <ele>791</ele>
        <time>2011-08-06T06:30:22Z</time>
      </trkpt>
      <trkpt lat="47.0225" lon="6.56239">
        <ele>795</ele>
        <time>2011-08-06T06:30:42Z</time>
      </trkpt>
      <trkpt lat="47.02255" lon="6.5616">
        <ele>805</ele>
        <time>2011-08-06T06:31:05Z</time>
      </trkpt>
      <trkpt lat="47.02267" lon="6.56114">
        <ele>810</ele>
        <time>2011-08-06T06:31:20Z</time>
      </trkpt>
      <trkpt lat="47.023" lon="6.56071">
        <ele>817</ele>
        <time>2011-08-06T06:31:40Z</time>
      </trkpt>
      <trkpt lat="47.02312" lon="6.56019">
        <ele>819</ele>
        <time>2011-08-06T06:31:57Z</time>
      </trkpt>
      <trkpt lat="47.02322" lon="6.55994">
        <ele>821</ele>
        <time>2011-08-06T06:32:06Z</time>
      </trkpt>
      <trkpt lat="47.02313" lon="6.55971">
        <ele>821</ele>
        <time>2011-08-06T06:32:16Z</time>
      </trkpt>
      <trkpt lat="47.02277" lon="6.55938">
        <ele>821</ele>
        <time>2011-08-06T06:32:32Z</time>
      </trkpt>
      <trkpt lat="47.02254" lon="6.5592">
        <ele>823</ele>
        <time>2011-08-06T06:32:47Z</time>
      </trkpt>
      <trkpt lat="47.02255" lon="6.5592">
        <ele>823</ele>
        <time>2011-08-06T06:34:04Z</time>
      </trkpt>
      <trkpt lat="47.02226" lon="6.55896">
        <ele>823</ele>
        <time>2011-08-06T06:34:16Z</time>
      </trkpt>
      <trkpt lat="47.02173" lon="6.55848">
        <ele>825</ele>
        <time>2011-08-06T06:34:35Z</time>
      </trkpt>
      <trkpt lat="47.02137" lon="6.55812">
        <ele>827</ele>
        <time>2011-08-06T06:34:49Z</time>
      </trkpt>
      <trkpt lat="47.02072" lon="6.55748">
        <ele>830</ele>
        <time>2011-08-06T06:35:07Z</time>
      </trkpt>
      <trkpt lat="47.02008" lon="6.55685">
        <ele>833</ele>
        <time>2011-08-06T06:35:28Z</time>
      </trkpt>
      <trkpt lat="47.01953" lon="6.55633">
        <ele>838</ele>
        <time>2011-08-06T06:35:47Z</time>
      </trkpt>
      <trkpt lat="47.01905" lon="6.55571">
        <ele>840</ele>
        <time>2011-08-06T06:36:05Z</time>
      </trkpt>
      <trkpt lat="47.01855" lon="6.55489">
        <ele>845</ele>
        <time>2011-08-06T06:36:26Z</time>
      </trkpt>
      <trkpt lat="47.01806" lon="6.55413">
        <ele>848</ele>
        <time>2011-08-06T06:36:46Z</time>
      </trkpt>
      <trkpt lat="47.01761" lon="6.5533">
        <ele>852</ele>
        <time>2011-08-06T06:37:04Z</time>
      </trkpt>
      <trkpt lat="47.01724" lon="6.5526">
        <ele>850</ele>
        <time>2011-08-06T06:37:20Z</time>
      </trkpt>
      <trkpt lat="47.01707" lon="6.55205">
        <ele>857</ele>
        <time>2011-08-06T06:37:36Z</time>
      </trkpt>
      <trkpt lat="47.01697" lon="6.55161">
        <ele>868</ele>
        <time>2011-08-06T06:37:53Z</time>
      </trkpt>
      <trkpt lat="47.01692" lon="6.55126">
        <ele>872</ele>
        <time>2011-08-06T06:38:08Z</time>
      </trkpt>
      <trkpt lat="47.01688" lon="6.551">
        <ele>874</ele>
        <time>2011-08-06T06:38:19Z</time>
      </trkpt>
      <trkpt lat="47.01688" lon="6.55095">
        <ele>874</ele>
        <time>2011-08-06T06:38:22Z</time>
      </trkpt>
      <trkpt lat="47.01684" lon="6.55085">
        <ele>875</ele>
        <time>2011-08-06T06:38:27Z</time>
      </trkpt>
      <trkpt lat="47.01677" lon="6.55073">
        <ele>885</ele>
        <time>2011-08-06T06:38:33Z</time>
      </trkpt>
      <trkpt lat="47.01666" lon="6.55058">
        <ele>882</ele>
        <time>2011-08-06T06:38:44Z</time>
      </trkpt>
      <trkpt lat="47.01664" lon="6.55055">
        <ele>883</ele>
        <time>2011-08-06T06:38:46Z</time>
      </trkpt>
      <trkpt lat="47.01655" lon="6.55038">
        <ele>887</ele>
        <time>2011-08-06T06:38:58Z</time>
      </trkpt>
      <trkpt lat="47.01646" lon="6.55025">
        <ele>890</ele>
        <time>2011-08-06T06:39:07Z</time>
      </trkpt>
      <trkpt lat="47.01631" lon="6.54997">
        <ele>910</ele>
        <time>2011-08-06T06:39:22Z</time>
      </trkpt>
      <trkpt lat="47.01621" lon="6.54997">
        <ele>909</ele>
        <time>2011-08-06T06:39:30Z</time>
      </trkpt>
      <trkpt lat="47.01606" lon="6.54996">
        <ele>908</ele>
        <time>2011-08-06T06:39:42Z</time>
      </trkpt>
      <trkpt lat="47.01586" lon="6.54984">
        <ele>907</ele>
        <time>2011-08-06T06:39:56Z</time>
      </trkpt>
      <trkpt lat="47.01562" lon="6.54963">
        <ele>906</ele>
        <time>2011-08-06T06:40:10Z</time>
      </trkpt>
      <trkpt lat="47.01549" lon="6.54953">
        <ele>906</ele>
        <time>2011-08-06T06:40:17Z</time>
      </trkpt>
      <trkpt lat="47.01531" lon="6.54941">
        <ele>907</ele>
        <time>2011-08-06T06:40:28Z</time>
      </trkpt>
      <trkpt lat="47.01503" lon="6.54912">
        <ele>917</ele>
        <time>2011-08-06T06:40:47Z</time>
      </trkpt>
      <trkpt lat="47.01477" lon="6.54886">
        <ele>915</ele>
        <time>2011-08-06T06:41:07Z</time>
      </trkpt>
      <trkpt lat="47.01454" lon="6.54861">
        <ele>917</ele>
        <time>2011-08-06T06:41:26Z</time>
      </trkpt>
      <trkpt lat="47.01438" lon="6.54851">
        <ele>917</ele>
        <time>2011-08-06T06:41:38Z</time>
      </trkpt>
      <trkpt lat="47.01435" lon="6.54848">
        <ele>917</ele>
        <time>2011-08-06T06:41:42Z</time>
      </trkpt>
      <trkpt lat="47.01411" lon="6.54816">
        <ele>920</ele>
        <time>2011-08-06T06:42:00Z</time>
      </trkpt>
      <trkpt lat="47.01393" lon="6.54786">
        <ele>921</ele>
        <time>2011-08-06T06:42:15Z</time>
      </trkpt>
      <trkpt lat="47.01385" lon="6.54766">
        <ele>923</ele>
        <time>2011-08-06T06:42:25Z</time>
      </trkpt>
      <trkpt lat="47.01386" lon="6.54763">
        <ele>923</ele>
        <time>2011-08-06T06:42:27Z</time>
      </trkpt>
      <trkpt lat="47.01391" lon="6.54756">
        <ele>925</ele>
        <time>2011-08-06T06:42:36Z</time>
      </trkpt>
      <trkpt lat="47.01403" lon="6.54752">
        <ele>928</ele>
        <time>2011-08-06T06:42:49Z</time>
      </trkpt>
      <trkpt lat="47.01412" lon="6.54749">
        <ele>934</ele>
        <time>2011-08-06T06:43:04Z</time>
      </trkpt>
      <trkpt lat="47.01414" lon="6.54748">
        <ele>935</ele>
        <time>2011-08-06T06:43:08Z</time>
      </trkpt>
      <trkpt lat="47.01428" lon="6.54749">
        <ele>935</ele>
        <time>2011-08-06T06:43:25Z</time>
      </trkpt>
      <trkpt lat="47.01442" lon="6.54749">
        <ele>936</ele>
        <time>2011-08-06T06:43:40Z</time>
      </trkpt>
      <trkpt lat="47.01448" lon="6.5475">
        <ele>936</ele>
        <time>2011-08-06T06:43:45Z</time>
      </trkpt>
      <trkpt lat="47.01461" lon="6.5475">
        <ele>934</ele>
        <time>2011-08-06T06:43:55Z</time>
      </trkpt>
      <trkpt lat="47.01484" lon="6.54751">
        <ele>936</ele>
        <time>2011-08-06T06:44:09Z</time>
      </trkpt>
      <trkpt lat="47.01495" lon="6.54748">
        <ele>938</ele>
        <time>2011-08-06T06:44:18Z</time>
      </trkpt>
      <trkpt lat="47.01497" lon="6.54742">
        <ele>938</ele>
        <time>2011-08-06T06:44:23Z</time>
      </trkpt>
      <trkpt lat="47.01473" lon="6.54686">
        <ele>936</ele>
        <time>2011-08-06T06:44:45Z</time>
      </trkpt>
      <trkpt lat="47.01457" lon="6.54635">
        <ele>938</ele>
        <time>2011-08-06T06:45:02Z</time>
      </trkpt>
      <trkpt lat="47.01427" lon="6.54571">
        <ele>945</ele>
        <time>2011-08-06T06:45:19Z</time>
      </trkpt>
      <trkpt lat="47.01404" lon="6.54531">
        <ele>946</ele>
        <time>2011-08-06T06:45:31Z</time>
      </trkpt>
      <trkpt lat="47.01386" lon="6.54495">
        <ele>952</ele>
        <time>2011-08-06T06:45:41Z</time>
      </trkpt>
      <trkpt lat="47.0136" lon="6.54461">
        <ele>952</ele>
        <time>2011-08-06T06:45:51Z</time>
      </trkpt>
      <trkpt lat="47.0135" lon="6.5445">
        <ele>952</ele>
        <time>2011-08-06T06:45:55Z</time>
      </trkpt>
      <trkpt lat="47.01322" lon="6.54429">
        <ele>951</ele>
        <time>2011-08-06T06:46:05Z</time>
      </trkpt>
      <trkpt lat="47.01291" lon="6.54413">
        <ele>955</ele>
        <time>2011-08-06T06:46:15Z</time>
      </trkpt>
      <trkpt lat="47.01252" lon="6.54379">
        <ele>955</ele>
        <time>2011-08-06T06:46:25Z</time>
      </trkpt>
      <trkpt lat="47.01243" lon="6.54375">
        <ele>950</ele>
        <time>2011-08-06T06:46:27Z</time>
      </trkpt>
      <trkpt lat="47.01227" lon="6.54372">
        <ele>950</ele>
        <time>2011-08-06T06:46:31Z</time>
      </trkpt>
      <trkpt lat="47.0119" lon="6.54347">
        <ele>949</ele>
        <time>2011-08-06T06:46:39Z</time>
      </trkpt>
      <trkpt lat="47.01146" lon="6.54258">
        <ele>949</ele>
        <time>2011-08-06T06:46:56Z</time>
      </trkpt>
      <trkpt lat="47.01103" lon="6.54171">
        <ele>948</ele>
        <time>2011-08-06T06:47:12Z</time>
      </trkpt>
      <trkpt lat="47.01032" lon="6.54075">
        <ele>946</ele>
        <time>2011-08-06T06:47:31Z</time>
      </trkpt>
      <trkpt lat="47.01002" lon="6.5405">
        <ele>946</ele>
        <time>2011-08-06T06:47:39Z</time>
      </trkpt>
      <trkpt lat="47.00937" lon="6.53943">
        <ele>945</ele>
        <time>2011-08-06T06:47:59Z</time>
      </trkpt>
      <trkpt lat="47.00893" lon="6.53873">
        <ele>944</ele>
        <time>2011-08-06T06:48:12Z</time>
      </trkpt>
      <trkpt lat="47.00874" lon="6.5386">
        <ele>944</ele>
        <time>2011-08-06T06:48:16Z</time>
      </trkpt>
      <trkpt lat="47.00799" lon="6.53826">
        <ele>945</ele>
        <time>2011-08-06T06:48:33Z</time>
      </trkpt>
      <trkpt lat="47.00787" lon="6.53815">
        <ele>946</ele>
        <time>2011-08-06T06:48:36Z</time>
      </trkpt>
      <trkpt lat="47.00729" lon="6.53781">
        <ele>952</ele>
        <time>2011-08-06T06:48:52Z</time>
      </trkpt>
      <trkpt lat="47.00685" lon="6.53755">
        <ele>956</ele>
        <time>2011-08-06T06:49:10Z</time>
      </trkpt>
      <trkpt lat="47.0065" lon="6.5373">
        <ele>960</ele>
        <time>2011-08-06T06:49:25Z</time>
      </trkpt>
      <trkpt lat="47.00621" lon="6.53686">
        <ele>962</ele>
        <time>2011-08-06T06:49:40Z</time>
      </trkpt>
      <trkpt lat="47.00601" lon="6.53652">
        <ele>965</ele>
        <time>2011-08-06T06:49:53Z</time>
      </trkpt>
      <trkpt lat="47.00588" lon="6.53622">
        <ele>963</ele>
        <time>2011-08-06T06:50:02Z</time>
      </trkpt>
      <trkpt lat="47.00575" lon="6.53597">
        <ele>970</ele>
        <time>2011-08-06T06:50:09Z</time>
      </trkpt>
      <trkpt lat="47.00566" lon="6.53579">
        <ele>970</ele>
        <time>2011-08-06T06:50:14Z</time>
      </trkpt>
      <trkpt lat="47.00544" lon="6.53518">
        <ele>972</ele>
        <time>2011-08-06T06:50:28Z</time>
      </trkpt>
      <trkpt lat="47.00528" lon="6.5347">
        <ele>972</ele>
        <time>2011-08-06T06:50:39Z</time>
      </trkpt>
      <trkpt lat="47.005" lon="6.53381">
        <ele>972</ele>
        <time>2011-08-06T06:50:55Z</time>
      </trkpt>
      <trkpt lat="47.00497" lon="6.53366">
        <ele>977</ele>
        <time>2011-08-06T06:50:58Z</time>
      </trkpt>
      <trkpt lat="47.0049" lon="6.53325">
        <ele>973</ele>
        <time>2011-08-06T06:51:07Z</time>
      </trkpt>
      <trkpt lat="47.00464" lon="6.53265">
        <ele>975</ele>
        <time>2011-08-06T06:51:14Z</time>
      </trkpt>
      <trkpt lat="47.00454" lon="6.53247">
        <ele>974</ele>
        <time>2011-08-06T06:51:17Z</time>
      </trkpt>
      <trkpt lat="47.00418" lon="6.53207">
        <ele>973</ele>
        <time>2011-08-06T06:51:26Z</time>
      </trkpt>
      <trkpt lat="47.00359" lon="6.53146">
        <ele>973</ele>
        <time>2011-08-06T06:51:45Z</time>
      </trkpt>
      <trkpt lat="47.00306" lon="6.53078">
        <ele>970</ele>
        <time>2011-08-06T06:52:01Z</time>
      </trkpt>
      <trkpt lat="47.00261" lon="6.53008">
        <ele>970</ele>
        <time>2011-08-06T06:52:17Z</time>
      </trkpt>
      <trkpt lat="47.00208" lon="6.52922">
        <ele>970</ele>
        <time>2011-08-06T06:52:36Z</time>
      </trkpt>
      <trkpt lat="47.00152" lon="6.52836">
        <ele>966</ele>
        <time>2011-08-06T06:52:55Z</time>
      </trkpt>
      <trkpt lat="47.00147" lon="6.52786">
        <ele>965</ele>
        <time>2011-08-06T06:53:07Z</time>
      </trkpt>
      <trkpt lat="47.00175" lon="6.52721">
        <ele>976</ele>
        <time>2011-08-06T06:53:22Z</time>
      </trkpt>
      <trkpt lat="47.00183" lon="6.52668">
        <ele>980</ele>
        <time>2011-08-06T06:53:36Z</time>
      </trkpt>
      <trkpt lat="47.00172" lon="6.52632">
        <ele>992</ele>
        <time>2011-08-06T06:53:50Z</time>
      </trkpt>
      <trkpt lat="47.0017" lon="6.5262">
        <ele>993</ele>
        <time>2011-08-06T06:53:55Z</time>
      </trkpt>
      <trkpt lat="47.00162" lon="6.52593">
        <ele>988</ele>
        <time>2011-08-06T06:54:07Z</time>
      </trkpt>
      <trkpt lat="47.00159" lon="6.52585">
        <ele>989</ele>
        <time>2011-08-06T06:54:11Z</time>
      </trkpt>
      <trkpt lat="47.00158" lon="6.52577">
        <ele>991</ele>
        <time>2011-08-06T06:54:14Z</time>
      </trkpt>
      <trkpt lat="47.00143" lon="6.52545">
        <ele>989</ele>
        <time>2011-08-06T06:54:29Z</time>
      </trkpt>
      <trkpt lat="47.00134" lon="6.52506">
        <ele>990</ele>
        <time>2011-08-06T06:54:43Z</time>
      </trkpt>
      <trkpt lat="47.00131" lon="6.5249">
        <ele>994</ele>
        <time>2011-08-06T06:54:50Z</time>
      </trkpt>
      <trkpt lat="47.00126" lon="6.52457">
        <ele>995</ele>
        <time>2011-08-06T06:55:03Z</time>
      </trkpt>
      <trkpt lat="47.00117" lon="6.52431">
        <ele>995</ele>
        <time>2011-08-06T06:55:15Z</time>
      </trkpt>
      <trkpt lat="47.00113" lon="6.5241">
        <ele>999</ele>
        <time>2011-08-06T06:55:24Z</time>
      </trkpt>
      <trkpt lat="47.00121" lon="6.5239">
        <ele>999</ele>
        <time>2011-08-06T06:55:35Z</time>
      </trkpt>
      <trkpt lat="47.00141" lon="6.52386">
        <ele>1000</ele>
        <time>2011-08-06T06:55:48Z</time>
      </trkpt>
      <trkpt lat="47.00148" lon="6.52388">
        <ele>1000</ele>
        <time>2011-08-06T06:55:52Z</time>
      </trkpt>
      <trkpt lat="47.00157" lon="6.52388">
        <ele>1000</ele>
        <time>2011-08-06T06:55:57Z</time>
      </trkpt>
      <trkpt lat="47.00182" lon="6.52376">
        <ele>1002</ele>
        <time>2011-08-06T06:56:09Z</time>
      </trkpt>
      <trkpt lat="47.00193" lon="6.52345">
        <ele>1001</ele>
        <time>2011-08-06T06:56:21Z</time>
      </trkpt>
      <trkpt lat="47.00198" lon="6.52339">
        <ele>1001</ele>
        <time>2011-08-06T06:56:23Z</time>
      </trkpt>
      <trkpt lat="47.00199" lon="6.52324">
        <ele>997</ele>
        <time>2011-08-06T06:56:27Z</time>
      </trkpt>
      <trkpt lat="47.00197" lon="6.52311">
        <ele>996</ele>
        <time>2011-08-06T06:56:30Z</time>
      </trkpt>
      <trkpt lat="47.00201" lon="6.52291">
        <ele>996</ele>
        <time>2011-08-06T06:56:33Z</time>
      </trkpt>
      <trkpt lat="47.00197" lon="6.52277">
        <ele>995</ele>
        <time>2011-08-06T06:56:43Z</time>
      </trkpt>
      <trkpt lat="47.002" lon="6.52246">
        <ele>991</ele>
        <time>2011-08-06T06:56:54Z</time>
      </trkpt>
      <trkpt lat="47.00201" lon="6.52233">
        <ele>991</ele>
        <time>2011-08-06T06:56:57Z</time>
      </trkpt>
      <trkpt lat="47.00203" lon="6.52179">
        <ele>990</ele>
        <time>2011-08-06T06:57:07Z</time>
      </trkpt>
      <trkpt lat="47.00206" lon="6.52156">
        <ele>989</ele>
        <time>2011-08-06T06:57:12Z</time>
      </trkpt>
      <trkpt lat="47.00206" lon="6.52139">
        <ele>989</ele>
        <time>2011-08-06T06:57:16Z</time>
      </trkpt>
      <trkpt lat="47.00217" lon="6.52071">
        <ele>988</ele>
        <time>2011-08-06T06:57:30Z</time>
      </trkpt>
      <trkpt lat="47.00229" lon="6.52005">
        <ele>988</ele>
        <time>2011-08-06T06:57:43Z</time>
      </trkpt>
      <trkpt lat="47.00235" lon="6.51966">
        <ele>984</ele>
        <time>2011-08-06T06:57:52Z</time>
      </trkpt>
      <trkpt lat="47.00244" lon="6.51914">
        <ele>982</ele>
        <time>2011-08-06T06:58:03Z</time>
      </trkpt>
      <trkpt lat="47.00256" lon="6.51838">
        <ele>976</ele>
        <time>2011-08-06T06:58:14Z</time>
      </trkpt>
      <trkpt lat="47.00279" lon="6.5177">
        <ele>969</ele>
        <time>2011-08-06T06:58:22Z</time>
      </trkpt>
      <trkpt lat="47.00293" lon="6.51742">
        <ele>966</ele>
        <time>2011-08-06T06:58:31Z</time>
      </trkpt>
      <trkpt lat="47.00295" lon="6.51733">
        <ele>965</ele>
        <time>2011-08-06T06:58:43Z</time>
      </trkpt>
      <trkpt lat="47.00295" lon="6.51732">
        <ele>965</ele>
        <time>2011-08-06T06:58:44Z</time>
      </trkpt>
      <trkpt lat="47.00286" lon="6.51674">
        <ele>964</ele>
        <time>2011-08-06T06:58:59Z</time>
      </trkpt>
      <trkpt lat="47.00286" lon="6.51617">
        <ele>964</ele>
        <time>2011-08-06T06:59:14Z</time>
      </trkpt>
      <trkpt lat="47.00285" lon="6.51614">
        <ele>964</ele>
        <time>2011-08-06T06:59:15Z</time>
      </trkpt>
      <trkpt lat="47.00274" lon="6.51546">
        <ele>963</ele>
        <time>2011-08-06T06:59:31Z</time>
      </trkpt>
      <trkpt lat="47.00271" lon="6.51539">
        <ele>963</ele>
        <time>2011-08-06T06:59:33Z</time>
      </trkpt>
      <trkpt lat="47.00265" lon="6.51486">
        <ele>961</ele>
        <time>2011-08-06T06:59:41Z</time>
      </trkpt>
      <trkpt lat="47.00262" lon="6.51454">
        <ele>959</ele>
        <time>2011-08-06T06:59:45Z</time>
      </trkpt>
      <trkpt lat="47.00281" lon="6.51378">
        <ele>952</ele>
        <time>2011-08-06T06:59:52Z</time>
      </trkpt>
      <trkpt lat="47.00311" lon="6.51335">
        <ele>949</ele>
        <time>2011-08-06T06:59:57Z</time>
      </trkpt>
      <trkpt lat="47.00325" lon="6.51321">
        <ele>947</ele>
        <time>2011-08-06T06:59:59Z</time>
      </trkpt>
      <trkpt lat="47.00345" lon="6.51293">
        <ele>943</ele>
        <time>2011-08-06T07:00:02Z</time>
      </trkpt>
      <trkpt lat="47.00371" lon="6.51228">
        <ele>941</ele>
        <time>2011-08-06T07:00:10Z</time>
      </trkpt>
      <trkpt lat="47.00369" lon="6.51214">
        <ele>941</ele>
        <time>2011-08-06T07:00:12Z</time>
      </trkpt>
      <trkpt lat="47.00351" lon="6.51206">
        <ele>943</ele>
        <time>2011-08-06T07:00:17Z</time>
      </trkpt>
      <trkpt lat="47.00308" lon="6.51201">
        <ele>949</ele>
        <time>2011-08-06T07:00:28Z</time>
      </trkpt>
      <trkpt lat="47.00276" lon="6.51195">
        <ele>950</ele>
        <time>2011-08-06T07:00:35Z</time>
      </trkpt>
      <trkpt lat="47.00258" lon="6.5119">
        <ele>951</ele>
        <time>2011-08-06T07:00:39Z</time>
      </trkpt>
      <trkpt lat="47.00216" lon="6.51189">
        <ele>952</ele>
        <time>2011-08-06T07:00:51Z</time>
      </trkpt>
      <trkpt lat="47.00203" lon="6.51186">
        <ele>952</ele>
        <time>2011-08-06T07:00:54Z</time>
      </trkpt>
      <trkpt lat="47.00142" lon="6.51201">
        <ele>954</ele>
        <time>2011-08-06T07:01:04Z</time>
      </trkpt>
      <trkpt lat="47.00125" lon="6.51209">
        <ele>955</ele>
        <time>2011-08-06T07:01:07Z</time>
      </trkpt>
      <trkpt lat="47.00075" lon="6.51209">
        <ele>960</ele>
        <time>2011-08-06T07:01:16Z</time>
      </trkpt>
      <trkpt lat="47.00064" lon="6.51206">
        <ele>960</ele>
        <time>2011-08-06T07:01:18Z</time>
      </trkpt>
      <trkpt lat="47.00054" lon="6.51203">
        <ele>961</ele>
        <time>2011-08-06T07:01:20Z</time>
      </trkpt>
      <trkpt lat="47.00045" lon="6.51202">
        <ele>961</ele>
        <time>2011-08-06T07:01:22Z</time>
      </trkpt>
      <trkpt lat="47.00031" lon="6.51202">
        <ele>961</ele>
        <time>2011-08-06T07:01:25Z</time>
      </trkpt>
      <trkpt lat="47.00008" lon="6.51211">
        <ele>961</ele>
        <time>2011-08-06T07:01:30Z</time>
      </trkpt>
      <trkpt lat="46.99977" lon="6.51229">
        <ele>961</ele>
        <time>2011-08-06T07:01:37Z</time>
      </trkpt>
      <trkpt lat="46.9994" lon="6.51257">
        <ele>961</ele>
        <time>2011-08-06T07:01:47Z</time>
      </trkpt>
      <trkpt lat="46.99901" lon="6.51264">
        <ele>963</ele>
        <time>2011-08-06T07:01:57Z</time>
      </trkpt>
      <trkpt lat="46.99863" lon="6.51265">
        <ele>965</ele>
        <time>2011-08-06T07:02:04Z</time>
      </trkpt>
      <trkpt lat="46.99805" lon="6.51247">
        <ele>966</ele>
        <time>2011-08-06T07:02:17Z</time>
      </trkpt>
      <trkpt lat="46.99739" lon="6.51211">
        <ele>969</ele>
        <time>2011-08-06T07:02:34Z</time>
      </trkpt>
      <trkpt lat="46.99723" lon="6.51203">
        <ele>969</ele>
        <time>2011-08-06T07:02:38Z</time>
      </trkpt>
      <trkpt lat="46.99681" lon="6.51191">
        <ele>969</ele>
        <time>2011-08-06T07:02:50Z</time>
      </trkpt>
      <trkpt lat="46.99652" lon="6.51185">
        <ele>970</ele>
        <time>2011-08-06T07:02:57Z</time>
      </trkpt>
      <trkpt lat="46.99594" lon="6.51137">
        <ele>969</ele>
        <time>2011-08-06T07:03:13Z</time>
      </trkpt>
      <trkpt lat="46.99535" lon="6.51101">
        <ele>965</ele>
        <time>2011-08-06T07:03:29Z</time>
      </trkpt>
      <trkpt lat="46.99472" lon="6.51068">
        <ele>965</ele>
        <time>2011-08-06T07:03:45Z</time>
      </trkpt>
      <trkpt lat="46.9942" lon="6.51016">
        <ele>967</ele>
        <time>2011-08-06T07:04:02Z</time>
      </trkpt>
      <trkpt lat="46.99388" lon="6.50974">
        <ele>972</ele>
        <time>2011-08-06T07:04:15Z</time>
      </trkpt>
      <trkpt lat="46.9936" lon="6.50927">
        <ele>972</ele>
        <time>2011-08-06T07:04:26Z</time>
      </trkpt>
      <trkpt lat="46.99307" lon="6.50825">
        <ele>974</ele>
        <time>2011-08-06T07:04:51Z</time>
      </trkpt>
      <trkpt lat="46.99285" lon="6.50737">
        <ele>978</ele>
        <time>2011-08-06T07:05:12Z</time>
      </trkpt>
      <trkpt lat="46.99264" lon="6.50645">
        <ele>980</ele>
        <time>2011-08-06T07:05:33Z</time>
      </trkpt>
      <trkpt lat="46.99229" lon="6.5058">
        <ele>983</ele>
        <time>2011-08-06T07:05:51Z</time>
      </trkpt>
      <trkpt lat="46.99183" lon="6.50505">
        <ele>985</ele>
        <time>2011-08-06T07:06:13Z</time>
      </trkpt>
      <trkpt lat="46.99151" lon="6.50437">
        <ele>989</ele>
        <time>2011-08-06T07:06:32Z</time>
      </trkpt>
      <trkpt lat="46.99119" lon="6.50378">
        <ele>991</ele>
        <time>2011-08-06T07:06:48Z</time>
      </trkpt>
      <trkpt lat="46.99108" lon="6.50363">
        <ele>991</ele>
        <time>2011-08-06T07:06:52Z</time>
      </trkpt>
      <trkpt lat="46.99067" lon="6.50345">
        <ele>987</ele>
        <time>2011-08-06T07:07:01Z</time>
      </trkpt>
      <trkpt lat="46.99045" lon="6.50301">
        <ele>988</ele>
        <time>2011-08-06T07:07:09Z</time>
      </trkpt>
      <trkpt lat="46.99031" lon="6.50192">
        <ele>992</ele>
        <time>2011-08-06T07:07:29Z</time>
      </trkpt>
      <trkpt lat="46.98998" lon="6.50089">
        <ele>996</ele>
        <time>2011-08-06T07:07:50Z</time>
      </trkpt>
      <trkpt lat="46.98986" lon="6.49996">
        <ele>997</ele>
        <time>2011-08-06T07:08:07Z</time>
      </trkpt>
      <trkpt lat="46.99022" lon="6.49928">
        <ele>1001</ele>
        <time>2011-08-06T07:08:23Z</time>
      </trkpt>
      <trkpt lat="46.99048" lon="6.49884">
        <ele>1001</ele>
        <time>2011-08-06T07:08:36Z</time>
      </trkpt>
      <trkpt lat="46.9907" lon="6.4985">
        <ele>1000</ele>
        <time>2011-08-06T07:08:44Z</time>
      </trkpt>
      <trkpt lat="46.99067" lon="6.49813">
        <ele>1000</ele>
        <time>2011-08-06T07:08:51Z</time>
      </trkpt>
      <trkpt lat="46.99025" lon="6.49755">
        <ele>1002</ele>
        <time>2011-08-06T07:09:07Z</time>
      </trkpt>
      <trkpt lat="46.9897" lon="6.49709">
        <ele>1004</ele>
        <time>2011-08-06T07:09:22Z</time>
      </trkpt>
      <trkpt lat="46.98963" lon="6.49699">
        <ele>1004</ele>
        <time>2011-08-06T07:09:24Z</time>
      </trkpt>
      <trkpt lat="46.98891" lon="6.49587">
        <ele>999</ele>
        <time>2011-08-06T07:09:43Z</time>
      </trkpt>
      <trkpt lat="46.98818" lon="6.495">
        <ele>996</ele>
        <time>2011-08-06T07:09:59Z</time>
      </trkpt>
      <trkpt lat="46.98735" lon="6.4941">
        <ele>988</ele>
        <time>2011-08-06T07:10:11Z</time>
      </trkpt>
      <trkpt lat="46.98624" lon="6.49307">
        <ele>978</ele>
        <time>2011-08-06T07:10:23Z</time>
      </trkpt>
      <trkpt lat="46.98514" lon="6.49164">
        <ele>969</ele>
        <time>2011-08-06T07:10:36Z</time>
      </trkpt>
      <trkpt lat="46.98474" lon="6.49094">
        <ele>972</ele>
        <time>2011-08-06T07:10:43Z</time>
      </trkpt>
      <trkpt lat="46.98456" lon="6.49076">
        <ele>971</ele>
        <time>2011-08-06T07:10:48Z</time>
      </trkpt>
      <trkpt lat="46.98412" lon="6.49069">
        <ele>975</ele>
        <time>2011-08-06T07:11:03Z</time>
      </trkpt>
      <trkpt lat="46.9836" lon="6.49058">
        <ele>976</ele>
        <time>2011-08-06T07:11:19Z</time>
      </trkpt>
      <trkpt lat="46.98317" lon="6.49029">
        <ele>978</ele>
        <time>2011-08-06T07:11:33Z</time>
      </trkpt>
      <trkpt lat="46.98268" lon="6.4901">
        <ele>979</ele>
        <time>2011-08-06T07:11:50Z</time>
      </trkpt>
      <trkpt lat="46.98217" lon="6.48991">
        <ele>982</ele>
        <time>2011-08-06T07:12:09Z</time>
      </trkpt>
      <trkpt lat="46.98187" lon="6.49">
        <ele>984</ele>
        <time>2011-08-06T07:12:22Z</time>
      </trkpt>
      <trkpt lat="46.98179" lon="6.48995">
        <ele>984</ele>
        <time>2011-08-06T07:12:26Z</time>
      </trkpt>
      <trkpt lat="46.98161" lon="6.48974">
        <ele>987</ele>
        <time>2011-08-06T07:12:34Z</time>
      </trkpt>
      <trkpt lat="46.98154" lon="6.48966">
        <ele>988</ele>
        <time>2011-08-06T07:12:37Z</time>
      </trkpt>
      <trkpt lat="46.98134" lon="6.48926">
        <ele>988</ele>
        <time>2011-08-06T07:12:49Z</time>
      </trkpt>
      <trkpt lat="46.98114" lon="6.48895">
        <ele>987</ele>
        <time>2011-08-06T07:13:00Z</time>
      </trkpt>
      <trkpt lat="46.98098" lon="6.48869">
        <ele>987</ele>
        <time>2011-08-06T07:13:09Z</time>
      </trkpt>
      <trkpt lat="46.98068" lon="6.48841">
        <ele>991</ele>
        <time>2011-08-06T07:13:19Z</time>
      </trkpt>
      <trkpt lat="46.9804" lon="6.488">
        <ele>990</ele>
        <time>2011-08-06T07:13:31Z</time>
      </trkpt>
      <trkpt lat="46.98022" lon="6.48754">
        <ele>991</ele>
        <time>2011-08-06T07:13:47Z</time>
      </trkpt>
      <trkpt lat="46.97994" lon="6.48699">
        <ele>991</ele>
        <time>2011-08-06T07:14:02Z</time>
      </trkpt>
      <trkpt lat="46.97954" lon="6.4864">
        <ele>989</ele>
        <time>2011-08-06T07:14:17Z</time>
      </trkpt>
      <trkpt lat="46.97938" lon="6.48615">
        <ele>989</ele>
        <time>2011-08-06T07:14:22Z</time>
      </trkpt>
      <trkpt lat="46.97923" lon="6.48587">
        <ele>990</ele>
        <time>2011-08-06T07:14:28Z</time>
      </trkpt>
      <trkpt lat="46.97895" lon="6.48551">
        <ele>993</ele>
        <time>2011-08-06T07:14:38Z</time>
      </trkpt>
      <trkpt lat="46.97883" lon="6.48534">
        <ele>994</ele>
        <time>2011-08-06T07:14:44Z</time>
      </trkpt>
      <trkpt lat="46.97877" lon="6.48523">
        <ele>994</ele>
        <time>2011-08-06T07:14:49Z</time>
      </trkpt>
      <trkpt lat="46.97854" lon="6.48483">
        <ele>997</ele>
        <time>2011-08-06T07:15:01Z</time>
      </trkpt>
      <trkpt lat="46.97831" lon="6.48445">
        <ele>1002</ele>
        <time>2011-08-06T07:15:12Z</time>
      </trkpt>
      <trkpt lat="46.97804" lon="6.48398">
        <ele>1004</ele>
        <time>2011-08-06T07:15:24Z</time>
      </trkpt>
      <trkpt lat="46.97802" lon="6.48392">
        <ele>1005</ele>
        <time>2011-08-06T07:15:27Z</time>
      </trkpt>
      <trkpt lat="46.97793" lon="6.48355">
        <ele>1006</ele>
        <time>2011-08-06T07:15:41Z</time>
      </trkpt>
      <trkpt lat="46.97757" lon="6.48321">
        <ele>1008</ele>
        <time>2011-08-06T07:15:54Z</time>
      </trkpt>
      <trkpt lat="46.97697" lon="6.48274">
        <ele>1011</ele>
        <time>2011-08-06T07:16:15Z</time>
      </trkpt>
      <trkpt lat="46.9765" lon="6.48219">
        <ele>1015</ele>
        <time>2011-08-06T07:16:35Z</time>
      </trkpt>
      <trkpt lat="46.97617" lon="6.48147">
        <ele>1015</ele>
        <time>2011-08-06T07:16:55Z</time>
      </trkpt>
      <trkpt lat="46.97584" lon="6.48086">
        <ele>1017</ele>
        <time>2011-08-06T07:17:12Z</time>
      </trkpt>
      <trkpt lat="46.97546" lon="6.48032">
        <ele>1025</ele>
        <time>2011-08-06T07:17:30Z</time>
      </trkpt>
      <trkpt lat="46.97517" lon="6.47975">
        <ele>1026</ele>
        <time>2011-08-06T07:17:44Z</time>
      </trkpt>
      <trkpt lat="46.97506" lon="6.47932">
        <ele>1026</ele>
        <time>2011-08-06T07:17:54Z</time>
      </trkpt>
      <trkpt lat="46.97501" lon="6.47919">
        <ele>1026</ele>
        <time>2011-08-06T07:17:58Z</time>
      </trkpt>
      <trkpt lat="46.97483" lon="6.47877">
        <ele>1033</ele>
        <time>2011-08-06T07:18:11Z</time>
      </trkpt>
      <trkpt lat="46.97458" lon="6.47834">
        <ele>1035</ele>
        <time>2011-08-06T07:18:24Z</time>
      </trkpt>
      <trkpt lat="46.97446" lon="6.47807">
        <ele>1039</ele>
        <time>2011-08-06T07:18:34Z</time>
      </trkpt>
      <trkpt lat="46.97409" lon="6.47771">
        <ele>1043</ele>
        <time>2011-08-06T07:18:50Z</time>
      </trkpt>
      <trkpt lat="46.97372" lon="6.47755">
        <ele>1046</ele>
        <time>2011-08-06T07:19:04Z</time>
      </trkpt>
      <trkpt lat="46.97327" lon="6.4773">
        <ele>1054</ele>
        <time>2011-08-06T07:19:23Z</time>
      </trkpt>
      <trkpt lat="46.97323" lon="6.47723">
        <ele>1055</ele>
        <time>2011-08-06T07:19:28Z</time>
      </trkpt>
      <trkpt lat="46.97305" lon="6.47681">
        <ele>1057</ele>
        <time>2011-08-06T07:19:40Z</time>
      </trkpt>
      <trkpt lat="46.97282" lon="6.47657">
        <ele>1059</ele>
        <time>2011-08-06T07:19:48Z</time>
      </trkpt>
      <trkpt lat="46.97254" lon="6.47629">
        <ele>1060</ele>
        <time>2011-08-06T07:20:00Z</time>
      </trkpt>
      <trkpt lat="46.97223" lon="6.476">
        <ele>1062</ele>
        <time>2011-08-06T07:20:13Z</time>
      </trkpt>
      <trkpt lat="46.97216" lon="6.47595">
        <ele>1062</ele>
        <time>2011-08-06T07:20:15Z</time>
      </trkpt>
      <trkpt lat="46.97183" lon="6.47572">
        <ele>1062</ele>
        <time>2011-08-06T07:20:28Z</time>
      </trkpt>
      <trkpt lat="46.97135" lon="6.47563">
        <ele>1064</ele>
        <time>2011-08-06T07:20:45Z</time>
      </trkpt>
      <trkpt lat="46.97104" lon="6.47549">
        <ele>1065</ele>
        <time>2011-08-06T07:20:57Z</time>
      </trkpt>
      <trkpt lat="46.97073" lon="6.47517">
        <ele>1070</ele>
        <time>2011-08-06T07:21:10Z</time>
      </trkpt>
      <trkpt lat="46.97028" lon="6.47446">
        <ele>1072</ele>
        <time>2011-08-06T07:21:29Z</time>
      </trkpt>
      <trkpt lat="46.97015" lon="6.47424">
        <ele>1073</ele>
        <time>2011-08-06T07:21:35Z</time>
      </trkpt>
      <trkpt lat="46.97008" lon="6.47411">
        <ele>1073</ele>
        <time>2011-08-06T07:21:39Z</time>
      </trkpt>
      <trkpt lat="46.96976" lon="6.4736">
        <ele>1076</ele>
        <time>2011-08-06T07:21:55Z</time>
      </trkpt>
      <trkpt lat="46.96944" lon="6.47298">
        <ele>1075</ele>
        <time>2011-08-06T07:22:13Z</time>
      </trkpt>
      <trkpt lat="46.96914" lon="6.47238">
        <ele>1074</ele>
        <time>2011-08-06T07:22:31Z</time>
      </trkpt>
      <trkpt lat="46.96884" lon="6.4718">
        <ele>1074</ele>
        <time>2011-08-06T07:22:48Z</time>
      </trkpt>
      <trkpt lat="46.96843" lon="6.47121">
        <ele>1073</ele>
        <time>2011-08-06T07:23:06Z</time>
      </trkpt>
      <trkpt lat="46.96802" lon="6.47059">
        <ele>1072</ele>
        <time>2011-08-06T07:23:21Z</time>
      </trkpt>
      <trkpt lat="46.96739" lon="6.46953">
        <ele>1068</ele>
        <time>2011-08-06T07:23:39Z</time>
      </trkpt>
      <trkpt lat="46.96677" lon="6.4684">
        <ele>1066</ele>
        <time>2011-08-06T07:23:58Z</time>
      </trkpt>
      <trkpt lat="46.96644" lon="6.46787">
        <ele>1066</ele>
        <time>2011-08-06T07:24:10Z</time>
      </trkpt>
      <trkpt lat="46.96596" lon="6.46708">
        <ele>1066</ele>
        <time>2011-08-06T07:24:27Z</time>
      </trkpt>
      <trkpt lat="46.96586" lon="6.46676">
        <ele>1066</ele>
        <time>2011-08-06T07:24:32Z</time>
      </trkpt>
      <trkpt lat="46.96528" lon="6.46591">
        <ele>1065</ele>
        <time>2011-08-06T07:24:51Z</time>
      </trkpt>
      <trkpt lat="46.96518" lon="6.46569">
        <ele>1065</ele>
        <time>2011-08-06T07:24:55Z</time>
      </trkpt>
      <trkpt lat="46.96489" lon="6.46486">
        <ele>1068</ele>
        <time>2011-08-06T07:25:13Z</time>
      </trkpt>
      <trkpt lat="46.96442" lon="6.46436">
        <ele>1069</ele>
        <time>2011-08-06T07:25:31Z</time>
      </trkpt>
      <trkpt lat="46.9643" lon="6.46413">
        <ele>1072</ele>
        <time>2011-08-06T07:25:39Z</time>
      </trkpt>
      <trkpt lat="46.96426" lon="6.46409">
        <ele>1072</ele>
        <time>2011-08-06T07:25:41Z</time>
      </trkpt>
      <trkpt lat="46.96412" lon="6.46379">
        <ele>1071</ele>
        <time>2011-08-06T07:25:50Z</time>
      </trkpt>
      <trkpt lat="46.96391" lon="6.46352">
        <ele>1072</ele>
        <time>2011-08-06T07:26:01Z</time>
      </trkpt>
      <trkpt lat="46.9639" lon="6.46346">
        <ele>1072</ele>
        <time>2011-08-06T07:26:02Z</time>
      </trkpt>
      <trkpt lat="46.9636" lon="6.46299">
        <ele>1076</ele>
        <time>2011-08-06T07:26:15Z</time>
      </trkpt>
      <trkpt lat="46.96318" lon="6.46232">
        <ele>1079</ele>
        <time>2011-08-06T07:26:36Z</time>
      </trkpt>
      <trkpt lat="46.96294" lon="6.4618">
        <ele>1080</ele>
        <time>2011-08-06T07:26:52Z</time>
      </trkpt>
      <trkpt lat="46.96255" lon="6.46113">
        <ele>1082</ele>
        <time>2011-08-06T07:27:12Z</time>
      </trkpt>
      <trkpt lat="46.96228" lon="6.46075">
        <ele>1084</ele>
        <time>2011-08-06T07:27:29Z</time>
      </trkpt>
      <trkpt lat="46.96228" lon="6.46067">
        <ele>1084</ele>
        <time>2011-08-06T07:27:38Z</time>
      </trkpt>
      <trkpt lat="46.96218" lon="6.46037">
        <ele>1084</ele>
        <time>2011-08-06T07:27:51Z</time>
      </trkpt>
      <trkpt lat="46.96185" lon="6.45985">
        <ele>1085</ele>
        <time>2011-08-06T07:28:06Z</time>
      </trkpt>
      <trkpt lat="46.9615" lon="6.45957">
        <ele>1087</ele>
        <time>2011-08-06T07:28:23Z</time>
      </trkpt>
      <trkpt lat="46.9611" lon="6.45929">
        <ele>1087</ele>
        <time>2011-08-06T07:28:41Z</time>
      </trkpt>
      <trkpt lat="46.96099" lon="6.45916">
        <ele>1086</ele>
        <time>2011-08-06T07:28:51Z</time>
      </trkpt>
      <trkpt lat="46.96099" lon="6.45913">
        <ele>1086</ele>
        <time>2011-08-06T07:29:00Z</time>
      </trkpt>
      <trkpt lat="46.96098" lon="6.4591">
        <ele>1086</ele>
        <time>2011-08-06T07:29:11Z</time>
      </trkpt>
      <trkpt lat="46.96091" lon="6.45883">
        <ele>1085</ele>
        <time>2011-08-06T07:29:20Z</time>
      </trkpt>
      <trkpt lat="46.96066" lon="6.45809">
        <ele>1081</ele>
        <time>2011-08-06T07:29:34Z</time>
      </trkpt>
      <trkpt lat="46.96056" lon="6.45771">
        <ele>1079</ele>
        <time>2011-08-06T07:29:40Z</time>
      </trkpt>
      <trkpt lat="46.96032" lon="6.45748">
        <ele>1077</ele>
        <time>2011-08-06T07:29:46Z</time>
      </trkpt>
      <trkpt lat="46.95978" lon="6.45726">
        <ele>1076</ele>
        <time>2011-08-06T07:30:00Z</time>
      </trkpt>
      <trkpt lat="46.95964" lon="6.4573">
        <ele>1076</ele>
        <time>2011-08-06T07:30:03Z</time>
      </trkpt>
      <trkpt lat="46.95934" lon="6.4571">
        <ele>1074</ele>
        <time>2011-08-06T07:30:09Z</time>
      </trkpt>
      <trkpt lat="46.95905" lon="6.45666">
        <ele>1070</ele>
        <time>2011-08-06T07:30:14Z</time>
      </trkpt>
      <trkpt lat="46.95859" lon="6.45586">
        <ele>1068</ele>
        <time>2011-08-06T07:30:21Z</time>
      </trkpt>
      <trkpt lat="46.95825" lon="6.45494">
        <ele>1062</ele>
        <time>2011-08-06T07:30:27Z</time>
      </trkpt>
      <trkpt lat="46.95817" lon="6.45457">
        <ele>1061</ele>
        <time>2011-08-06T07:30:29Z</time>
      </trkpt>
      <trkpt lat="46.95813" lon="6.45367">
        <ele>1057</ele>
        <time>2011-08-06T07:30:34Z</time>
      </trkpt>
      <trkpt lat="46.9584" lon="6.45249">
        <ele>1056</ele>
        <time>2011-08-06T07:30:44Z</time>
      </trkpt>
      <trkpt lat="46.95864" lon="6.45164">
        <ele>1054</ele>
        <time>2011-08-06T07:30:57Z</time>
      </trkpt>
      <trkpt lat="46.95884" lon="6.45066">
        <ele>1050</ele>
        <time>2011-08-06T07:31:11Z</time>
      </trkpt>
      <trkpt lat="46.95887" lon="6.4504">
        <ele>1050</ele>
        <time>2011-08-06T07:31:15Z</time>
      </trkpt>
      <trkpt lat="46.95874" lon="6.45035">
        <ele>1049</ele>
        <time>2011-08-06T07:31:19Z</time>
      </trkpt>
      <trkpt lat="46.95856" lon="6.45036">
        <ele>1048</ele>
        <time>2011-08-06T07:31:22Z</time>
      </trkpt>
      <trkpt lat="46.95789" lon="6.44999">
        <ele>1045</ele>
        <time>2011-08-06T07:31:34Z</time>
      </trkpt>
      <trkpt lat="46.95718" lon="6.44934">
        <ele>1041</ele>
        <time>2011-08-06T07:31:50Z</time>
      </trkpt>
      <trkpt lat="46.95712" lon="6.44929">
        <ele>1041</ele>
        <time>2011-08-06T07:31:51Z</time>
      </trkpt>
      <trkpt lat="46.95607" lon="6.44884">
        <ele>1042</ele>
        <time>2011-08-06T07:32:05Z</time>
      </trkpt>
      <trkpt lat="46.95579" lon="6.44876">
        <ele>1040</ele>
        <time>2011-08-06T07:32:09Z</time>
      </trkpt>
      <trkpt lat="46.95531" lon="6.44904">
        <ele>1040</ele>
        <time>2011-08-06T07:32:18Z</time>
      </trkpt>
      <trkpt lat="46.9552" lon="6.44927">
        <ele>1039</ele>
        <time>2011-08-06T07:32:22Z</time>
      </trkpt>
      <trkpt lat="46.95473" lon="6.4496">
        <ele>1043</ele>
        <time>2011-08-06T07:32:36Z</time>
      </trkpt>
      <trkpt lat="46.95414" lon="6.44945">
        <ele>1047</ele>
        <time>2011-08-06T07:32:53Z</time>
      </trkpt>
      <trkpt lat="46.95345" lon="6.44948">
        <ele>1049</ele>
        <time>2011-08-06T07:33:14Z</time>
      </trkpt>
      <trkpt lat="46.95277" lon="6.44967">
        <ele>1050</ele>
        <time>2011-08-06T07:33:36Z</time>
      </trkpt>
      <trkpt lat="46.95255" lon="6.44965">
        <ele>1050</ele>
        <time>2011-08-06T07:33:42Z</time>
      </trkpt>
      <trkpt lat="46.95195" lon="6.44921">
        <ele>1042</ele>
        <time>2011-08-06T07:33:54Z</time>
      </trkpt>
      <trkpt lat="46.95139" lon="6.4486">
        <ele>1034</ele>
        <time>2011-08-06T07:34:04Z</time>
      </trkpt>
      <trkpt lat="46.95126" lon="6.44842">
        <ele>1033</ele>
        <time>2011-08-06T07:34:07Z</time>
      </trkpt>
      <trkpt lat="46.95101" lon="6.44798">
        <ele>1036</ele>
        <time>2011-08-06T07:34:18Z</time>
      </trkpt>
      <trkpt lat="46.95093" lon="6.44745">
        <ele>1038</ele>
        <time>2011-08-06T07:34:33Z</time>
      </trkpt>
      <trkpt lat="46.95092" lon="6.44737">
        <ele>1039</ele>
        <time>2011-08-06T07:34:35Z</time>
      </trkpt>
      <trkpt lat="46.95097" lon="6.44727">
        <ele>1040</ele>
        <time>2011-08-06T07:34:39Z</time>
      </trkpt>
      <trkpt lat="46.9511" lon="6.44696">
        <ele>1042</ele>
        <time>2011-08-06T07:34:51Z</time>
      </trkpt>
      <trkpt lat="46.95108" lon="6.44636">
        <ele>1045</ele>
        <time>2011-08-06T07:35:05Z</time>
      </trkpt>
      <trkpt lat="46.95113" lon="6.44629">
        <ele>1045</ele>
        <time>2011-08-06T07:35:07Z</time>
      </trkpt>
      <trkpt lat="46.95111" lon="6.44587">
        <ele>1046</ele>
        <time>2011-08-06T07:35:14Z</time>
      </trkpt>
      <trkpt lat="46.95082" lon="6.44527">
        <ele>1043</ele>
        <time>2011-08-06T07:35:29Z</time>
      </trkpt>
      <trkpt lat="46.95047" lon="6.44451">
        <ele>1041</ele>
        <time>2011-08-06T07:35:41Z</time>
      </trkpt>
      <trkpt lat="46.94994" lon="6.44337">
        <ele>1039</ele>
        <time>2011-08-06T07:35:56Z</time>
      </trkpt>
      <trkpt lat="46.94994" lon="6.44316">
        <ele>1040</ele>
        <time>2011-08-06T07:36:00Z</time>
      </trkpt>
      <trkpt lat="46.94999" lon="6.44305">
        <ele>1040</ele>
        <time>2011-08-06T07:36:02Z</time>
      </trkpt>
      <trkpt lat="46.95007" lon="6.44276">
        <ele>1042</ele>
        <time>2011-08-06T07:36:07Z</time>
      </trkpt>
      <trkpt lat="46.95038" lon="6.4421">
        <ele>1042</ele>
        <time>2011-08-06T07:36:18Z</time>
      </trkpt>
      <trkpt lat="46.95048" lon="6.44189">
        <ele>1042</ele>
        <time>2011-08-06T07:36:21Z</time>
      </trkpt>
      <trkpt lat="46.95068" lon="6.44173">
        <ele>1041</ele>
        <time>2011-08-06T07:36:25Z</time>
      </trkpt>
      <trkpt lat="46.95078" lon="6.44169">
        <ele>1041</ele>
        <time>2011-08-06T07:36:27Z</time>
      </trkpt>
      <trkpt lat="46.9509" lon="6.44159">
        <ele>1040</ele>
        <time>2011-08-06T07:36:30Z</time>
      </trkpt>
      <trkpt lat="46.95098" lon="6.4412">
        <ele>1041</ele>
        <time>2011-08-06T07:36:36Z</time>
      </trkpt>
      <trkpt lat="46.95117" lon="6.44034">
        <ele>1043</ele>
        <time>2011-08-06T07:36:46Z</time>
      </trkpt>
      <trkpt lat="46.95121" lon="6.44022">
        <ele>1044</ele>
        <time>2011-08-06T07:36:48Z</time>
      </trkpt>
      <trkpt lat="46.95122" lon="6.44">
        <ele>1044</ele>
        <time>2011-08-06T07:36:52Z</time>
      </trkpt>
      <trkpt lat="46.951" lon="6.43925">
        <ele>1042</ele>
        <time>2011-08-06T07:37:06Z</time>
      </trkpt>
      <trkpt lat="46.95092" lon="6.43897">
        <ele>1040</ele>
        <time>2011-08-06T07:37:12Z</time>
      </trkpt>
      <trkpt lat="46.95069" lon="6.43815">
        <ele>1034</ele>
        <time>2011-08-06T07:37:27Z</time>
      </trkpt>
      <trkpt lat="46.95067" lon="6.43809">
        <ele>1034</ele>
        <time>2011-08-06T07:37:28Z</time>
      </trkpt>
      <trkpt lat="46.95062" lon="6.43741">
        <ele>1038</ele>
        <time>2011-08-06T07:37:41Z</time>
      </trkpt>
      <trkpt lat="46.95062" lon="6.43735">
        <ele>1038</ele>
        <time>2011-08-06T07:37:53Z</time>
      </trkpt>
      <trkpt lat="46.95059" lon="6.43731">
        <ele>1038</ele>
        <time>2011-08-06T07:38:15Z</time>
      </trkpt>
      <trkpt lat="46.95059" lon="6.43731">
        <ele>1038</ele>
        <time>2011-08-06T07:38:23Z</time>
      </trkpt>
      <trkpt lat="46.95057" lon="6.43716">
        <ele>1038</ele>
        <time>2011-08-06T07:38:29Z</time>
      </trkpt>
      <trkpt lat="46.95067" lon="6.43661">
        <ele>1044</ele>
        <time>2011-08-06T07:38:47Z</time>
      </trkpt>
      <trkpt lat="46.95076" lon="6.43587">
        <ele>1047</ele>
        <time>2011-08-06T07:39:09Z</time>
      </trkpt>
      <trkpt lat="46.9508" lon="6.43511">
        <ele>1051</ele>
        <time>2011-08-06T07:39:30Z</time>
      </trkpt>
      <trkpt lat="46.95083" lon="6.43476">
        <ele>1054</ele>
        <time>2011-08-06T07:39:41Z</time>
      </trkpt>
      <trkpt lat="46.9508" lon="6.43415">
        <ele>1058</ele>
        <time>2011-08-06T07:39:58Z</time>
      </trkpt>
      <trkpt lat="46.95068" lon="6.4334">
        <ele>1057</ele>
        <time>2011-08-06T07:40:14Z</time>
      </trkpt>
      <trkpt lat="46.95033" lon="6.43274">
        <ele>1060</ele>
        <time>2011-08-06T07:40:37Z</time>
      </trkpt>
      <trkpt lat="46.95002" lon="6.43215">
        <ele>1064</ele>
        <time>2011-08-06T07:40:56Z</time>
      </trkpt>
      <trkpt lat="46.95007" lon="6.4316">
        <ele>1068</ele>
        <time>2011-08-06T07:41:12Z</time>
      </trkpt>
      <trkpt lat="46.95011" lon="6.43092">
        <ele>1070</ele>
        <time>2011-08-06T07:41:32Z</time>
      </trkpt>
      <trkpt lat="46.95012" lon="6.43019">
        <ele>1074</ele>
        <time>2011-08-06T07:41:53Z</time>
      </trkpt>
      <trkpt lat="46.95011" lon="6.42972">
        <ele>1076</ele>
        <time>2011-08-06T07:42:07Z</time>
      </trkpt>
      <trkpt lat="46.95017" lon="6.42917">
        <ele>1076</ele>
        <time>2011-08-06T07:42:26Z</time>
      </trkpt>
      <trkpt lat="46.95015" lon="6.42916">
        <ele>1078</ele>
        <time>2011-08-06T07:42:39Z</time>
      </trkpt>
      <trkpt lat="46.95014" lon="6.42913">
        <ele>1077</ele>
        <time>2011-08-06T07:43:01Z</time>
      </trkpt>
      <trkpt lat="46.94978" lon="6.4287">
        <ele>1077</ele>
        <time>2011-08-06T07:43:15Z</time>
      </trkpt>
      <trkpt lat="46.94948" lon="6.42857">
        <ele>1077</ele>
        <time>2011-08-06T07:43:23Z</time>
      </trkpt>
      <trkpt lat="46.94921" lon="6.42828">
        <ele>1078</ele>
        <time>2011-08-06T07:43:29Z</time>
      </trkpt>
      <trkpt lat="46.9486" lon="6.42728">
        <ele>1073</ele>
        <time>2011-08-06T07:43:47Z</time>
      </trkpt>
      <trkpt lat="46.94781" lon="6.42664">
        <ele>1066</ele>
        <time>2011-08-06T07:44:00Z</time>
      </trkpt>
      <trkpt lat="46.94756" lon="6.4265">
        <ele>1065</ele>
        <time>2011-08-06T07:44:03Z</time>
      </trkpt>
      <trkpt lat="46.94712" lon="6.42586">
        <ele>1058</ele>
        <time>2011-08-06T07:44:09Z</time>
      </trkpt>
      <trkpt lat="46.94631" lon="6.42433">
        <ele>1046</ele>
        <time>2011-08-06T07:44:20Z</time>
      </trkpt>
      <trkpt lat="46.94569" lon="6.42316">
        <ele>1042</ele>
        <time>2011-08-06T07:44:31Z</time>
      </trkpt>
      <trkpt lat="46.94501" lon="6.42226">
        <ele>1041</ele>
        <time>2011-08-06T07:44:47Z</time>
      </trkpt>
      <trkpt lat="46.94492" lon="6.42214">
        <ele>1039</ele>
        <time>2011-08-06T07:44:49Z</time>
      </trkpt>
      <trkpt lat="46.94457" lon="6.42203">
        <ele>1039</ele>
        <time>2011-08-06T07:44:55Z</time>
      </trkpt>
      <trkpt lat="46.94374" lon="6.4224">
        <ele>1038</ele>
        <time>2011-08-06T07:45:12Z</time>
      </trkpt>
      <trkpt lat="46.94293" lon="6.42287">
        <ele>1035</ele>
        <time>2011-08-06T07:45:24Z</time>
      </trkpt>
      <trkpt lat="46.94157" lon="6.42316">
        <ele>1023</ele>
        <time>2011-08-06T07:45:38Z</time>
      </trkpt>
      <trkpt lat="46.94097" lon="6.42329">
        <ele>1023</ele>
        <time>2011-08-06T07:45:45Z</time>
      </trkpt>
      <trkpt lat="46.94068" lon="6.42327">
        <ele>1022</ele>
        <time>2011-08-06T07:45:49Z</time>
      </trkpt>
      <trkpt lat="46.93987" lon="6.42285">
        <ele>1016</ele>
        <time>2011-08-06T07:46:02Z</time>
      </trkpt>
      <trkpt lat="46.93935" lon="6.42199">
        <ele>1011</ele>
        <time>2011-08-06T07:46:12Z</time>
      </trkpt>
      <trkpt lat="46.93895" lon="6.42131">
        <ele>1007</ele>
        <time>2011-08-06T07:46:20Z</time>
      </trkpt>
      <trkpt lat="46.93865" lon="6.42112">
        <ele>1006</ele>
        <time>2011-08-06T07:46:25Z</time>
      </trkpt>
      <trkpt lat="46.93841" lon="6.42118">
        <ele>1006</ele>
        <time>2011-08-06T07:46:29Z</time>
      </trkpt>
      <trkpt lat="46.93776" lon="6.42165">
        <ele>999</ele>
        <time>2011-08-06T07:46:42Z</time>
      </trkpt>
      <trkpt lat="46.93766" lon="6.42174">
        <ele>995</ele>
        <time>2011-08-06T07:46:44Z</time>
      </trkpt>
      <trkpt lat="46.93712" lon="6.4225">
        <ele>982</ele>
        <time>2011-08-06T07:46:57Z</time>
      </trkpt>
      <trkpt lat="46.93694" lon="6.42275">
        <ele>981</ele>
        <time>2011-08-06T07:47:02Z</time>
      </trkpt>
      <trkpt lat="46.93657" lon="6.42238">
        <ele>980</ele>
        <time>2011-08-06T07:47:13Z</time>
      </trkpt>
      <trkpt lat="46.93596" lon="6.42152">
        <ele>977</ele>
        <time>2011-08-06T07:47:28Z</time>
      </trkpt>
      <trkpt lat="46.93534" lon="6.42043">
        <ele>977</ele>
        <time>2011-08-06T07:47:45Z</time>
      </trkpt>
      <trkpt lat="46.93495" lon="6.41982">
        <ele>978</ele>
        <time>2011-08-06T07:48:02Z</time>
      </trkpt>
      <trkpt lat="46.93428" lon="6.41866">
        <ele>987</ele>
        <time>2011-08-06T07:48:30Z</time>
      </trkpt>
      <trkpt lat="46.93384" lon="6.41789">
        <ele>983</ele>
        <time>2011-08-06T07:48:50Z</time>
      </trkpt>
      <trkpt lat="46.93371" lon="6.41762">
        <ele>982</ele>
        <time>2011-08-06T07:49:00Z</time>
      </trkpt>
      <trkpt lat="46.93369" lon="6.41758">
        <ele>982</ele>
        <time>2011-08-06T07:49:02Z</time>
      </trkpt>
      <trkpt lat="46.93343" lon="6.41705">
        <ele>991</ele>
        <time>2011-08-06T07:49:20Z</time>
      </trkpt>
      <trkpt lat="46.93326" lon="6.41669">
        <ele>983</ele>
        <time>2011-08-06T07:49:32Z</time>
      </trkpt>
      <trkpt lat="46.93307" lon="6.41617">
        <ele>985</ele>
        <time>2011-08-06T07:49:51Z</time>
      </trkpt>
      <trkpt lat="46.93296" lon="6.41573">
        <ele>995</ele>
        <time>2011-08-06T07:50:08Z</time>
      </trkpt>
      <trkpt lat="46.93292" lon="6.41566">
        <ele>994</ele>
        <time>2011-08-06T07:50:11Z</time>
      </trkpt>
      <trkpt lat="46.93276" lon="6.41504">
        <ele>994</ele>
        <time>2011-08-06T07:50:25Z</time>
      </trkpt>
      <trkpt lat="46.93225" lon="6.41409">
        <ele>995</ele>
        <time>2011-08-06T07:50:44Z</time>
      </trkpt>
      <trkpt lat="46.93182" lon="6.41317">
        <ele>1001</ele>
        <time>2011-08-06T07:51:06Z</time>
      </trkpt>
      <trkpt lat="46.93139" lon="6.41231">
        <ele>996</ele>
        <time>2011-08-06T07:51:25Z</time>
      </trkpt>
      <trkpt lat="46.93078" lon="6.41116">
        <ele>987</ele>
        <time>2011-08-06T07:51:44Z</time>
      </trkpt>
      <trkpt lat="46.93026" lon="6.41005">
        <ele>989</ele>
        <time>2011-08-06T07:52:02Z</time>
      </trkpt>
      <trkpt lat="46.9301" lon="6.40957">
        <ele>996</ele>
        <time>2011-08-06T07:52:13Z</time>
      </trkpt>
      <trkpt lat="46.9296" lon="6.40835">
        <ele>981</ele>
        <time>2011-08-06T07:52:35Z</time>
      </trkpt>
      <trkpt lat="46.92947" lon="6.40805">
        <ele>989</ele>
        <time>2011-08-06T07:52:40Z</time>
      </trkpt>
      <trkpt lat="46.92933" lon="6.4078">
        <ele>989</ele>
        <time>2011-08-06T07:52:44Z</time>
      </trkpt>
      <trkpt lat="46.929" lon="6.40726">
        <ele>979</ele>
        <time>2011-08-06T07:52:52Z</time>
      </trkpt>
      <trkpt lat="46.92887" lon="6.40699">
        <ele>978</ele>
        <time>2011-08-06T07:52:55Z</time>
      </trkpt>
      <trkpt lat="46.92838" lon="6.40613">
        <ele>981</ele>
        <time>2011-08-06T07:53:05Z</time>
      </trkpt>
      <trkpt lat="46.92776" lon="6.4051">
        <ele>962</ele>
        <time>2011-08-06T07:53:14Z</time>
      </trkpt>
      <trkpt lat="46.9271" lon="6.40372">
        <ele>956</ele>
        <time>2011-08-06T07:53:27Z</time>
      </trkpt>
      <trkpt lat="46.9266" lon="6.40239">
        <ele>958</ele>
        <time>2011-08-06T07:53:41Z</time>
      </trkpt>
      <trkpt lat="46.92621" lon="6.40158">
        <ele>962</ele>
        <time>2011-08-06T07:53:49Z</time>
      </trkpt>
      <trkpt lat="46.92608" lon="6.40132">
        <ele>961</ele>
        <time>2011-08-06T07:53:52Z</time>
      </trkpt>
      <trkpt lat="46.92594" lon="6.4011">
        <ele>961</ele>
        <time>2011-08-06T07:53:55Z</time>
      </trkpt>
      <trkpt lat="46.92561" lon="6.40042">
        <ele>948</ele>
        <time>2011-08-06T07:54:05Z</time>
      </trkpt>
      <trkpt lat="46.92551" lon="6.4003">
        <ele>948</ele>
        <time>2011-08-06T07:54:07Z</time>
      </trkpt>
      <trkpt lat="46.92531" lon="6.3997">
        <ele>954</ele>
        <time>2011-08-06T07:54:16Z</time>
      </trkpt>
      <trkpt lat="46.925" lon="6.39899">
        <ele>959</ele>
        <time>2011-08-06T07:54:30Z</time>
      </trkpt>
      <trkpt lat="46.92474" lon="6.3985">
        <ele>946</ele>
        <time>2011-08-06T07:54:38Z</time>
      </trkpt>
      <trkpt lat="46.92468" lon="6.39828">
        <ele>956</ele>
        <time>2011-08-06T07:54:41Z</time>
      </trkpt>
      <trkpt lat="46.92459" lon="6.39811">
        <ele>955</ele>
        <time>2011-08-06T07:54:44Z</time>
      </trkpt>
      <trkpt lat="46.92417" lon="6.39724">
        <ele>945</ele>
        <time>2011-08-06T07:55:00Z</time>
      </trkpt>
      <trkpt lat="46.92398" lon="6.39694">
        <ele>948</ele>
        <time>2011-08-06T07:55:11Z</time>
      </trkpt>
      <trkpt lat="46.92393" lon="6.3968">
        <ele>949</ele>
        <time>2011-08-06T07:55:15Z</time>
      </trkpt>
      <trkpt lat="46.92379" lon="6.39648">
        <ele>957</ele>
        <time>2011-08-06T07:55:21Z</time>
      </trkpt>
      <trkpt lat="46.92365" lon="6.39601">
        <ele>957</ele>
        <time>2011-08-06T07:55:28Z</time>
      </trkpt>
      <trkpt lat="46.92346" lon="6.39558">
        <ele>964</ele>
        <time>2011-08-06T07:55:35Z</time>
      </trkpt>
      <trkpt lat="46.9233" lon="6.39519">
        <ele>948</ele>
        <time>2011-08-06T07:55:40Z</time>
      </trkpt>
      <trkpt lat="46.92311" lon="6.39485">
        <ele>952</ele>
        <time>2011-08-06T07:55:44Z</time>
      </trkpt>
      <trkpt lat="46.92295" lon="6.39453">
        <ele>949</ele>
        <time>2011-08-06T07:55:48Z</time>
      </trkpt>
      <trkpt lat="46.92283" lon="6.39428">
        <ele>947</ele>
        <time>2011-08-06T07:55:51Z</time>
      </trkpt>
      <trkpt lat="46.92268" lon="6.39384">
        <ele>952</ele>
        <time>2011-08-06T07:55:56Z</time>
      </trkpt>
      <trkpt lat="46.92235" lon="6.39318">
        <ele>938</ele>
        <time>2011-08-06T07:56:03Z</time>
      </trkpt>
      <trkpt lat="46.92199" lon="6.39247">
        <ele>941</ele>
        <time>2011-08-06T07:56:12Z</time>
      </trkpt>
      <trkpt lat="46.92165" lon="6.39182">
        <ele>929</ele>
        <time>2011-08-06T07:56:21Z</time>
      </trkpt>
      <trkpt lat="46.92137" lon="6.39144">
        <ele>932</ele>
        <time>2011-08-06T07:56:29Z</time>
      </trkpt>
      <trkpt lat="46.92104" lon="6.39095">
        <ele>928</ele>
        <time>2011-08-06T07:56:36Z</time>
      </trkpt>
      <trkpt lat="46.92073" lon="6.39047">
        <ele>918</ele>
        <time>2011-08-06T07:56:40Z</time>
      </trkpt>
      <trkpt lat="46.92033" lon="6.38965">
        <ele>924</ele>
        <time>2011-08-06T07:56:48Z</time>
      </trkpt>
      <trkpt lat="46.92007" lon="6.38882">
        <ele>930</ele>
        <time>2011-08-06T07:56:55Z</time>
      </trkpt>
      <trkpt lat="46.91998" lon="6.38829">
        <ele>926</ele>
        <time>2011-08-06T07:56:59Z</time>
      </trkpt>
      <trkpt lat="46.91967" lon="6.38794">
        <ele>926</ele>
        <time>2011-08-06T07:57:04Z</time>
      </trkpt>
      <trkpt lat="46.91933" lon="6.38777">
        <ele>923</ele>
        <time>2011-08-06T07:57:08Z</time>
      </trkpt>
      <trkpt lat="46.91882" lon="6.38754">
        <ele>915</ele>
        <time>2011-08-06T07:57:17Z</time>
      </trkpt>
      <trkpt lat="46.9187" lon="6.38746">
        <ele>921</ele>
        <time>2011-08-06T07:57:20Z</time>
      </trkpt>
      <trkpt lat="46.91837" lon="6.3871">
        <ele>920</ele>
        <time>2011-08-06T07:57:29Z</time>
      </trkpt>
      <trkpt lat="46.91803" lon="6.38683">
        <ele>912</ele>
        <time>2011-08-06T07:57:35Z</time>
      </trkpt>
      <trkpt lat="46.91707" lon="6.38586">
        <ele>904</ele>
        <time>2011-08-06T07:57:46Z</time>
      </trkpt>
      <trkpt lat="46.91653" lon="6.38545">
        <ele>894</ele>
        <time>2011-08-06T07:57:49Z</time>
      </trkpt>
      <trkpt lat="46.91628" lon="6.38502">
        <ele>892</ele>
        <time>2011-08-06T07:57:52Z</time>
      </trkpt>
      <trkpt lat="46.91568" lon="6.38385">
        <ele>887</ele>
        <time>2011-08-06T07:58:03Z</time>
      </trkpt>
      <trkpt lat="46.91496" lon="6.38334">
        <ele>877</ele>
        <time>2011-08-06T07:58:13Z</time>
      </trkpt>
      <trkpt lat="46.91372" lon="6.38271">
        <ele>874</ele>
        <time>2011-08-06T07:58:30Z</time>
      </trkpt>
      <trkpt lat="46.91328" lon="6.38221">
        <ele>869</ele>
        <time>2011-08-06T07:58:38Z</time>
      </trkpt>
      <trkpt lat="46.91267" lon="6.38119">
        <ele>868</ele>
        <time>2011-08-06T07:58:49Z</time>
      </trkpt>
      <trkpt lat="46.91245" lon="6.38083">
        <ele>864</ele>
        <time>2011-08-06T07:58:53Z</time>
      </trkpt>
      <trkpt lat="46.91165" lon="6.37958">
        <ele>852</ele>
        <time>2011-08-06T07:59:05Z</time>
      </trkpt>
      <trkpt lat="46.91095" lon="6.37847">
        <ele>855</ele>
        <time>2011-08-06T07:59:16Z</time>
      </trkpt>
      <trkpt lat="46.91035" lon="6.37764">
        <ele>852</ele>
        <time>2011-08-06T07:59:25Z</time>
      </trkpt>
      <trkpt lat="46.91005" lon="6.37719">
        <ele>858</ele>
        <time>2011-08-06T07:59:30Z</time>
      </trkpt>
      <trkpt lat="46.90921" lon="6.3765">
        <ele>853</ele>
        <time>2011-08-06T07:59:43Z</time>
      </trkpt>
      <trkpt lat="46.90896" lon="6.3763">
        <ele>850</ele>
        <time>2011-08-06T07:59:47Z</time>
      </trkpt>
      <trkpt lat="46.90878" lon="6.37625">
        <ele>849</ele>
        <time>2011-08-06T07:59:54Z</time>
      </trkpt>
      <trkpt lat="46.90881" lon="6.37628">
        <ele>849</ele>
        <time>2011-08-06T07:59:59Z</time>
      </trkpt>
      <trkpt lat="46.90891" lon="6.3769">
        <ele>844</ele>
        <time>2011-08-06T08:00:13Z</time>
      </trkpt>
      <trkpt lat="46.90873" lon="6.37754">
        <ele>847</ele>
        <time>2011-08-06T08:00:27Z</time>
      </trkpt>
      <trkpt lat="46.90842" lon="6.37819">
        <ele>850</ele>
        <time>2011-08-06T08:00:46Z</time>
      </trkpt>
      <trkpt lat="46.90799" lon="6.37868">
        <ele>854</ele>
        <time>2011-08-06T08:01:05Z</time>
      </trkpt>
      <trkpt lat="46.90759" lon="6.37861">
        <ele>854</ele>
        <time>2011-08-06T08:01:19Z</time>
      </trkpt>
      <trkpt lat="46.90697" lon="6.37847">
        <ele>860</ele>
        <time>2011-08-06T08:01:40Z</time>
      </trkpt>
      <trkpt lat="46.90652" lon="6.37815">
        <ele>863</ele>
        <time>2011-08-06T08:01:57Z</time>
      </trkpt>
      <trkpt lat="46.90596" lon="6.37763">
        <ele>864</ele>
        <time>2011-08-06T08:02:18Z</time>
      </trkpt>
      <trkpt lat="46.90537" lon="6.3769">
        <ele>868</ele>
        <time>2011-08-06T08:02:42Z</time>
      </trkpt>
      <trkpt lat="46.90488" lon="6.3764">
        <ele>873</ele>
        <time>2011-08-06T08:03:01Z</time>
      </trkpt>
      <trkpt lat="46.90478" lon="6.37572">
        <ele>873</ele>
        <time>2011-08-06T08:03:16Z</time>
      </trkpt>
      <trkpt lat="46.90467" lon="6.37477">
        <ele>870</ele>
        <time>2011-08-06T08:03:34Z</time>
      </trkpt>
      <trkpt lat="46.90468" lon="6.37373">
        <ele>868</ele>
        <time>2011-08-06T08:03:51Z</time>
      </trkpt>
      <trkpt lat="46.9047" lon="6.37367">
        <ele>868</ele>
        <time>2011-08-06T08:03:52Z</time>
      </trkpt>
      <trkpt lat="46.90475" lon="6.3734">
        <ele>867</ele>
        <time>2011-08-06T08:03:56Z</time>
      </trkpt>
      <trkpt lat="46.90482" lon="6.37224">
        <ele>859</ele>
        <time>2011-08-06T08:04:06Z</time>
      </trkpt>
      <trkpt lat="46.90483" lon="6.37211">
        <ele>859</ele>
        <time>2011-08-06T08:04:07Z</time>
      </trkpt>
      <trkpt lat="46.90479" lon="6.37165">
        <ele>859</ele>
        <time>2011-08-06T08:04:11Z</time>
      </trkpt>
      <trkpt lat="46.90459" lon="6.37107">
        <ele>861</ele>
        <time>2011-08-06T08:04:22Z</time>
      </trkpt>
      <trkpt lat="46.90455" lon="6.37101">
        <ele>862</ele>
        <time>2011-08-06T08:04:24Z</time>
      </trkpt>
      <trkpt lat="46.9044" lon="6.37115">
        <ele>863</ele>
        <time>2011-08-06T08:04:30Z</time>
      </trkpt>
      <trkpt lat="46.90436" lon="6.37126">
        <ele>862</ele>
        <time>2011-08-06T08:04:32Z</time>
      </trkpt>
      <trkpt lat="46.90414" lon="6.37144">
        <ele>865</ele>
        <time>2011-08-06T08:04:37Z</time>
      </trkpt>
      <trkpt lat="46.90332" lon="6.37163">
        <ele>861</ele>
        <time>2011-08-06T08:04:55Z</time>
      </trkpt>
      <trkpt lat="46.90293" lon="6.37254">
        <ele>863</ele>
        <time>2011-08-06T08:05:12Z</time>
      </trkpt>
      <trkpt lat="46.90278" lon="6.37282">
        <ele>863</ele>
        <time>2011-08-06T08:05:18Z</time>
      </trkpt>
      <trkpt lat="46.9025" lon="6.37364">
        <ele>867</ele>
        <time>2011-08-06T08:05:35Z</time>
      </trkpt>
      <trkpt lat="46.90245" lon="6.37415">
        <ele>870</ele>
        <time>2011-08-06T08:05:50Z</time>
      </trkpt>
      <trkpt lat="46.9023" lon="6.37469">
        <ele>873</ele>
        <time>2011-08-06T08:06:09Z</time>
      </trkpt>
      <trkpt lat="46.90215" lon="6.37528">
        <ele>877</ele>
        <time>2011-08-06T08:06:28Z</time>
      </trkpt>
      <trkpt lat="46.90199" lon="6.37593">
        <ele>882</ele>
        <time>2011-08-06T08:06:49Z</time>
      </trkpt>
      <trkpt lat="46.90191" lon="6.37652">
        <ele>884</ele>
        <time>2011-08-06T08:07:08Z</time>
      </trkpt>
      <trkpt lat="46.90168" lon="6.37713">
        <ele>889</ele>
        <time>2011-08-06T08:07:30Z</time>
      </trkpt>
      <trkpt lat="46.90143" lon="6.37743">
        <ele>893</ele>
        <time>2011-08-06T08:07:48Z</time>
      </trkpt>
      <trkpt lat="46.90129" lon="6.3774">
        <ele>894</ele>
        <time>2011-08-06T08:08:04Z</time>
      </trkpt>
      <trkpt lat="46.90127" lon="6.37741">
        <ele>894</ele>
        <time>2011-08-06T08:08:35Z</time>
      </trkpt>
      <trkpt lat="46.90127" lon="6.37741">
        <ele>894</ele>
        <time>2011-08-06T08:18:52Z</time>
      </trkpt>
      <trkpt lat="46.90127" lon="6.37741">
        <ele>894</ele>
        <time>2011-08-06T08:19:49Z</time>
      </trkpt>
      <trkpt lat="46.90121" lon="6.3772">
        <ele>893</ele>
        <time>2011-08-06T08:19:56Z</time>
      </trkpt>
      <trkpt lat="46.90093" lon="6.37686">
        <ele>891</ele>
        <time>2011-08-06T08:20:06Z</time>
      </trkpt>
      <trkpt lat="46.90042" lon="6.37665">
        <ele>889</ele>
        <time>2011-08-06T08:20:19Z</time>
      </trkpt>
      <trkpt lat="46.90018" lon="6.37651">
        <ele>890</ele>
        <time>2011-08-06T08:20:24Z</time>
      </trkpt>
      <trkpt lat="46.89999" lon="6.37634">
        <ele>892</ele>
        <time>2011-08-06T08:20:28Z</time>
      </trkpt>
      <trkpt lat="46.89982" lon="6.37599">
        <ele>888</ele>
        <time>2011-08-06T08:20:34Z</time>
      </trkpt>
      <trkpt lat="46.89978" lon="6.3758">
        <ele>882</ele>
        <time>2011-08-06T08:20:37Z</time>
      </trkpt>
      <trkpt lat="46.89962" lon="6.37552">
        <ele>881</ele>
        <time>2011-08-06T08:20:43Z</time>
      </trkpt>
      <trkpt lat="46.8993" lon="6.37546">
        <ele>881</ele>
        <time>2011-08-06T08:20:52Z</time>
      </trkpt>
      <trkpt lat="46.89917" lon="6.3755">
        <ele>881</ele>
        <time>2011-08-06T08:20:55Z</time>
      </trkpt>
      <trkpt lat="46.89906" lon="6.37553">
        <ele>890</ele>
        <time>2011-08-06T08:20:58Z</time>
      </trkpt>
      <trkpt lat="46.89896" lon="6.37548">
        <ele>891</ele>
        <time>2011-08-06T08:21:02Z</time>
      </trkpt>
      <trkpt lat="46.89893" lon="6.37544">
        <ele>892</ele>
        <time>2011-08-06T08:21:04Z</time>
      </trkpt>
      <trkpt lat="46.89892" lon="6.3754">
        <ele>891</ele>
        <time>2011-08-06T08:21:06Z</time>
      </trkpt>
      <trkpt lat="46.89895" lon="6.37513">
        <ele>888</ele>
        <time>2011-08-06T08:21:19Z</time>
      </trkpt>
      <trkpt lat="46.89896" lon="6.37509">
        <ele>888</ele>
        <time>2011-08-06T08:21:21Z</time>
      </trkpt>
      <trkpt lat="46.89896" lon="6.37505">
        <ele>887</ele>
        <time>2011-08-06T08:21:23Z</time>
      </trkpt>
      <trkpt lat="46.89883" lon="6.37488">
        <ele>883</ele>
        <time>2011-08-06T08:21:39Z</time>
      </trkpt>
      <trkpt lat="46.89875" lon="6.37488">
        <ele>885</ele>
        <time>2011-08-06T08:21:54Z</time>
      </trkpt>
      <trkpt lat="46.89874" lon="6.37488">
        <ele>885</ele>
        <time>2011-08-06T08:21:59Z</time>
      </trkpt>
      <trkpt lat="46.8984" lon="6.37474">
        <ele>888</ele>
        <time>2011-08-06T08:22:18Z</time>
      </trkpt>
      <trkpt lat="46.89819" lon="6.37464">
        <ele>899</ele>
        <time>2011-08-06T08:22:32Z</time>
      </trkpt>
      <trkpt lat="46.89804" lon="6.37457">
        <ele>900</ele>
        <time>2011-08-06T08:22:42Z</time>
      </trkpt>
      <trkpt lat="46.89799" lon="6.37452">
        <ele>900</ele>
        <time>2011-08-06T08:22:45Z</time>
      </trkpt>
      <trkpt lat="46.89778" lon="6.37441">
        <ele>901</ele>
        <time>2011-08-06T08:22:56Z</time>
      </trkpt>
      <trkpt lat="46.89747" lon="6.37424">
        <ele>907</ele>
        <time>2011-08-06T08:23:15Z</time>
      </trkpt>
      <trkpt lat="46.89742" lon="6.37421">
        <ele>907</ele>
        <time>2011-08-06T08:23:27Z</time>
      </trkpt>
      <trkpt lat="46.89728" lon="6.37409">
        <ele>903</ele>
        <time>2011-08-06T08:23:43Z</time>
      </trkpt>
      <trkpt lat="46.89709" lon="6.37398">
        <ele>904</ele>
        <time>2011-08-06T08:24:05Z</time>
      </trkpt>
      <trkpt lat="46.89701" lon="6.37392">
        <ele>905</ele>
        <time>2011-08-06T08:24:18Z</time>
      </trkpt>
      <trkpt lat="46.8967" lon="6.37361">
        <ele>904</ele>
        <time>2011-08-06T08:24:37Z</time>
      </trkpt>
      <trkpt lat="46.89653" lon="6.37357">
        <ele>912</ele>
        <time>2011-08-06T08:24:50Z</time>
      </trkpt>
      <trkpt lat="46.8965" lon="6.37356">
        <ele>912</ele>
        <time>2011-08-06T08:25:05Z</time>
      </trkpt>
      <trkpt lat="46.89646" lon="6.37354">
        <ele>913</ele>
        <time>2011-08-06T08:25:21Z</time>
      </trkpt>
      <trkpt lat="46.89647" lon="6.37336">
        <ele>911</ele>
        <time>2011-08-06T08:25:26Z</time>
      </trkpt>
      <trkpt lat="46.89634" lon="6.37313">
        <ele>903</ele>
        <time>2011-08-06T08:25:31Z</time>
      </trkpt>
      <trkpt lat="46.8962" lon="6.37302">
        <ele>903</ele>
        <time>2011-08-06T08:25:34Z</time>
      </trkpt>
      <trkpt lat="46.89565" lon="6.3724">
        <ele>901</ele>
        <time>2011-08-06T08:25:46Z</time>
      </trkpt>
      <trkpt lat="46.89556" lon="6.37226">
        <ele>900</ele>
        <time>2011-08-06T08:25:48Z</time>
      </trkpt>
      <trkpt lat="46.89476" lon="6.37184">
        <ele>901</ele>
        <time>2011-08-06T08:26:00Z</time>
      </trkpt>
      <trkpt lat="46.89376" lon="6.37174">
        <ele>901</ele>
        <time>2011-08-06T08:26:12Z</time>
      </trkpt>
      <trkpt lat="46.89342" lon="6.37151">
        <ele>891</ele>
        <time>2011-08-06T08:26:16Z</time>
      </trkpt>
      <trkpt lat="46.89211" lon="6.37028">
        <ele>885</ele>
        <time>2011-08-06T08:26:32Z</time>
      </trkpt>
      <trkpt lat="46.89131" lon="6.36951">
        <ele>879</ele>
        <time>2011-08-06T08:26:43Z</time>
      </trkpt>
      <trkpt lat="46.89119" lon="6.36935">
        <ele>879</ele>
        <time>2011-08-06T08:26:46Z</time>
      </trkpt>
      <trkpt lat="46.89093" lon="6.36917">
        <ele>879</ele>
        <time>2011-08-06T08:26:55Z</time>
      </trkpt>
      <trkpt lat="46.89071" lon="6.3691">
        <ele>880</ele>
        <time>2011-08-06T08:27:06Z</time>
      </trkpt>
      <trkpt lat="46.89053" lon="6.36942">
        <ele>890</ele>
        <time>2011-08-06T08:27:25Z</time>
      </trkpt>
      <trkpt lat="46.89045" lon="6.36955">
        <ele>892</ele>
        <time>2011-08-06T08:27:33Z</time>
      </trkpt>
      <trkpt lat="46.89041" lon="6.36962">
        <ele>893</ele>
        <time>2011-08-06T08:27:37Z</time>
      </trkpt>
      <trkpt lat="46.8904" lon="6.36966">
        <ele>893</ele>
        <time>2011-08-06T08:27:39Z</time>
      </trkpt>
      <trkpt lat="46.89037" lon="6.36974">
        <ele>894</ele>
        <time>2011-08-06T08:27:43Z</time>
      </trkpt>
      <trkpt lat="46.89044" lon="6.36997">
        <ele>894</ele>
        <time>2011-08-06T08:27:58Z</time>
      </trkpt>
      <trkpt lat="46.89045" lon="6.37022">
        <ele>901</ele>
        <time>2011-08-06T08:28:10Z</time>
      </trkpt>
      <trkpt lat="46.89035" lon="6.37033">
        <ele>902</ele>
        <time>2011-08-06T08:28:17Z</time>
      </trkpt>
      <trkpt lat="46.89032" lon="6.3705">
        <ele>903</ele>
        <time>2011-08-06T08:28:25Z</time>
      </trkpt>
      <trkpt lat="46.89017" lon="6.37055">
        <ele>905</ele>
        <time>2011-08-06T08:28:37Z</time>
      </trkpt>
      <trkpt lat="46.89011" lon="6.37055">
        <ele>905</ele>
        <time>2011-08-06T08:28:44Z</time>
      </trkpt>
      <trkpt lat="46.89012" lon="6.37056">
        <ele>906</ele>
        <time>2011-08-06T08:28:48Z</time>
      </trkpt>
      <trkpt lat="46.88994" lon="6.37049">
        <ele>918</ele>
        <time>2011-08-06T08:28:59Z</time>
      </trkpt>
      <trkpt lat="46.88987" lon="6.37047">
        <ele>919</ele>
        <time>2011-08-06T08:29:04Z</time>
      </trkpt>
      <trkpt lat="46.88978" lon="6.37044">
        <ele>920</ele>
        <time>2011-08-06T08:29:13Z</time>
      </trkpt>
      <trkpt lat="46.88977" lon="6.37044">
        <ele>920</ele>
        <time>2011-08-06T08:29:14Z</time>
      </trkpt>
      <trkpt lat="46.88973" lon="6.37044">
        <ele>920</ele>
        <time>2011-08-06T08:29:17Z</time>
      </trkpt>
      <trkpt lat="46.88957" lon="6.3704">
        <ele>923</ele>
        <time>2011-08-06T08:29:28Z</time>
      </trkpt>
      <trkpt lat="46.88944" lon="6.3704">
        <ele>925</ele>
        <time>2011-08-06T08:29:40Z</time>
      </trkpt>
      <trkpt lat="46.88939" lon="6.37039">
        <ele>926</ele>
        <time>2011-08-06T08:29:44Z</time>
      </trkpt>
      <trkpt lat="46.8893" lon="6.37037">
        <ele>927</ele>
        <time>2011-08-06T08:29:48Z</time>
      </trkpt>
      <trkpt lat="46.889" lon="6.37032">
        <ele>942</ele>
        <time>2011-08-06T08:30:02Z</time>
      </trkpt>
      <trkpt lat="46.88891" lon="6.37019">
        <ele>942</ele>
        <time>2011-08-06T08:30:13Z</time>
      </trkpt>
      <trkpt lat="46.88879" lon="6.37004">
        <ele>943</ele>
        <time>2011-08-06T08:30:23Z</time>
      </trkpt>
      <trkpt lat="46.88871" lon="6.36997">
        <ele>939</ele>
        <time>2011-08-06T08:30:32Z</time>
      </trkpt>
      <trkpt lat="46.88857" lon="6.36984">
        <ele>940</ele>
        <time>2011-08-06T08:30:47Z</time>
      </trkpt>
      <trkpt lat="46.88846" lon="6.36983">
        <ele>942</ele>
        <time>2011-08-06T08:30:59Z</time>
      </trkpt>
      <trkpt lat="46.88831" lon="6.36984">
        <ele>951</ele>
        <time>2011-08-06T08:31:10Z</time>
      </trkpt>
      <trkpt lat="46.8881" lon="6.36983">
        <ele>951</ele>
        <time>2011-08-06T08:31:25Z</time>
      </trkpt>
      <trkpt lat="46.88802" lon="6.36985">
        <ele>952</ele>
        <time>2011-08-06T08:31:33Z</time>
      </trkpt>
      <trkpt lat="46.88784" lon="6.36989">
        <ele>954</ele>
        <time>2011-08-06T08:31:48Z</time>
      </trkpt>
      <trkpt lat="46.88767" lon="6.36994">
        <ele>957</ele>
        <time>2011-08-06T08:32:02Z</time>
      </trkpt>
      <trkpt lat="46.88748" lon="6.36996">
        <ele>963</ele>
        <time>2011-08-06T08:32:17Z</time>
      </trkpt>
      <trkpt lat="46.88746" lon="6.36999">
        <ele>963</ele>
        <time>2011-08-06T08:32:22Z</time>
      </trkpt>
      <trkpt lat="46.88732" lon="6.36998">
        <ele>963</ele>
        <time>2011-08-06T08:32:32Z</time>
      </trkpt>
      <trkpt lat="46.88727" lon="6.36997">
        <ele>963</ele>
        <time>2011-08-06T08:32:47Z</time>
      </trkpt>
      <trkpt lat="46.88724" lon="6.36996">
        <ele>963</ele>
        <time>2011-08-06T08:32:52Z</time>
      </trkpt>
      <trkpt lat="46.88709" lon="6.37004">
        <ele>970</ele>
        <time>2011-08-06T08:33:06Z</time>
      </trkpt>
      <trkpt lat="46.88706" lon="6.37007">
        <ele>971</ele>
        <time>2011-08-06T08:33:09Z</time>
      </trkpt>
      <trkpt lat="46.88702" lon="6.37011">
        <ele>971</ele>
        <time>2011-08-06T08:33:14Z</time>
      </trkpt>
      <trkpt lat="46.88699" lon="6.37026">
        <ele>972</ele>
        <time>2011-08-06T08:33:31Z</time>
      </trkpt>
      <trkpt lat="46.88689" lon="6.3704">
        <ele>973</ele>
        <time>2011-08-06T08:33:48Z</time>
      </trkpt>
      <trkpt lat="46.88683" lon="6.37043">
        <ele>973</ele>
        <time>2011-08-06T08:33:56Z</time>
      </trkpt>
      <trkpt lat="46.88675" lon="6.3704">
        <ele>973</ele>
        <time>2011-08-06T08:34:08Z</time>
      </trkpt>
      <trkpt lat="46.88656" lon="6.37036">
        <ele>981</ele>
        <time>2011-08-06T08:34:22Z</time>
      </trkpt>
      <trkpt lat="46.88639" lon="6.37036">
        <ele>983</ele>
        <time>2011-08-06T08:34:33Z</time>
      </trkpt>
      <trkpt lat="46.88616" lon="6.37038">
        <ele>985</ele>
        <time>2011-08-06T08:34:47Z</time>
      </trkpt>
      <trkpt lat="46.88583" lon="6.37041">
        <ele>995</ele>
        <time>2011-08-06T08:35:06Z</time>
      </trkpt>
      <trkpt lat="46.88561" lon="6.37044">
        <ele>996</ele>
        <time>2011-08-06T08:35:20Z</time>
      </trkpt>
      <trkpt lat="46.88543" lon="6.37045">
        <ele>997</ele>
        <time>2011-08-06T08:35:31Z</time>
      </trkpt>
      <trkpt lat="46.88527" lon="6.37044">
        <ele>997</ele>
        <time>2011-08-06T08:35:40Z</time>
      </trkpt>
      <trkpt lat="46.88523" lon="6.37042">
        <ele>998</ele>
        <time>2011-08-06T08:35:43Z</time>
      </trkpt>
      <trkpt lat="46.88505" lon="6.37042">
        <ele>998</ele>
        <time>2011-08-06T08:35:54Z</time>
      </trkpt>
      <trkpt lat="46.88496" lon="6.37042">
        <ele>1003</ele>
        <time>2011-08-06T08:36:00Z</time>
      </trkpt>
      <trkpt lat="46.8848" lon="6.3704">
        <ele>1003</ele>
        <time>2011-08-06T08:36:12Z</time>
      </trkpt>
      <trkpt lat="46.88463" lon="6.37036">
        <ele>1004</ele>
        <time>2011-08-06T08:36:24Z</time>
      </trkpt>
      <trkpt lat="46.88439" lon="6.37033">
        <ele>1004</ele>
        <time>2011-08-06T08:36:36Z</time>
      </trkpt>
      <trkpt lat="46.88418" lon="6.37042">
        <ele>1005</ele>
        <time>2011-08-06T08:36:48Z</time>
      </trkpt>
      <trkpt lat="46.88411" lon="6.37044">
        <ele>1003</ele>
        <time>2011-08-06T08:36:53Z</time>
      </trkpt>
      <trkpt lat="46.88395" lon="6.37052">
        <ele>1004</ele>
        <time>2011-08-06T08:37:03Z</time>
      </trkpt>
      <trkpt lat="46.88377" lon="6.37063">
        <ele>1003</ele>
        <time>2011-08-06T08:37:13Z</time>
      </trkpt>
      <trkpt lat="46.8837" lon="6.3707">
        <ele>1002</ele>
        <time>2011-08-06T08:37:18Z</time>
      </trkpt>
      <trkpt lat="46.88364" lon="6.37081">
        <ele>1002</ele>
        <time>2011-08-06T08:37:25Z</time>
      </trkpt>
      <trkpt lat="46.88357" lon="6.37091">
        <ele>1008</ele>
        <time>2011-08-06T08:37:35Z</time>
      </trkpt>
      <trkpt lat="46.88352" lon="6.37105">
        <ele>1008</ele>
        <time>2011-08-06T08:37:55Z</time>
      </trkpt>
      <trkpt lat="46.88349" lon="6.37111">
        <ele>1009</ele>
        <time>2011-08-06T08:38:02Z</time>
      </trkpt>
      <trkpt lat="46.88348" lon="6.37118">
        <ele>1009</ele>
        <time>2011-08-06T08:38:07Z</time>
      </trkpt>
      <trkpt lat="46.8834" lon="6.37129">
        <ele>1010</ele>
        <time>2011-08-06T08:38:23Z</time>
      </trkpt>
      <trkpt lat="46.88341" lon="6.3715">
        <ele>1011</ele>
        <time>2011-08-06T08:38:40Z</time>
      </trkpt>
      <trkpt lat="46.88345" lon="6.37161">
        <ele>1011</ele>
        <time>2011-08-06T08:38:54Z</time>
      </trkpt>
      <trkpt lat="46.88348" lon="6.37164">
        <ele>1011</ele>
        <time>2011-08-06T08:39:03Z</time>
      </trkpt>
      <trkpt lat="46.88363" lon="6.37183">
        <ele>1018</ele>
        <time>2011-08-06T08:39:13Z</time>
      </trkpt>
      <trkpt lat="46.88379" lon="6.3721">
        <ele>1021</ele>
        <time>2011-08-06T08:39:26Z</time>
      </trkpt>
      <trkpt lat="46.88379" lon="6.37212">
        <ele>1021</ele>
        <time>2011-08-06T08:39:27Z</time>
      </trkpt>
      <trkpt lat="46.88368" lon="6.37242">
        <ele>1021</ele>
        <time>2011-08-06T08:39:43Z</time>
      </trkpt>
      <trkpt lat="46.88365" lon="6.37249">
        <ele>1020</ele>
        <time>2011-08-06T08:39:47Z</time>
      </trkpt>
      <trkpt lat="46.88363" lon="6.37252">
        <ele>1025</ele>
        <time>2011-08-06T08:39:50Z</time>
      </trkpt>
      <trkpt lat="46.88358" lon="6.37254">
        <ele>1024</ele>
        <time>2011-08-06T08:39:53Z</time>
      </trkpt>
      <trkpt lat="46.88353" lon="6.37255">
        <ele>1023</ele>
        <time>2011-08-06T08:39:56Z</time>
      </trkpt>
      <trkpt lat="46.88346" lon="6.37262">
        <ele>1022</ele>
        <time>2011-08-06T08:40:01Z</time>
      </trkpt>
      <trkpt lat="46.88326" lon="6.373">
        <ele>1007</ele>
        <time>2011-08-06T08:40:17Z</time>
      </trkpt>
      <trkpt lat="46.88323" lon="6.37316">
        <ele>1011</ele>
        <time>2011-08-06T08:40:24Z</time>
      </trkpt>
      <trkpt lat="46.8832" lon="6.37352">
        <ele>1017</ele>
        <time>2011-08-06T08:40:40Z</time>
      </trkpt>
      <trkpt lat="46.88316" lon="6.37398">
        <ele>1018</ele>
        <time>2011-08-06T08:40:59Z</time>
      </trkpt>
      <trkpt lat="46.88306" lon="6.37449">
        <ele>1019</ele>
        <time>2011-08-06T08:41:10Z</time>
      </trkpt>
      <trkpt lat="46.88288" lon="6.37492">
        <ele>1017</ele>
        <time>2011-08-06T08:41:19Z</time>
      </trkpt>
      <trkpt lat="46.88277" lon="6.37533">
        <ele>1020</ele>
        <time>2011-08-06T08:41:28Z</time>
      </trkpt>
      <trkpt lat="46.8827" lon="6.37565">
        <ele>1021</ele>
        <time>2011-08-06T08:41:36Z</time>
      </trkpt>
      <trkpt lat="46.88257" lon="6.37606">
        <ele>1027</ele>
        <time>2011-08-06T08:41:48Z</time>
      </trkpt>
      <trkpt lat="46.8825" lon="6.3763">
        <ele>1023</ele>
        <time>2011-08-06T08:41:56Z</time>
      </trkpt>
      <trkpt lat="46.88243" lon="6.3765">
        <ele>1027</ele>
        <time>2011-08-06T08:42:05Z</time>
      </trkpt>
      <trkpt lat="46.88234" lon="6.3767">
        <ele>1037</ele>
        <time>2011-08-06T08:42:17Z</time>
      </trkpt>
      <trkpt lat="46.88227" lon="6.37679">
        <ele>1037</ele>
        <time>2011-08-06T08:42:23Z</time>
      </trkpt>
      <trkpt lat="46.88228" lon="6.37703">
        <ele>1039</ele>
        <time>2011-08-06T08:42:35Z</time>
      </trkpt>
      <trkpt lat="46.88223" lon="6.37709">
        <ele>1039</ele>
        <time>2011-08-06T08:42:39Z</time>
      </trkpt>
      <trkpt lat="46.88219" lon="6.37725">
        <ele>1041</ele>
        <time>2011-08-06T08:42:48Z</time>
      </trkpt>
      <trkpt lat="46.88215" lon="6.37729">
        <ele>1041</ele>
        <time>2011-08-06T08:42:52Z</time>
      </trkpt>
      <trkpt lat="46.88216" lon="6.37734">
        <ele>1042</ele>
        <time>2011-08-06T08:42:54Z</time>
      </trkpt>
      <trkpt lat="46.88214" lon="6.37736">
        <ele>1042</ele>
        <time>2011-08-06T08:42:56Z</time>
      </trkpt>
      <trkpt lat="46.88212" lon="6.3775">
        <ele>1042</ele>
        <time>2011-08-06T08:43:05Z</time>
      </trkpt>
      <trkpt lat="46.88212" lon="6.37753">
        <ele>1051</ele>
        <time>2011-08-06T08:43:07Z</time>
      </trkpt>
      <trkpt lat="46.8821" lon="6.37764">
        <ele>1051</ele>
        <time>2011-08-06T08:43:14Z</time>
      </trkpt>
      <trkpt lat="46.88206" lon="6.37782">
        <ele>1051</ele>
        <time>2011-08-06T08:43:26Z</time>
      </trkpt>
      <trkpt lat="46.882" lon="6.37788">
        <ele>1051</ele>
        <time>2011-08-06T08:43:31Z</time>
      </trkpt>
      <trkpt lat="46.88197" lon="6.37792">
        <ele>1052</ele>
        <time>2011-08-06T08:43:34Z</time>
      </trkpt>
      <trkpt lat="46.88185" lon="6.37813">
        <ele>1053</ele>
        <time>2011-08-06T08:43:49Z</time>
      </trkpt>
      <trkpt lat="46.88184" lon="6.37817">
        <ele>1053</ele>
        <time>2011-08-06T08:43:51Z</time>
      </trkpt>
      <trkpt lat="46.8818" lon="6.37825">
        <ele>1053</ele>
        <time>2011-08-06T08:43:56Z</time>
      </trkpt>
      <trkpt lat="46.88171" lon="6.37839">
        <ele>1055</ele>
        <time>2011-08-06T08:44:08Z</time>
      </trkpt>
      <trkpt lat="46.88166" lon="6.37862">
        <ele>1056</ele>
        <time>2011-08-06T08:44:22Z</time>
      </trkpt>
      <trkpt lat="46.88167" lon="6.37865">
        <ele>1057</ele>
        <time>2011-08-06T08:44:23Z</time>
      </trkpt>
      <trkpt lat="46.88172" lon="6.37874">
        <ele>1058</ele>
        <time>2011-08-06T08:44:30Z</time>
      </trkpt>
      <trkpt lat="46.88173" lon="6.37897">
        <ele>1059</ele>
        <time>2011-08-06T08:44:46Z</time>
      </trkpt>
      <trkpt lat="46.88175" lon="6.37906">
        <ele>1059</ele>
        <time>2011-08-06T08:45:27Z</time>
      </trkpt>
      <trkpt lat="46.88176" lon="6.37908">
        <ele>1059</ele>
        <time>2011-08-06T08:46:29Z</time>
      </trkpt>
      <trkpt lat="46.88173" lon="6.37952">
        <ele>1061</ele>
        <time>2011-08-06T08:46:41Z</time>
      </trkpt>
      <trkpt lat="46.8815" lon="6.38009">
        <ele>1061</ele>
        <time>2011-08-06T08:46:53Z</time>
      </trkpt>
      <trkpt lat="46.88129" lon="6.38015">
        <ele>1062</ele>
        <time>2011-08-06T08:46:59Z</time>
      </trkpt>
      <trkpt lat="46.88111" lon="6.37997">
        <ele>1063</ele>
        <time>2011-08-06T08:47:05Z</time>
      </trkpt>
      <trkpt lat="46.88107" lon="6.37985">
        <ele>1062</ele>
        <time>2011-08-06T08:47:08Z</time>
      </trkpt>
      <trkpt lat="46.88099" lon="6.37945">
        <ele>1061</ele>
        <time>2011-08-06T08:47:18Z</time>
      </trkpt>
      <trkpt lat="46.88093" lon="6.37922">
        <ele>1060</ele>
        <time>2011-08-06T08:47:23Z</time>
      </trkpt>
      <trkpt lat="46.88051" lon="6.37877">
        <ele>1056</ele>
        <time>2011-08-06T08:47:34Z</time>
      </trkpt>
      <trkpt lat="46.87992" lon="6.37869">
        <ele>1053</ele>
        <time>2011-08-06T08:47:42Z</time>
      </trkpt>
      <trkpt lat="46.87987" lon="6.3787">
        <ele>1053</ele>
        <time>2011-08-06T08:47:43Z</time>
      </trkpt>
      <trkpt lat="46.87969" lon="6.37875">
        <ele>1053</ele>
        <time>2011-08-06T08:47:46Z</time>
      </trkpt>
      <trkpt lat="46.87909" lon="6.37883">
        <ele>1052</ele>
        <time>2011-08-06T08:47:56Z</time>
      </trkpt>
      <trkpt lat="46.8789" lon="6.37882">
        <ele>1052</ele>
        <time>2011-08-06T08:48:03Z</time>
      </trkpt>
      <trkpt lat="46.8785" lon="6.37858">
        <ele>1046</ele>
        <time>2011-08-06T08:48:14Z</time>
      </trkpt>
      <trkpt lat="46.87813" lon="6.3786">
        <ele>1044</ele>
        <time>2011-08-06T08:48:21Z</time>
      </trkpt>
      <trkpt lat="46.87752" lon="6.37833">
        <ele>1038</ele>
        <time>2011-08-06T08:48:30Z</time>
      </trkpt>
      <trkpt lat="46.87727" lon="6.37822">
        <ele>1030</ele>
        <time>2011-08-06T08:48:33Z</time>
      </trkpt>
      <trkpt lat="46.87701" lon="6.37808">
        <ele>1025</ele>
        <time>2011-08-06T08:48:36Z</time>
      </trkpt>
      <trkpt lat="46.87678" lon="6.37798">
        <ele>1024</ele>
        <time>2011-08-06T08:48:39Z</time>
      </trkpt>
      <trkpt lat="46.87653" lon="6.37806">
        <ele>1016</ele>
        <time>2011-08-06T08:48:46Z</time>
      </trkpt>
      <trkpt lat="46.8765" lon="6.37818">
        <ele>1018</ele>
        <time>2011-08-06T08:48:50Z</time>
      </trkpt>
      <trkpt lat="46.87645" lon="6.37821">
        <ele>1017</ele>
        <time>2011-08-06T08:49:02Z</time>
      </trkpt>
      <trkpt lat="46.87644" lon="6.37821">
        <ele>1017</ele>
        <time>2011-08-06T08:51:23Z</time>
      </trkpt>
      <trkpt lat="46.87645" lon="6.37824">
        <ele>1017</ele>
        <time>2011-08-06T08:51:48Z</time>
      </trkpt>
      <trkpt lat="46.87651" lon="6.37833">
        <ele>1020</ele>
        <time>2011-08-06T08:51:55Z</time>
      </trkpt>
      <trkpt lat="46.87675" lon="6.37871">
        <ele>1029</ele>
        <time>2011-08-06T08:52:08Z</time>
      </trkpt>
      <trkpt lat="46.87681" lon="6.3795">
        <ele>1024</ele>
        <time>2011-08-06T08:52:17Z</time>
      </trkpt>
      <trkpt lat="46.87681" lon="6.38004">
        <ele>1016</ele>
        <time>2011-08-06T08:52:22Z</time>
      </trkpt>
      <trkpt lat="46.87672" lon="6.38039">
        <ele>1016</ele>
        <time>2011-08-06T08:52:26Z</time>
      </trkpt>
      <trkpt lat="46.87624" lon="6.38064">
        <ele>1003</ele>
        <time>2011-08-06T08:52:34Z</time>
      </trkpt>
      <trkpt lat="46.87598" lon="6.38039">
        <ele>1002</ele>
        <time>2011-08-06T08:52:40Z</time>
      </trkpt>
      <trkpt lat="46.87587" lon="6.38016">
        <ele>1002</ele>
        <time>2011-08-06T08:52:44Z</time>
      </trkpt>
      <trkpt lat="46.87585" lon="6.3799">
        <ele>1002</ele>
        <time>2011-08-06T08:52:48Z</time>
      </trkpt>
      <trkpt lat="46.87584" lon="6.37975">
        <ele>1004</ele>
        <time>2011-08-06T08:52:50Z</time>
      </trkpt>
      <trkpt lat="46.87586" lon="6.37952">
        <ele>1005</ele>
        <time>2011-08-06T08:52:53Z</time>
      </trkpt>
      <trkpt lat="46.87564" lon="6.37906">
        <ele>997</ele>
        <time>2011-08-06T08:53:02Z</time>
      </trkpt>
      <trkpt lat="46.87562" lon="6.37905">
        <ele>997</ele>
        <time>2011-08-06T08:53:03Z</time>
      </trkpt>
      <trkpt lat="46.87519" lon="6.37897">
        <ele>991</ele>
        <time>2011-08-06T08:53:10Z</time>
      </trkpt>
      <trkpt lat="46.87481" lon="6.37879">
        <ele>974</ele>
        <time>2011-08-06T08:53:20Z</time>
      </trkpt>
      <trkpt lat="46.87451" lon="6.37887">
        <ele>970</ele>
        <time>2011-08-06T08:53:33Z</time>
      </trkpt>
      <trkpt lat="46.87441" lon="6.37893">
        <ele>969</ele>
        <time>2011-08-06T08:53:42Z</time>
      </trkpt>
      <trkpt lat="46.87441" lon="6.37893">
        <ele>969</ele>
        <time>2011-08-06T08:53:44Z</time>
      </trkpt>
      <trkpt lat="46.87442" lon="6.37892">
        <ele>969</ele>
        <time>2011-08-06T08:53:46Z</time>
      </trkpt>
      <trkpt lat="46.87451" lon="6.37888">
        <ele>970</ele>
        <time>2011-08-06T08:54:05Z</time>
      </trkpt>
      <trkpt lat="46.87449" lon="6.37889">
        <ele>970</ele>
        <time>2011-08-06T08:56:11Z</time>
      </trkpt>
      <trkpt lat="46.87428" lon="6.37914">
        <ele>966</ele>
        <time>2011-08-06T08:56:22Z</time>
      </trkpt>
      <trkpt lat="46.87425" lon="6.38003">
        <ele>966</ele>
        <time>2011-08-06T08:56:32Z</time>
      </trkpt>
      <trkpt lat="46.87423" lon="6.38077">
        <ele>961</ele>
        <time>2011-08-06T08:56:39Z</time>
      </trkpt>
      <trkpt lat="46.87422" lon="6.38106">
        <ele>961</ele>
        <time>2011-08-06T08:56:42Z</time>
      </trkpt>
      <trkpt lat="46.87431" lon="6.38232">
        <ele>952</ele>
        <time>2011-08-06T08:56:54Z</time>
      </trkpt>
      <trkpt lat="46.87443" lon="6.38283">
        <ele>949</ele>
        <time>2011-08-06T08:57:02Z</time>
      </trkpt>
      <trkpt lat="46.87441" lon="6.3829">
        <ele>948</ele>
        <time>2011-08-06T08:57:12Z</time>
      </trkpt>
      <trkpt lat="46.87439" lon="6.38291">
        <ele>948</ele>
        <time>2011-08-06T08:57:19Z</time>
      </trkpt>
      <trkpt lat="46.87418" lon="6.38249">
        <ele>943</ele>
        <time>2011-08-06T08:57:30Z</time>
      </trkpt>
      <trkpt lat="46.87402" lon="6.38232">
        <ele>933</ele>
        <time>2011-08-06T08:57:34Z</time>
      </trkpt>
      <trkpt lat="46.8739" lon="6.38222">
        <ele>930</ele>
        <time>2011-08-06T08:57:37Z</time>
      </trkpt>
      <trkpt lat="46.87375" lon="6.38197">
        <ele>928</ele>
        <time>2011-08-06T08:57:42Z</time>
      </trkpt>
      <trkpt lat="46.87369" lon="6.38179">
        <ele>926</ele>
        <time>2011-08-06T08:57:45Z</time>
      </trkpt>
      <trkpt lat="46.87361" lon="6.3813">
        <ele>930</ele>
        <time>2011-08-06T08:57:52Z</time>
      </trkpt>
      <trkpt lat="46.87356" lon="6.38098">
        <ele>928</ele>
        <time>2011-08-06T08:57:59Z</time>
      </trkpt>
      <trkpt lat="46.8735" lon="6.38072">
        <ele>929</ele>
        <time>2011-08-06T08:58:05Z</time>
      </trkpt>
      <trkpt lat="46.87344" lon="6.38048">
        <ele>932</ele>
        <time>2011-08-06T08:58:08Z</time>
      </trkpt>
      <trkpt lat="46.87331" lon="6.38006">
        <ele>917</ele>
        <time>2011-08-06T08:58:13Z</time>
      </trkpt>
      <trkpt lat="46.87321" lon="6.38005">
        <ele>911</ele>
        <time>2011-08-06T08:58:19Z</time>
      </trkpt>
      <trkpt lat="46.87322" lon="6.38011">
        <ele>910</ele>
        <time>2011-08-06T08:58:20Z</time>
      </trkpt>
      <trkpt lat="46.87325" lon="6.38022">
        <ele>908</ele>
        <time>2011-08-06T08:58:22Z</time>
      </trkpt>
      <trkpt lat="46.87331" lon="6.38123">
        <ele>902</ele>
        <time>2011-08-06T08:58:33Z</time>
      </trkpt>
      <trkpt lat="46.87322" lon="6.38219">
        <ele>897</ele>
        <time>2011-08-06T08:58:41Z</time>
      </trkpt>
      <trkpt lat="46.87327" lon="6.38304">
        <ele>891</ele>
        <time>2011-08-06T08:58:48Z</time>
      </trkpt>
      <trkpt lat="46.87329" lon="6.38326">
        <ele>894</ele>
        <time>2011-08-06T08:58:51Z</time>
      </trkpt>
      <trkpt lat="46.87317" lon="6.38317">
        <ele>890</ele>
        <time>2011-08-06T08:58:58Z</time>
      </trkpt>
      <trkpt lat="46.87314" lon="6.38301">
        <ele>889</ele>
        <time>2011-08-06T08:59:00Z</time>
      </trkpt>
      <trkpt lat="46.87294" lon="6.38246">
        <ele>891</ele>
        <time>2011-08-06T08:59:06Z</time>
      </trkpt>
      <trkpt lat="46.87282" lon="6.3817">
        <ele>889</ele>
        <time>2011-08-06T08:59:14Z</time>
      </trkpt>
      <trkpt lat="46.87269" lon="6.38117">
        <ele>889</ele>
        <time>2011-08-06T08:59:20Z</time>
      </trkpt>
      <trkpt lat="46.87261" lon="6.38094">
        <ele>884</ele>
        <time>2011-08-06T08:59:23Z</time>
      </trkpt>
      <trkpt lat="46.87241" lon="6.38028">
        <ele>872</ele>
        <time>2011-08-06T08:59:34Z</time>
      </trkpt>
      <trkpt lat="46.87239" lon="6.38024">
        <ele>872</ele>
        <time>2011-08-06T08:59:46Z</time>
      </trkpt>
      <trkpt lat="46.87237" lon="6.38022">
        <ele>872</ele>
        <time>2011-08-06T09:00:20Z</time>
      </trkpt>
      <trkpt lat="46.87234" lon="6.38013">
        <ele>872</ele>
        <time>2011-08-06T09:00:24Z</time>
      </trkpt>
      <trkpt lat="46.87214" lon="6.37996">
        <ele>870</ele>
        <time>2011-08-06T09:00:36Z</time>
      </trkpt>
      <trkpt lat="46.8721" lon="6.38058">
        <ele>870</ele>
        <time>2011-08-06T09:00:47Z</time>
      </trkpt>
      <trkpt lat="46.87214" lon="6.38217">
        <ele>868</ele>
        <time>2011-08-06T09:01:11Z</time>
      </trkpt>
      <trkpt lat="46.87226" lon="6.38387">
        <ele>865</ele>
        <time>2011-08-06T09:01:33Z</time>
      </trkpt>
      <trkpt lat="46.87237" lon="6.38566">
        <ele>866</ele>
        <time>2011-08-06T09:01:58Z</time>
      </trkpt>
      <trkpt lat="46.87253" lon="6.38698">
        <ele>877</ele>
        <time>2011-08-06T09:02:19Z</time>
      </trkpt>
      <trkpt lat="46.87261" lon="6.38857">
        <ele>877</ele>
        <time>2011-08-06T09:02:42Z</time>
      </trkpt>
      <trkpt lat="46.87243" lon="6.3901">
        <ele>873</ele>
        <time>2011-08-06T09:03:03Z</time>
      </trkpt>
      <trkpt lat="46.87239" lon="6.39079">
        <ele>872</ele>
        <time>2011-08-06T09:03:13Z</time>
      </trkpt>
      <trkpt lat="46.87266" lon="6.39211">
        <ele>881</ele>
        <time>2011-08-06T09:03:34Z</time>
      </trkpt>
      <trkpt lat="46.87278" lon="6.39271">
        <ele>879</ele>
        <time>2011-08-06T09:03:43Z</time>
      </trkpt>
      <trkpt lat="46.87276" lon="6.39335">
        <ele>875</ele>
        <time>2011-08-06T09:03:52Z</time>
      </trkpt>
      <trkpt lat="46.87288" lon="6.39421">
        <ele>873</ele>
        <time>2011-08-06T09:04:04Z</time>
      </trkpt>
      <trkpt lat="46.87286" lon="6.39447">
        <ele>873</ele>
        <time>2011-08-06T09:04:08Z</time>
      </trkpt>
      <trkpt lat="46.87253" lon="6.39555">
        <ele>869</ele>
        <time>2011-08-06T09:04:24Z</time>
      </trkpt>
      <trkpt lat="46.87233" lon="6.39677">
        <ele>871</ele>
        <time>2011-08-06T09:04:42Z</time>
      </trkpt>
      <trkpt lat="46.87195" lon="6.39728">
        <ele>873</ele>
        <time>2011-08-06T09:04:57Z</time>
      </trkpt>
      <trkpt lat="46.87165" lon="6.39785">
        <ele>888</ele>
        <time>2011-08-06T09:05:17Z</time>
      </trkpt>
      <trkpt lat="46.87171" lon="6.39837">
        <ele>891</ele>
        <time>2011-08-06T09:05:34Z</time>
      </trkpt>
      <trkpt lat="46.87205" lon="6.39881">
        <ele>890</ele>
        <time>2011-08-06T09:05:55Z</time>
      </trkpt>
      <trkpt lat="46.87234" lon="6.39933">
        <ele>895</ele>
        <time>2011-08-06T09:06:16Z</time>
      </trkpt>
      <trkpt lat="46.8725" lon="6.39988">
        <ele>897</ele>
        <time>2011-08-06T09:06:35Z</time>
      </trkpt>
      <trkpt lat="46.87262" lon="6.40036">
        <ele>891</ele>
        <time>2011-08-06T09:06:52Z</time>
      </trkpt>
      <trkpt lat="46.87275" lon="6.40113">
        <ele>899</ele>
        <time>2011-08-06T09:07:17Z</time>
      </trkpt>
      <trkpt lat="46.87274" lon="6.40193">
        <ele>907</ele>
        <time>2011-08-06T09:07:42Z</time>
      </trkpt>
      <trkpt lat="46.87271" lon="6.40236">
        <ele>909</ele>
        <time>2011-08-06T09:07:56Z</time>
      </trkpt>
      <trkpt lat="46.87261" lon="6.40301">
        <ele>912</ele>
        <time>2011-08-06T09:08:17Z</time>
      </trkpt>
      <trkpt lat="46.87242" lon="6.40386">
        <ele>920</ele>
        <time>2011-08-06T09:08:45Z</time>
      </trkpt>
      <trkpt lat="46.87209" lon="6.40455">
        <ele>918</ele>
        <time>2011-08-06T09:09:09Z</time>
      </trkpt>
      <trkpt lat="46.87162" lon="6.40504">
        <ele>918</ele>
        <time>2011-08-06T09:09:27Z</time>
      </trkpt>
      <trkpt lat="46.87116" lon="6.40558">
        <ele>922</ele>
        <time>2011-08-06T09:09:44Z</time>
      </trkpt>
      <trkpt lat="46.87144" lon="6.40616">
        <ele>926</ele>
        <time>2011-08-06T09:09:58Z</time>
      </trkpt>
      <trkpt lat="46.87188" lon="6.40712">
        <ele>930</ele>
        <time>2011-08-06T09:10:23Z</time>
      </trkpt>
      <trkpt lat="46.87227" lon="6.40788">
        <ele>937</ele>
        <time>2011-08-06T09:10:46Z</time>
      </trkpt>
      <trkpt lat="46.87275" lon="6.40884">
        <ele>939</ele>
        <time>2011-08-06T09:11:13Z</time>
      </trkpt>
      <trkpt lat="46.87315" lon="6.40979">
        <ele>945</ele>
        <time>2011-08-06T09:11:37Z</time>
      </trkpt>
      <trkpt lat="46.87354" lon="6.41074">
        <ele>943</ele>
        <time>2011-08-06T09:11:59Z</time>
      </trkpt>
      <trkpt lat="46.87395" lon="6.41168">
        <ele>946</ele>
        <time>2011-08-06T09:12:21Z</time>
      </trkpt>
      <trkpt lat="46.87432" lon="6.41289">
        <ele>941</ele>
        <time>2011-08-06T09:12:46Z</time>
      </trkpt>
      <trkpt lat="46.87459" lon="6.41385">
        <ele>943</ele>
        <time>2011-08-06T09:13:05Z</time>
      </trkpt>
      <trkpt lat="46.87503" lon="6.41505">
        <ele>946</ele>
        <time>2011-08-06T09:13:27Z</time>
      </trkpt>
      <trkpt lat="46.87532" lon="6.4161">
        <ele>944</ele>
        <time>2011-08-06T09:13:46Z</time>
      </trkpt>
      <trkpt lat="46.8756" lon="6.41731">
        <ele>945</ele>
        <time>2011-08-06T09:14:09Z</time>
      </trkpt>
      <trkpt lat="46.87545" lon="6.41783">
        <ele>949</ele>
        <time>2011-08-06T09:14:21Z</time>
      </trkpt>
      <trkpt lat="46.87507" lon="6.41781">
        <ele>952</ele>
        <time>2011-08-06T09:14:34Z</time>
      </trkpt>
      <trkpt lat="46.87484" lon="6.41735">
        <ele>959</ele>
        <time>2011-08-06T09:14:48Z</time>
      </trkpt>
      <trkpt lat="46.87462" lon="6.41671">
        <ele>960</ele>
        <time>2011-08-06T09:15:06Z</time>
      </trkpt>
      <trkpt lat="46.87437" lon="6.41622">
        <ele>958</ele>
        <time>2011-08-06T09:15:24Z</time>
      </trkpt>
      <trkpt lat="46.87414" lon="6.41577">
        <ele>964</ele>
        <time>2011-08-06T09:15:40Z</time>
      </trkpt>
      <trkpt lat="46.87384" lon="6.41518">
        <ele>967</ele>
        <time>2011-08-06T09:16:00Z</time>
      </trkpt>
      <trkpt lat="46.87348" lon="6.41464">
        <ele>967</ele>
        <time>2011-08-06T09:16:21Z</time>
      </trkpt>
      <trkpt lat="46.87314" lon="6.41419">
        <ele>977</ele>
        <time>2011-08-06T09:16:42Z</time>
      </trkpt>
      <trkpt lat="46.87278" lon="6.41372">
        <ele>977</ele>
        <time>2011-08-06T09:17:05Z</time>
      </trkpt>
      <trkpt lat="46.87235" lon="6.41334">
        <ele>984</ele>
        <time>2011-08-06T09:17:27Z</time>
      </trkpt>
      <trkpt lat="46.87199" lon="6.4131">
        <ele>985</ele>
        <time>2011-08-06T09:17:45Z</time>
      </trkpt>
      <trkpt lat="46.87157" lon="6.41304">
        <ele>990</ele>
        <time>2011-08-06T09:18:04Z</time>
      </trkpt>
      <trkpt lat="46.87136" lon="6.41345">
        <ele>997</ele>
        <time>2011-08-06T09:18:20Z</time>
      </trkpt>
      <trkpt lat="46.8715" lon="6.41396">
        <ele>999</ele>
        <time>2011-08-06T09:18:37Z</time>
      </trkpt>
      <trkpt lat="46.87178" lon="6.4146">
        <ele>998</ele>
        <time>2011-08-06T09:19:01Z</time>
      </trkpt>
      <trkpt lat="46.87191" lon="6.41526">
        <ele>1007</ele>
        <time>2011-08-06T09:19:23Z</time>
      </trkpt>
      <trkpt lat="46.87203" lon="6.41591">
        <ele>1020</ele>
        <time>2011-08-06T09:19:44Z</time>
      </trkpt>
      <trkpt lat="46.87214" lon="6.41628">
        <ele>1021</ele>
        <time>2011-08-06T09:19:57Z</time>
      </trkpt>
      <trkpt lat="46.87219" lon="6.41642">
        <ele>1021</ele>
        <time>2011-08-06T09:20:04Z</time>
      </trkpt>
      <trkpt lat="46.87225" lon="6.41666">
        <ele>1021</ele>
        <time>2011-08-06T09:20:16Z</time>
      </trkpt>
      <trkpt lat="46.87237" lon="6.41702">
        <ele>1029</ele>
        <time>2011-08-06T09:20:30Z</time>
      </trkpt>
      <trkpt lat="46.87242" lon="6.41725">
        <ele>1031</ele>
        <time>2011-08-06T09:20:36Z</time>
      </trkpt>
      <trkpt lat="46.87245" lon="6.41738">
        <ele>1032</ele>
        <time>2011-08-06T09:20:40Z</time>
      </trkpt>
      <trkpt lat="46.87251" lon="6.41751">
        <ele>1032</ele>
        <time>2011-08-06T09:20:46Z</time>
      </trkpt>
      <trkpt lat="46.87253" lon="6.41759">
        <ele>1029</ele>
        <time>2011-08-06T09:20:48Z</time>
      </trkpt>
      <trkpt lat="46.87255" lon="6.41774">
        <ele>1025</ele>
        <time>2011-08-06T09:20:52Z</time>
      </trkpt>
      <trkpt lat="46.87268" lon="6.41807">
        <ele>1024</ele>
        <time>2011-08-06T09:21:03Z</time>
      </trkpt>
      <trkpt lat="46.87277" lon="6.41842">
        <ele>1026</ele>
        <time>2011-08-06T09:21:15Z</time>
      </trkpt>
      <trkpt lat="46.87289" lon="6.41884">
        <ele>1024</ele>
        <time>2011-08-06T09:21:27Z</time>
      </trkpt>
      <trkpt lat="46.87311" lon="6.41946">
        <ele>1027</ele>
        <time>2011-08-06T09:21:45Z</time>
      </trkpt>
      <trkpt lat="46.87323" lon="6.42003">
        <ele>1031</ele>
        <time>2011-08-06T09:22:01Z</time>
      </trkpt>
      <trkpt lat="46.87336" lon="6.42079">
        <ele>1032</ele>
        <time>2011-08-06T09:22:23Z</time>
      </trkpt>
      <trkpt lat="46.87355" lon="6.42121">
        <ele>1034</ele>
        <time>2011-08-06T09:22:38Z</time>
      </trkpt>
      <trkpt lat="46.8737" lon="6.42171">
        <ele>1041</ele>
        <time>2011-08-06T09:22:55Z</time>
      </trkpt>
      <trkpt lat="46.87385" lon="6.4221">
        <ele>1042</ele>
        <time>2011-08-06T09:23:11Z</time>
      </trkpt>
      <trkpt lat="46.87406" lon="6.42262">
        <ele>1047</ele>
        <time>2011-08-06T09:23:31Z</time>
      </trkpt>
      <trkpt lat="46.8743" lon="6.42327">
        <ele>1047</ele>
        <time>2011-08-06T09:23:54Z</time>
      </trkpt>
      <trkpt lat="46.87448" lon="6.42372">
        <ele>1050</ele>
        <time>2011-08-06T09:24:11Z</time>
      </trkpt>
      <trkpt lat="46.8747" lon="6.42436">
        <ele>1055</ele>
        <time>2011-08-06T09:24:31Z</time>
      </trkpt>
      <trkpt lat="46.87501" lon="6.42522">
        <ele>1055</ele>
        <time>2011-08-06T09:24:54Z</time>
      </trkpt>
      <trkpt lat="46.8752" lon="6.42596">
        <ele>1060</ele>
        <time>2011-08-06T09:25:10Z</time>
      </trkpt>
      <trkpt lat="46.87533" lon="6.42683">
        <ele>1063</ele>
        <time>2011-08-06T09:25:27Z</time>
      </trkpt>
      <trkpt lat="46.87537" lon="6.42694">
        <ele>1063</ele>
        <time>2011-08-06T09:25:29Z</time>
      </trkpt>
      <trkpt lat="46.87566" lon="6.42769">
        <ele>1065</ele>
        <time>2011-08-06T09:25:45Z</time>
      </trkpt>
      <trkpt lat="46.87586" lon="6.42856">
        <ele>1067</ele>
        <time>2011-08-06T09:26:06Z</time>
      </trkpt>
      <trkpt lat="46.87612" lon="6.42939">
        <ele>1068</ele>
        <time>2011-08-06T09:26:28Z</time>
      </trkpt>
      <trkpt lat="46.87642" lon="6.43014">
        <ele>1072</ele>
        <time>2011-08-06T09:26:48Z</time>
      </trkpt>
      <trkpt lat="46.87684" lon="6.43122">
        <ele>1073</ele>
        <time>2011-08-06T09:27:10Z</time>
      </trkpt>
      <trkpt lat="46.87719" lon="6.43219">
        <ele>1071</ele>
        <time>2011-08-06T09:27:30Z</time>
      </trkpt>
      <trkpt lat="46.8772" lon="6.43274">
        <ele>1069</ele>
        <time>2011-08-06T09:27:40Z</time>
      </trkpt>
      <trkpt lat="46.87675" lon="6.43389">
        <ele>1072</ele>
        <time>2011-08-06T09:28:01Z</time>
      </trkpt>
      <trkpt lat="46.87649" lon="6.43408">
        <ele>1082</ele>
        <time>2011-08-06T09:28:12Z</time>
      </trkpt>
      <trkpt lat="46.87639" lon="6.43406">
        <ele>1084</ele>
        <time>2011-08-06T09:28:17Z</time>
      </trkpt>
      <trkpt lat="46.87626" lon="6.43401">
        <ele>1087</ele>
        <time>2011-08-06T09:28:24Z</time>
      </trkpt>
      <trkpt lat="46.87602" lon="6.43366">
        <ele>1088</ele>
        <time>2011-08-06T09:28:43Z</time>
      </trkpt>
      <trkpt lat="46.87601" lon="6.43365">
        <ele>1088</ele>
        <time>2011-08-06T09:28:44Z</time>
      </trkpt>
      <trkpt lat="46.87595" lon="6.43352">
        <ele>1089</ele>
        <time>2011-08-06T09:28:51Z</time>
      </trkpt>
      <trkpt lat="46.87573" lon="6.43329">
        <ele>1095</ele>
        <time>2011-08-06T09:29:06Z</time>
      </trkpt>
      <trkpt lat="46.87554" lon="6.43306">
        <ele>1098</ele>
        <time>2011-08-06T09:29:22Z</time>
      </trkpt>
      <trkpt lat="46.87536" lon="6.43278">
        <ele>1099</ele>
        <time>2011-08-06T09:29:38Z</time>
      </trkpt>
      <trkpt lat="46.87513" lon="6.43246">
        <ele>1099</ele>
        <time>2011-08-06T09:29:58Z</time>
      </trkpt>
      <trkpt lat="46.87488" lon="6.43229">
        <ele>1105</ele>
        <time>2011-08-06T09:30:17Z</time>
      </trkpt>
      <trkpt lat="46.87484" lon="6.43228">
        <ele>1105</ele>
        <time>2011-08-06T09:30:20Z</time>
      </trkpt>
      <trkpt lat="46.8747" lon="6.43219">
        <ele>1106</ele>
        <time>2011-08-06T09:30:32Z</time>
      </trkpt>
      <trkpt lat="46.8744" lon="6.43208">
        <ele>1107</ele>
        <time>2011-08-06T09:30:53Z</time>
      </trkpt>
      <trkpt lat="46.87406" lon="6.43195">
        <ele>1116</ele>
        <time>2011-08-06T09:31:16Z</time>
      </trkpt>
      <trkpt lat="46.87377" lon="6.4318">
        <ele>1118</ele>
        <time>2011-08-06T09:31:37Z</time>
      </trkpt>
      <trkpt lat="46.8735" lon="6.43168">
        <ele>1122</ele>
        <time>2011-08-06T09:31:57Z</time>
      </trkpt>
      <trkpt lat="46.87319" lon="6.43158">
        <ele>1126</ele>
        <time>2011-08-06T09:32:17Z</time>
      </trkpt>
      <trkpt lat="46.87313" lon="6.43157">
        <ele>1127</ele>
        <time>2011-08-06T09:32:21Z</time>
      </trkpt>
      <trkpt lat="46.87287" lon="6.43169">
        <ele>1130</ele>
        <time>2011-08-06T09:32:38Z</time>
      </trkpt>
      <trkpt lat="46.87271" lon="6.43173">
        <ele>1131</ele>
        <time>2011-08-06T09:32:48Z</time>
      </trkpt>
      <trkpt lat="46.87241" lon="6.4315">
        <ele>1133</ele>
        <time>2011-08-06T09:33:06Z</time>
      </trkpt>
      <trkpt lat="46.87204" lon="6.43124">
        <ele>1134</ele>
        <time>2011-08-06T09:33:23Z</time>
      </trkpt>
      <trkpt lat="46.87186" lon="6.43078">
        <ele>1134</ele>
        <time>2011-08-06T09:33:34Z</time>
      </trkpt>
      <trkpt lat="46.87177" lon="6.43028">
        <ele>1134</ele>
        <time>2011-08-06T09:33:44Z</time>
      </trkpt>
      <trkpt lat="46.87176" lon="6.43018">
        <ele>1134</ele>
        <time>2011-08-06T09:33:46Z</time>
      </trkpt>
      <trkpt lat="46.8718" lon="6.4296">
        <ele>1133</ele>
        <time>2011-08-06T09:34:01Z</time>
      </trkpt>
      <trkpt lat="46.87178" lon="6.42943">
        <ele>1133</ele>
        <time>2011-08-06T09:34:05Z</time>
      </trkpt>
      <trkpt lat="46.87147" lon="6.42887">
        <ele>1134</ele>
        <time>2011-08-06T09:34:20Z</time>
      </trkpt>
      <trkpt lat="46.87129" lon="6.42833">
        <ele>1130</ele>
        <time>2011-08-06T09:34:31Z</time>
      </trkpt>
      <trkpt lat="46.87089" lon="6.42737">
        <ele>1127</ele>
        <time>2011-08-06T09:34:48Z</time>
      </trkpt>
      <trkpt lat="46.87086" lon="6.42731">
        <ele>1127</ele>
        <time>2011-08-06T09:34:49Z</time>
      </trkpt>
      <trkpt lat="46.87054" lon="6.42666">
        <ele>1127</ele>
        <time>2011-08-06T09:35:02Z</time>
      </trkpt>
      <trkpt lat="46.87047" lon="6.42654">
        <ele>1127</ele>
        <time>2011-08-06T09:35:04Z</time>
      </trkpt>
      <trkpt lat="46.8704" lon="6.42627">
        <ele>1127</ele>
        <time>2011-08-06T09:35:08Z</time>
      </trkpt>
      <trkpt lat="46.87028" lon="6.42598">
        <ele>1127</ele>
        <time>2011-08-06T09:35:13Z</time>
      </trkpt>
      <trkpt lat="46.86983" lon="6.42552">
        <ele>1130</ele>
        <time>2011-08-06T09:35:28Z</time>
      </trkpt>
      <trkpt lat="46.86959" lon="6.42535">
        <ele>1130</ele>
        <time>2011-08-06T09:35:38Z</time>
      </trkpt>
      <trkpt lat="46.86954" lon="6.4253">
        <ele>1130</ele>
        <time>2011-08-06T09:35:40Z</time>
      </trkpt>
      <trkpt lat="46.86945" lon="6.42525">
        <ele>1130</ele>
        <time>2011-08-06T09:35:43Z</time>
      </trkpt>
      <trkpt lat="46.8692" lon="6.4248">
        <ele>1127</ele>
        <time>2011-08-06T09:35:54Z</time>
      </trkpt>
      <trkpt lat="46.86912" lon="6.42427">
        <ele>1128</ele>
        <time>2011-08-06T09:36:05Z</time>
      </trkpt>
      <trkpt lat="46.86887" lon="6.424">
        <ele>1127</ele>
        <time>2011-08-06T09:36:15Z</time>
      </trkpt>
      <trkpt lat="46.8686" lon="6.42404">
        <ele>1128</ele>
        <time>2011-08-06T09:36:30Z</time>
      </trkpt>
      <trkpt lat="46.86827" lon="6.42411">
        <ele>1134</ele>
        <time>2011-08-06T09:36:49Z</time>
      </trkpt>
      <trkpt lat="46.86798" lon="6.42441">
        <ele>1140</ele>
        <time>2011-08-06T09:37:09Z</time>
      </trkpt>
      <trkpt lat="46.86778" lon="6.42468">
        <ele>1141</ele>
        <time>2011-08-06T09:37:25Z</time>
      </trkpt>
      <trkpt lat="46.86752" lon="6.42501">
        <ele>1144</ele>
        <time>2011-08-06T09:37:46Z</time>
      </trkpt>
      <trkpt lat="46.86751" lon="6.42503">
        <ele>1144</ele>
        <time>2011-08-06T09:37:47Z</time>
      </trkpt>
      <trkpt lat="46.86749" lon="6.42508">
        <ele>1145</ele>
        <time>2011-08-06T09:37:50Z</time>
      </trkpt>
      <trkpt lat="46.86727" lon="6.42518">
        <ele>1147</ele>
        <time>2011-08-06T09:38:06Z</time>
      </trkpt>
      <trkpt lat="46.86723" lon="6.4252">
        <ele>1147</ele>
        <time>2011-08-06T09:38:18Z</time>
      </trkpt>
      <trkpt lat="46.86719" lon="6.42526">
        <ele>1147</ele>
        <time>2011-08-06T09:38:34Z</time>
      </trkpt>
      <trkpt lat="46.86715" lon="6.4253">
        <ele>1147</ele>
        <time>2011-08-06T09:38:46Z</time>
      </trkpt>
      <trkpt lat="46.86709" lon="6.42548">
        <ele>1148</ele>
        <time>2011-08-06T09:38:55Z</time>
      </trkpt>
      <trkpt lat="46.86706" lon="6.42555">
        <ele>1148</ele>
        <time>2011-08-06T09:38:58Z</time>
      </trkpt>
      <trkpt lat="46.86694" lon="6.42617">
        <ele>1150</ele>
        <time>2011-08-06T09:39:24Z</time>
      </trkpt>
      <trkpt lat="46.86684" lon="6.42661">
        <ele>1152</ele>
        <time>2011-08-06T09:39:42Z</time>
      </trkpt>
      <trkpt lat="46.86668" lon="6.42703">
        <ele>1155</ele>
        <time>2011-08-06T09:40:02Z</time>
      </trkpt>
      <trkpt lat="46.86656" lon="6.42743">
        <ele>1160</ele>
        <time>2011-08-06T09:40:20Z</time>
      </trkpt>
      <trkpt lat="46.86643" lon="6.42794">
        <ele>1165</ele>
        <time>2011-08-06T09:40:42Z</time>
      </trkpt>
      <trkpt lat="46.86625" lon="6.42846">
        <ele>1169</ele>
        <time>2011-08-06T09:41:03Z</time>
      </trkpt>
      <trkpt lat="46.86613" lon="6.42897">
        <ele>1171</ele>
        <time>2011-08-06T09:41:22Z</time>
      </trkpt>
      <trkpt lat="46.86586" lon="6.42931">
        <ele>1175</ele>
        <time>2011-08-06T09:41:40Z</time>
      </trkpt>
      <trkpt lat="46.86555" lon="6.42943">
        <ele>1179</ele>
        <time>2011-08-06T09:41:57Z</time>
      </trkpt>
      <trkpt lat="46.86527" lon="6.42962">
        <ele>1180</ele>
        <time>2011-08-06T09:42:15Z</time>
      </trkpt>
      <trkpt lat="46.86498" lon="6.42981">
        <ele>1183</ele>
        <time>2011-08-06T09:42:33Z</time>
      </trkpt>
      <trkpt lat="46.86477" lon="6.42985">
        <ele>1182</ele>
        <time>2011-08-06T09:42:44Z</time>
      </trkpt>
      <trkpt lat="46.86459" lon="6.42992">
        <ele>1181</ele>
        <time>2011-08-06T09:43:00Z</time>
      </trkpt>
      <trkpt lat="46.86451" lon="6.42991">
        <ele>1181</ele>
        <time>2011-08-06T09:43:11Z</time>
      </trkpt>
      <trkpt lat="46.86451" lon="6.42992">
        <ele>1181</ele>
        <time>2011-08-06T09:43:31Z</time>
      </trkpt>
      <trkpt lat="46.86446" lon="6.42989">
        <ele>1181</ele>
        <time>2011-08-06T09:44:09Z</time>
      </trkpt>
      <trkpt lat="46.86434" lon="6.42985">
        <ele>1180</ele>
        <time>2011-08-06T09:44:52Z</time>
      </trkpt>
      <trkpt lat="46.86404" lon="6.42972">
        <ele>1180</ele>
        <time>2011-08-06T09:45:05Z</time>
      </trkpt>
      <trkpt lat="46.86368" lon="6.42961">
        <ele>1180</ele>
        <time>2011-08-06T09:45:20Z</time>
      </trkpt>
      <trkpt lat="46.86349" lon="6.42954">
        <ele>1180</ele>
        <time>2011-08-06T09:45:29Z</time>
      </trkpt>
      <trkpt lat="46.86326" lon="6.4291">
        <ele>1183</ele>
        <time>2011-08-06T09:45:49Z</time>
      </trkpt>
      <trkpt lat="46.86314" lon="6.42897">
        <ele>1184</ele>
        <time>2011-08-06T09:45:57Z</time>
      </trkpt>
      <trkpt lat="46.86279" lon="6.42876">
        <ele>1186</ele>
        <time>2011-08-06T09:46:17Z</time>
      </trkpt>
      <trkpt lat="46.8624" lon="6.42869">
        <ele>1191</ele>
        <time>2011-08-06T09:46:33Z</time>
      </trkpt>
      <trkpt lat="46.86231" lon="6.42868">
        <ele>1191</ele>
        <time>2011-08-06T09:46:37Z</time>
      </trkpt>
      <trkpt lat="46.86189" lon="6.42887">
        <ele>1193</ele>
        <time>2011-08-06T09:46:53Z</time>
      </trkpt>
      <trkpt lat="46.86158" lon="6.42892">
        <ele>1196</ele>
        <time>2011-08-06T09:47:02Z</time>
      </trkpt>
      <trkpt lat="46.86147" lon="6.42893">
        <ele>1196</ele>
        <time>2011-08-06T09:47:06Z</time>
      </trkpt>
      <trkpt lat="46.86117" lon="6.42927">
        <ele>1194</ele>
        <time>2011-08-06T09:47:20Z</time>
      </trkpt>
      <trkpt lat="46.86115" lon="6.42931">
        <ele>1194</ele>
        <time>2011-08-06T09:47:21Z</time>
      </trkpt>
      <trkpt lat="46.86103" lon="6.42942">
        <ele>1194</ele>
        <time>2011-08-06T09:47:25Z</time>
      </trkpt>
      <trkpt lat="46.86085" lon="6.42938">
        <ele>1194</ele>
        <time>2011-08-06T09:47:32Z</time>
      </trkpt>
      <trkpt lat="46.86084" lon="6.42896">
        <ele>1197</ele>
        <time>2011-08-06T09:47:47Z</time>
      </trkpt>
      <trkpt lat="46.86094" lon="6.42866">
        <ele>1198</ele>
        <time>2011-08-06T09:48:01Z</time>
      </trkpt>
      <trkpt lat="46.86095" lon="6.42864">
        <ele>1198</ele>
        <time>2011-08-06T09:48:02Z</time>
      </trkpt>
      <trkpt lat="46.86109" lon="6.42824">
        <ele>1202</ele>
        <time>2011-08-06T09:48:21Z</time>
      </trkpt>
      <trkpt lat="46.8611" lon="6.42813">
        <ele>1202</ele>
        <time>2011-08-06T09:48:25Z</time>
      </trkpt>
      <trkpt lat="46.86091" lon="6.42804">
        <ele>1202</ele>
        <time>2011-08-06T09:48:38Z</time>
      </trkpt>
      <trkpt lat="46.86061" lon="6.42835">
        <ele>1202</ele>
        <time>2011-08-06T09:48:59Z</time>
      </trkpt>
      <trkpt lat="46.86031" lon="6.42854">
        <ele>1204</ele>
        <time>2011-08-06T09:49:20Z</time>
      </trkpt>
      <trkpt lat="46.86023" lon="6.42846">
        <ele>1204</ele>
        <time>2011-08-06T09:49:25Z</time>
      </trkpt>
      <trkpt lat="46.85992" lon="6.42794">
        <ele>1206</ele>
        <time>2011-08-06T09:49:41Z</time>
      </trkpt>
      <trkpt lat="46.85971" lon="6.42783">
        <ele>1206</ele>
        <time>2011-08-06T09:49:50Z</time>
      </trkpt>
      <trkpt lat="46.85931" lon="6.42772">
        <ele>1205</ele>
        <time>2011-08-06T09:50:03Z</time>
      </trkpt>
      <trkpt lat="46.85922" lon="6.42768">
        <ele>1205</ele>
        <time>2011-08-06T09:50:05Z</time>
      </trkpt>
      <trkpt lat="46.85889" lon="6.42771">
        <ele>1202</ele>
        <time>2011-08-06T09:50:11Z</time>
      </trkpt>
      <trkpt lat="46.85869" lon="6.42782">
        <ele>1202</ele>
        <time>2011-08-06T09:50:14Z</time>
      </trkpt>
      <trkpt lat="46.85843" lon="6.42791">
        <ele>1201</ele>
        <time>2011-08-06T09:50:18Z</time>
      </trkpt>
      <trkpt lat="46.85818" lon="6.42805">
        <ele>1202</ele>
        <time>2011-08-06T09:50:24Z</time>
      </trkpt>
      <trkpt lat="46.85791" lon="6.42798">
        <ele>1202</ele>
        <time>2011-08-06T09:50:30Z</time>
      </trkpt>
      <trkpt lat="46.8575" lon="6.42813">
        <ele>1200</ele>
        <time>2011-08-06T09:50:37Z</time>
      </trkpt>
      <trkpt lat="46.8574" lon="6.42824">
        <ele>1200</ele>
        <time>2011-08-06T09:50:39Z</time>
      </trkpt>
      <trkpt lat="46.85715" lon="6.4284">
        <ele>1196</ele>
        <time>2011-08-06T09:50:46Z</time>
      </trkpt>
      <trkpt lat="46.85686" lon="6.42874">
        <ele>1194</ele>
        <time>2011-08-06T09:50:54Z</time>
      </trkpt>
      <trkpt lat="46.85663" lon="6.42902">
        <ele>1190</ele>
        <time>2011-08-06T09:51:00Z</time>
      </trkpt>
      <trkpt lat="46.85654" lon="6.42912">
        <ele>1190</ele>
        <time>2011-08-06T09:51:02Z</time>
      </trkpt>
      <trkpt lat="46.85627" lon="6.42903">
        <ele>1189</ele>
        <time>2011-08-06T09:51:09Z</time>
      </trkpt>
      <trkpt lat="46.85564" lon="6.42851">
        <ele>1184</ele>
        <time>2011-08-06T09:51:24Z</time>
      </trkpt>
      <trkpt lat="46.85474" lon="6.42781">
        <ele>1181</ele>
        <time>2011-08-06T09:51:43Z</time>
      </trkpt>
      <trkpt lat="46.85399" lon="6.42722">
        <ele>1175</ele>
        <time>2011-08-06T09:51:58Z</time>
      </trkpt>
      <trkpt lat="46.85359" lon="6.4271">
        <ele>1173</ele>
        <time>2011-08-06T09:52:03Z</time>
      </trkpt>
      <trkpt lat="46.85243" lon="6.42702">
        <ele>1176</ele>
        <time>2011-08-06T09:52:19Z</time>
      </trkpt>
      <trkpt lat="46.85237" lon="6.42703">
        <ele>1176</ele>
        <time>2011-08-06T09:52:20Z</time>
      </trkpt>
      <trkpt lat="46.85209" lon="6.42716">
        <ele>1176</ele>
        <time>2011-08-06T09:52:25Z</time>
      </trkpt>
      <trkpt lat="46.85182" lon="6.42699">
        <ele>1178</ele>
        <time>2011-08-06T09:52:32Z</time>
      </trkpt>
      <trkpt lat="46.85168" lon="6.42629">
        <ele>1181</ele>
        <time>2011-08-06T09:52:47Z</time>
      </trkpt>
      <trkpt lat="46.85142" lon="6.42553">
        <ele>1182</ele>
        <time>2011-08-06T09:53:05Z</time>
      </trkpt>
      <trkpt lat="46.85131" lon="6.42491">
        <ele>1178</ele>
        <time>2011-08-06T09:53:19Z</time>
      </trkpt>
      <trkpt lat="46.85121" lon="6.42445">
        <ele>1178</ele>
        <time>2011-08-06T09:53:27Z</time>
      </trkpt>
      <trkpt lat="46.85109" lon="6.4242">
        <ele>1177</ele>
        <time>2011-08-06T09:53:32Z</time>
      </trkpt>
      <trkpt lat="46.85079" lon="6.42382">
        <ele>1171</ele>
        <time>2011-08-06T09:53:40Z</time>
      </trkpt>
      <trkpt lat="46.85071" lon="6.42374">
        <ele>1171</ele>
        <time>2011-08-06T09:53:42Z</time>
      </trkpt>
      <trkpt lat="46.85037" lon="6.42358">
        <ele>1170</ele>
        <time>2011-08-06T09:53:48Z</time>
      </trkpt>
      <trkpt lat="46.84986" lon="6.4232">
        <ele>1165</ele>
        <time>2011-08-06T09:53:56Z</time>
      </trkpt>
      <trkpt lat="46.84961" lon="6.42277">
        <ele>1163</ele>
        <time>2011-08-06T09:54:01Z</time>
      </trkpt>
      <trkpt lat="46.8493" lon="6.42203">
        <ele>1160</ele>
        <time>2011-08-06T09:54:08Z</time>
      </trkpt>
      <trkpt lat="46.84865" lon="6.42139">
        <ele>1153</ele>
        <time>2011-08-06T09:54:17Z</time>
      </trkpt>
      <trkpt lat="46.84812" lon="6.42081">
        <ele>1147</ele>
        <time>2011-08-06T09:54:24Z</time>
      </trkpt>
      <trkpt lat="46.84707" lon="6.41915">
        <ele>1133</ele>
        <time>2011-08-06T09:54:41Z</time>
      </trkpt>
      <trkpt lat="46.84662" lon="6.41854">
        <ele>1130</ele>
        <time>2011-08-06T09:54:48Z</time>
      </trkpt>
      <trkpt lat="46.84604" lon="6.41815">
        <ele>1126</ele>
        <time>2011-08-06T09:54:56Z</time>
      </trkpt>
      <trkpt lat="46.8457" lon="6.41763">
        <ele>1123</ele>
        <time>2011-08-06T09:55:02Z</time>
      </trkpt>
      <trkpt lat="46.84501" lon="6.41597">
        <ele>1117</ele>
        <time>2011-08-06T09:55:19Z</time>
      </trkpt>
      <trkpt lat="46.84489" lon="6.41576">
        <ele>1117</ele>
        <time>2011-08-06T09:55:22Z</time>
      </trkpt>
      <trkpt lat="46.84476" lon="6.41541">
        <ele>1117</ele>
        <time>2011-08-06T09:55:26Z</time>
      </trkpt>
      <trkpt lat="46.84468" lon="6.41412">
        <ele>1113</ele>
        <time>2011-08-06T09:55:39Z</time>
      </trkpt>
      <trkpt lat="46.84452" lon="6.41373">
        <ele>1112</ele>
        <time>2011-08-06T09:55:44Z</time>
      </trkpt>
      <trkpt lat="46.84351" lon="6.41243">
        <ele>1105</ele>
        <time>2011-08-06T09:56:04Z</time>
      </trkpt>
      <trkpt lat="46.84248" lon="6.41125">
        <ele>1106</ele>
        <time>2011-08-06T09:56:28Z</time>
      </trkpt>
      <trkpt lat="46.84167" lon="6.41038">
        <ele>1104</ele>
        <time>2011-08-06T09:56:46Z</time>
      </trkpt>
      <trkpt lat="46.8408" lon="6.40952">
        <ele>1099</ele>
        <time>2011-08-06T09:57:05Z</time>
      </trkpt>
      <trkpt lat="46.83985" lon="6.40856">
        <ele>1099</ele>
        <time>2011-08-06T09:57:25Z</time>
      </trkpt>
      <trkpt lat="46.83909" lon="6.40779">
        <ele>1098</ele>
        <time>2011-08-06T09:57:44Z</time>
      </trkpt>
      <trkpt lat="46.8383" lon="6.407">
        <ele>1095</ele>
        <time>2011-08-06T09:58:04Z</time>
      </trkpt>
      <trkpt lat="46.83831" lon="6.40677">
        <ele>1095</ele>
        <time>2011-08-06T09:58:08Z</time>
      </trkpt>
      <trkpt lat="46.83874" lon="6.40565">
        <ele>1090</ele>
        <time>2011-08-06T09:58:23Z</time>
      </trkpt>
      <trkpt lat="46.83912" lon="6.40446">
        <ele>1087</ele>
        <time>2011-08-06T09:58:38Z</time>
      </trkpt>
      <trkpt lat="46.83926" lon="6.4033">
        <ele>1088</ele>
        <time>2011-08-06T09:58:52Z</time>
      </trkpt>
      <trkpt lat="46.83953" lon="6.40187">
        <ele>1085</ele>
        <time>2011-08-06T09:59:10Z</time>
      </trkpt>
      <trkpt lat="46.83972" lon="6.40106">
        <ele>1084</ele>
        <time>2011-08-06T09:59:21Z</time>
      </trkpt>
      <trkpt lat="46.83955" lon="6.40096">
        <ele>1084</ele>
        <time>2011-08-06T09:59:27Z</time>
      </trkpt>
      <trkpt lat="46.83854" lon="6.40115">
        <ele>1082</ele>
        <time>2011-08-06T09:59:46Z</time>
      </trkpt>
      <trkpt lat="46.8374" lon="6.40133">
        <ele>1081</ele>
        <time>2011-08-06T10:00:09Z</time>
      </trkpt>
      <trkpt lat="46.8364" lon="6.40145">
        <ele>1083</ele>
        <time>2011-08-06T10:00:31Z</time>
      </trkpt>
      <trkpt lat="46.83638" lon="6.4012">
        <ele>1083</ele>
        <time>2011-08-06T10:00:36Z</time>
      </trkpt>
      <trkpt lat="46.8365" lon="6.40071">
        <ele>1082</ele>
        <time>2011-08-06T10:00:44Z</time>
      </trkpt>
      <trkpt lat="46.83638" lon="6.40045">
        <ele>1083</ele>
        <time>2011-08-06T10:00:51Z</time>
      </trkpt>
      <trkpt lat="46.83634" lon="6.40046">
        <ele>1083</ele>
        <time>2011-08-06T10:00:52Z</time>
      </trkpt>
      <trkpt lat="46.83591" lon="6.40064">
        <ele>1084</ele>
        <time>2011-08-06T10:01:02Z</time>
      </trkpt>
      <trkpt lat="46.83575" lon="6.40063">
        <ele>1086</ele>
        <time>2011-08-06T10:01:06Z</time>
      </trkpt>
      <trkpt lat="46.83536" lon="6.40037">
        <ele>1086</ele>
        <time>2011-08-06T10:01:20Z</time>
      </trkpt>
      <trkpt lat="46.83529" lon="6.40026">
        <ele>1086</ele>
        <time>2011-08-06T10:01:26Z</time>
      </trkpt>
      <trkpt lat="46.83524" lon="6.40029">
        <ele>1086</ele>
        <time>2011-08-06T10:01:29Z</time>
      </trkpt>
      <trkpt lat="46.83519" lon="6.40028">
        <ele>1086</ele>
        <time>2011-08-06T10:01:40Z</time>
      </trkpt>
      <trkpt lat="46.83518" lon="6.40027">
        <ele>1086</ele>
        <time>2011-08-06T10:01:47Z</time>
      </trkpt>
      <trkpt lat="46.83522" lon="6.40018">
        <ele>1086</ele>
        <time>2011-08-06T10:01:52Z</time>
      </trkpt>
      <trkpt lat="46.83523" lon="6.40008">
        <ele>1086</ele>
        <time>2011-08-06T10:01:56Z</time>
      </trkpt>
      <trkpt lat="46.83531" lon="6.40003">
        <ele>1086</ele>
        <time>2011-08-06T10:02:00Z</time>
      </trkpt>
      <trkpt lat="46.83539" lon="6.39996">
        <ele>1085</ele>
        <time>2011-08-06T10:02:04Z</time>
      </trkpt>
      <trkpt lat="46.83545" lon="6.39982">
        <ele>1085</ele>
        <time>2011-08-06T10:02:18Z</time>
      </trkpt>
      <trkpt lat="46.83543" lon="6.39981">
        <ele>1085</ele>
        <time>2011-08-06T10:02:58Z</time>
      </trkpt>
      <trkpt lat="46.83543" lon="6.39981">
        <ele>1085</ele>
        <time>2011-08-06T10:02:59Z</time>
      </trkpt>
      <trkpt lat="46.83546" lon="6.39988">
        <ele>1085</ele>
        <time>2011-08-06T10:03:02Z</time>
      </trkpt>
      <trkpt lat="46.8354" lon="6.39994">
        <ele>1085</ele>
        <time>2011-08-06T10:03:22Z</time>
      </trkpt>
      <trkpt lat="46.83534" lon="6.39991">
        <ele>1085</ele>
        <time>2011-08-06T10:03:35Z</time>
      </trkpt>
      <trkpt lat="46.83532" lon="6.39994">
        <ele>1086</ele>
        <time>2011-08-06T10:19:13Z</time>
      </trkpt>
      <trkpt lat="46.83522" lon="6.40005">
        <ele>1086</ele>
        <time>2011-08-06T10:19:20Z</time>
      </trkpt>
      <trkpt lat="46.83508" lon="6.40046">
        <ele>1087</ele>
        <time>2011-08-06T10:19:33Z</time>
      </trkpt>
      <trkpt lat="46.83503" lon="6.40069">
        <ele>1087</ele>
        <time>2011-08-06T10:19:39Z</time>
      </trkpt>
      <trkpt lat="46.83495" lon="6.4007">
        <ele>1088</ele>
        <time>2011-08-06T10:19:43Z</time>
      </trkpt>
      <trkpt lat="46.8345" lon="6.40063">
        <ele>1089</ele>
        <time>2011-08-06T10:19:58Z</time>
      </trkpt>
      <trkpt lat="46.83443" lon="6.40073">
        <ele>1090</ele>
        <time>2011-08-06T10:20:02Z</time>
      </trkpt>
      <trkpt lat="46.8344" lon="6.40075">
        <ele>1090</ele>
        <time>2011-08-06T10:20:04Z</time>
      </trkpt>
      <trkpt lat="46.83436" lon="6.40071">
        <ele>1090</ele>
        <time>2011-08-06T10:20:08Z</time>
      </trkpt>
      <trkpt lat="46.83444" lon="6.40013">
        <ele>1090</ele>
        <time>2011-08-06T10:20:23Z</time>
      </trkpt>
      <trkpt lat="46.83429" lon="6.39914">
        <ele>1088</ele>
        <time>2011-08-06T10:20:44Z</time>
      </trkpt>
      <trkpt lat="46.83402" lon="6.39833">
        <ele>1088</ele>
        <time>2011-08-06T10:21:02Z</time>
      </trkpt>
      <trkpt lat="46.83354" lon="6.39797">
        <ele>1088</ele>
        <time>2011-08-06T10:21:17Z</time>
      </trkpt>
      <trkpt lat="46.83285" lon="6.39738">
        <ele>1085</ele>
        <time>2011-08-06T10:21:33Z</time>
      </trkpt>
      <trkpt lat="46.83225" lon="6.39633">
        <ele>1085</ele>
        <time>2011-08-06T10:21:51Z</time>
      </trkpt>
      <trkpt lat="46.8317" lon="6.39531">
        <ele>1086</ele>
        <time>2011-08-06T10:22:12Z</time>
      </trkpt>
      <trkpt lat="46.831" lon="6.39398">
        <ele>1086</ele>
        <time>2011-08-06T10:22:38Z</time>
      </trkpt>
      <trkpt lat="46.83069" lon="6.39341">
        <ele>1085</ele>
        <time>2011-08-06T10:22:49Z</time>
      </trkpt>
      <trkpt lat="46.82998" lon="6.39279">
        <ele>1087</ele>
        <time>2011-08-06T10:23:10Z</time>
      </trkpt>
      <trkpt lat="46.82967" lon="6.39226">
        <ele>1089</ele>
        <time>2011-08-06T10:23:23Z</time>
      </trkpt>
      <trkpt lat="46.82969" lon="6.39134">
        <ele>1091</ele>
        <time>2011-08-06T10:23:41Z</time>
      </trkpt>
      <trkpt lat="46.82994" lon="6.39034">
        <ele>1092</ele>
        <time>2011-08-06T10:24:01Z</time>
      </trkpt>
      <trkpt lat="46.83004" lon="6.38983">
        <ele>1092</ele>
        <time>2011-08-06T10:24:12Z</time>
      </trkpt>
      <trkpt lat="46.83022" lon="6.38907">
        <ele>1094</ele>
        <time>2011-08-06T10:24:27Z</time>
      </trkpt>
      <trkpt lat="46.8305" lon="6.38816">
        <ele>1093</ele>
        <time>2011-08-06T10:24:40Z</time>
      </trkpt>
      <trkpt lat="46.83092" lon="6.38708">
        <ele>1086</ele>
        <time>2011-08-06T10:24:57Z</time>
      </trkpt>
      <trkpt lat="46.83103" lon="6.38674">
        <ele>1086</ele>
        <time>2011-08-06T10:25:01Z</time>
      </trkpt>
      <trkpt lat="46.83097" lon="6.38582">
        <ele>1088</ele>
        <time>2011-08-06T10:25:13Z</time>
      </trkpt>
      <trkpt lat="46.83089" lon="6.38552">
        <ele>1088</ele>
        <time>2011-08-06T10:25:18Z</time>
      </trkpt>
      <trkpt lat="46.83081" lon="6.38548">
        <ele>1094</ele>
        <time>2011-08-06T10:25:21Z</time>
      </trkpt>
      <trkpt lat="46.83073" lon="6.38549">
        <ele>1095</ele>
        <time>2011-08-06T10:25:24Z</time>
      </trkpt>
      <trkpt lat="46.83067" lon="6.38546">
        <ele>1095</ele>
        <time>2011-08-06T10:25:27Z</time>
      </trkpt>
      <trkpt lat="46.83064" lon="6.38545">
        <ele>1095</ele>
        <time>2011-08-06T10:25:29Z</time>
      </trkpt>
      <trkpt lat="46.83038" lon="6.3853">
        <ele>1097</ele>
        <time>2011-08-06T10:25:40Z</time>
      </trkpt>
      <trkpt lat="46.83036" lon="6.38528">
        <ele>1097</ele>
        <time>2011-08-06T10:25:41Z</time>
      </trkpt>
      <trkpt lat="46.83024" lon="6.38521">
        <ele>1098</ele>
        <time>2011-08-06T10:25:45Z</time>
      </trkpt>
      <trkpt lat="46.82998" lon="6.38504">
        <ele>1103</ele>
        <time>2011-08-06T10:25:51Z</time>
      </trkpt>
      <trkpt lat="46.82972" lon="6.38448">
        <ele>1105</ele>
        <time>2011-08-06T10:26:05Z</time>
      </trkpt>
      <trkpt lat="46.82946" lon="6.38406">
        <ele>1107</ele>
        <time>2011-08-06T10:26:19Z</time>
      </trkpt>
      <trkpt lat="46.82916" lon="6.38377">
        <ele>1109</ele>
        <time>2011-08-06T10:26:30Z</time>
      </trkpt>
      <trkpt lat="46.82882" lon="6.38343">
        <ele>1109</ele>
        <time>2011-08-06T10:26:44Z</time>
      </trkpt>
      <trkpt lat="46.82855" lon="6.38311">
        <ele>1109</ele>
        <time>2011-08-06T10:26:56Z</time>
      </trkpt>
      <trkpt lat="46.82834" lon="6.38293">
        <ele>1108</ele>
        <time>2011-08-06T10:27:05Z</time>
      </trkpt>
      <trkpt lat="46.82798" lon="6.38275">
        <ele>1104</ele>
        <time>2011-08-06T10:27:17Z</time>
      </trkpt>
      <trkpt lat="46.82794" lon="6.38272">
        <ele>1104</ele>
        <time>2011-08-06T10:27:18Z</time>
      </trkpt>
      <trkpt lat="46.82768" lon="6.38247">
        <ele>1102</ele>
        <time>2011-08-06T10:27:23Z</time>
      </trkpt>
      <trkpt lat="46.82759" lon="6.38241">
        <ele>1102</ele>
        <time>2011-08-06T10:27:25Z</time>
      </trkpt>
      <trkpt lat="46.82743" lon="6.38225">
        <ele>1101</ele>
        <time>2011-08-06T10:27:29Z</time>
      </trkpt>
      <trkpt lat="46.82744" lon="6.38167">
        <ele>1103</ele>
        <time>2011-08-06T10:27:38Z</time>
      </trkpt>
      <trkpt lat="46.82745" lon="6.38154">
        <ele>1104</ele>
        <time>2011-08-06T10:27:40Z</time>
      </trkpt>
      <trkpt lat="46.82753" lon="6.38107">
        <ele>1106</ele>
        <time>2011-08-06T10:27:47Z</time>
      </trkpt>
      <trkpt lat="46.82753" lon="6.38032">
        <ele>1105</ele>
        <time>2011-08-06T10:27:56Z</time>
      </trkpt>
      <trkpt lat="46.82764" lon="6.37998">
        <ele>1101</ele>
        <time>2011-08-06T10:28:00Z</time>
      </trkpt>
      <trkpt lat="46.82773" lon="6.37936">
        <ele>1097</ele>
        <time>2011-08-06T10:28:09Z</time>
      </trkpt>
      <trkpt lat="46.82781" lon="6.37905">
        <ele>1090</ele>
        <time>2011-08-06T10:28:13Z</time>
      </trkpt>
      <trkpt lat="46.82787" lon="6.37884">
        <ele>1089</ele>
        <time>2011-08-06T10:28:17Z</time>
      </trkpt>
      <trkpt lat="46.82768" lon="6.37855">
        <ele>1087</ele>
        <time>2011-08-06T10:28:27Z</time>
      </trkpt>
      <trkpt lat="46.82763" lon="6.37841">
        <ele>1086</ele>
        <time>2011-08-06T10:28:31Z</time>
      </trkpt>
      <trkpt lat="46.8276" lon="6.37835">
        <ele>1085</ele>
        <time>2011-08-06T10:28:33Z</time>
      </trkpt>
      <trkpt lat="46.82756" lon="6.37799">
        <ele>1083</ele>
        <time>2011-08-06T10:28:42Z</time>
      </trkpt>
      <trkpt lat="46.82755" lon="6.37794">
        <ele>1083</ele>
        <time>2011-08-06T10:28:47Z</time>
      </trkpt>
      <trkpt lat="46.82753" lon="6.37791">
        <ele>1083</ele>
        <time>2011-08-06T10:28:51Z</time>
      </trkpt>
      <trkpt lat="46.82747" lon="6.37784">
        <ele>1085</ele>
        <time>2011-08-06T10:28:56Z</time>
      </trkpt>
      <trkpt lat="46.82737" lon="6.3777">
        <ele>1084</ele>
        <time>2011-08-06T10:29:03Z</time>
      </trkpt>
      <trkpt lat="46.82712" lon="6.37742">
        <ele>1086</ele>
        <time>2011-08-06T10:29:16Z</time>
      </trkpt>
      <trkpt lat="46.82709" lon="6.3774">
        <ele>1086</ele>
        <time>2011-08-06T10:29:17Z</time>
      </trkpt>
      <trkpt lat="46.82686" lon="6.37723">
        <ele>1087</ele>
        <time>2011-08-06T10:29:26Z</time>
      </trkpt>
      <trkpt lat="46.82662" lon="6.37691">
        <ele>1091</ele>
        <time>2011-08-06T10:29:39Z</time>
      </trkpt>
      <trkpt lat="46.82647" lon="6.37663">
        <ele>1091</ele>
        <time>2011-08-06T10:29:49Z</time>
      </trkpt>
      <trkpt lat="46.82636" lon="6.37668">
        <ele>1091</ele>
        <time>2011-08-06T10:29:55Z</time>
      </trkpt>
      <trkpt lat="46.82622" lon="6.37649">
        <ele>1092</ele>
        <time>2011-08-06T10:30:06Z</time>
      </trkpt>
      <trkpt lat="46.82616" lon="6.37644">
        <ele>1092</ele>
        <time>2011-08-06T10:30:09Z</time>
      </trkpt>
      <trkpt lat="46.82592" lon="6.37634">
        <ele>1092</ele>
        <time>2011-08-06T10:30:19Z</time>
      </trkpt>
      <trkpt lat="46.82567" lon="6.37619">
        <ele>1094</ele>
        <time>2011-08-06T10:30:30Z</time>
      </trkpt>
      <trkpt lat="46.82564" lon="6.37612">
        <ele>1094</ele>
        <time>2011-08-06T10:30:32Z</time>
      </trkpt>
      <trkpt lat="46.82556" lon="6.37607">
        <ele>1094</ele>
        <time>2011-08-06T10:30:36Z</time>
      </trkpt>
      <trkpt lat="46.82552" lon="6.37595">
        <ele>1094</ele>
        <time>2011-08-06T10:30:42Z</time>
      </trkpt>
      <trkpt lat="46.82547" lon="6.37592">
        <ele>1094</ele>
        <time>2011-08-06T10:30:45Z</time>
      </trkpt>
      <trkpt lat="46.82538" lon="6.37568">
        <ele>1094</ele>
        <time>2011-08-06T10:30:53Z</time>
      </trkpt>
      <trkpt lat="46.82517" lon="6.3752">
        <ele>1093</ele>
        <time>2011-08-06T10:31:05Z</time>
      </trkpt>
      <trkpt lat="46.82508" lon="6.375">
        <ele>1093</ele>
        <time>2011-08-06T10:31:09Z</time>
      </trkpt>
      <trkpt lat="46.82497" lon="6.37481">
        <ele>1088</ele>
        <time>2011-08-06T10:31:13Z</time>
      </trkpt>
      <trkpt lat="46.82497" lon="6.37467">
        <ele>1087</ele>
        <time>2011-08-06T10:31:18Z</time>
      </trkpt>
      <trkpt lat="46.82492" lon="6.37448">
        <ele>1086</ele>
        <time>2011-08-06T10:31:23Z</time>
      </trkpt>
      <trkpt lat="46.82489" lon="6.37432">
        <ele>1085</ele>
        <time>2011-08-06T10:31:26Z</time>
      </trkpt>
      <trkpt lat="46.82482" lon="6.37418">
        <ele>1084</ele>
        <time>2011-08-06T10:31:29Z</time>
      </trkpt>
      <trkpt lat="46.82466" lon="6.37401">
        <ele>1077</ele>
        <time>2011-08-06T10:31:36Z</time>
      </trkpt>
      <trkpt lat="46.82454" lon="6.37393">
        <ele>1076</ele>
        <time>2011-08-06T10:31:42Z</time>
      </trkpt>
      <trkpt lat="46.82439" lon="6.37353">
        <ele>1073</ele>
        <time>2011-08-06T10:31:51Z</time>
      </trkpt>
      <trkpt lat="46.82401" lon="6.37379">
        <ele>1071</ele>
        <time>2011-08-06T10:32:03Z</time>
      </trkpt>
      <trkpt lat="46.82387" lon="6.3739">
        <ele>1072</ele>
        <time>2011-08-06T10:32:08Z</time>
      </trkpt>
      <trkpt lat="46.8238" lon="6.37394">
        <ele>1072</ele>
        <time>2011-08-06T10:32:13Z</time>
      </trkpt>
      <trkpt lat="46.82367" lon="6.37401">
        <ele>1072</ele>
        <time>2011-08-06T10:32:21Z</time>
      </trkpt>
      <trkpt lat="46.82339" lon="6.37413">
        <ele>1072</ele>
        <time>2011-08-06T10:32:32Z</time>
      </trkpt>
      <trkpt lat="46.82309" lon="6.37417">
        <ele>1071</ele>
        <time>2011-08-06T10:32:45Z</time>
      </trkpt>
      <trkpt lat="46.82272" lon="6.37427">
        <ele>1078</ele>
        <time>2011-08-06T10:32:59Z</time>
      </trkpt>
      <trkpt lat="46.82239" lon="6.37433">
        <ele>1078</ele>
        <time>2011-08-06T10:33:13Z</time>
      </trkpt>
      <trkpt lat="46.82214" lon="6.37436">
        <ele>1079</ele>
        <time>2011-08-06T10:33:25Z</time>
      </trkpt>
      <trkpt lat="46.82187" lon="6.37434">
        <ele>1079</ele>
        <time>2011-08-06T10:33:35Z</time>
      </trkpt>
      <trkpt lat="46.82158" lon="6.37446">
        <ele>1081</ele>
        <time>2011-08-06T10:33:49Z</time>
      </trkpt>
      <trkpt lat="46.82153" lon="6.37448">
        <ele>1081</ele>
        <time>2011-08-06T10:33:52Z</time>
      </trkpt>
      <trkpt lat="46.8213" lon="6.37457">
        <ele>1082</ele>
        <time>2011-08-06T10:34:07Z</time>
      </trkpt>
      <trkpt lat="46.82107" lon="6.37476">
        <ele>1083</ele>
        <time>2011-08-06T10:34:23Z</time>
      </trkpt>
      <trkpt lat="46.82095" lon="6.37492">
        <ele>1084</ele>
        <time>2011-08-06T10:34:32Z</time>
      </trkpt>
      <trkpt lat="46.82079" lon="6.37529">
        <ele>1091</ele>
        <time>2011-08-06T10:34:51Z</time>
      </trkpt>
      <trkpt lat="46.8206" lon="6.3756">
        <ele>1093</ele>
        <time>2011-08-06T10:35:08Z</time>
      </trkpt>
      <trkpt lat="46.82041" lon="6.37596">
        <ele>1093</ele>
        <time>2011-08-06T10:35:28Z</time>
      </trkpt>
      <trkpt lat="46.82027" lon="6.37621">
        <ele>1092</ele>
        <time>2011-08-06T10:35:43Z</time>
      </trkpt>
      <trkpt lat="46.82021" lon="6.37629">
        <ele>1092</ele>
        <time>2011-08-06T10:35:56Z</time>
      </trkpt>
      <trkpt lat="46.82018" lon="6.37641">
        <ele>1091</ele>
        <time>2011-08-06T10:36:05Z</time>
      </trkpt>
      <trkpt lat="46.82012" lon="6.37661">
        <ele>1090</ele>
        <time>2011-08-06T10:36:19Z</time>
      </trkpt>
      <trkpt lat="46.82002" lon="6.37666">
        <ele>1088</ele>
        <time>2011-08-06T10:36:29Z</time>
      </trkpt>
      <trkpt lat="46.81999" lon="6.37664">
        <ele>1089</ele>
        <time>2011-08-06T10:36:32Z</time>
      </trkpt>
      <trkpt lat="46.81994" lon="6.37657">
        <ele>1092</ele>
        <time>2011-08-06T10:36:46Z</time>
      </trkpt>
      <trkpt lat="46.81994" lon="6.37653">
        <ele>1093</ele>
        <time>2011-08-06T10:39:24Z</time>
      </trkpt>
      <trkpt lat="46.81981" lon="6.37612">
        <ele>1098</ele>
        <time>2011-08-06T10:39:43Z</time>
      </trkpt>
      <trkpt lat="46.81979" lon="6.37568">
        <ele>1104</ele>
        <time>2011-08-06T10:39:58Z</time>
      </trkpt>
      <trkpt lat="46.81975" lon="6.37552">
        <ele>1106</ele>
        <time>2011-08-06T10:40:02Z</time>
      </trkpt>
      <trkpt lat="46.8197" lon="6.37497">
        <ele>1107</ele>
        <time>2011-08-06T10:40:14Z</time>
      </trkpt>
      <trkpt lat="46.81952" lon="6.37435">
        <ele>1108</ele>
        <time>2011-08-06T10:40:26Z</time>
      </trkpt>
      <trkpt lat="46.81947" lon="6.37423">
        <ele>1108</ele>
        <time>2011-08-06T10:40:28Z</time>
      </trkpt>
      <trkpt lat="46.81922" lon="6.37382">
        <ele>1102</ele>
        <time>2011-08-06T10:40:36Z</time>
      </trkpt>
      <trkpt lat="46.81908" lon="6.37368">
        <ele>1106</ele>
        <time>2011-08-06T10:40:39Z</time>
      </trkpt>
      <trkpt lat="46.81885" lon="6.37349">
        <ele>1105</ele>
        <time>2011-08-06T10:40:44Z</time>
      </trkpt>
      <trkpt lat="46.81869" lon="6.37343">
        <ele>1105</ele>
        <time>2011-08-06T10:40:47Z</time>
      </trkpt>
      <trkpt lat="46.81822" lon="6.37324">
        <ele>1098</ele>
        <time>2011-08-06T10:40:57Z</time>
      </trkpt>
      <trkpt lat="46.81779" lon="6.37314">
        <ele>1099</ele>
        <time>2011-08-06T10:41:07Z</time>
      </trkpt>
      <trkpt lat="46.81737" lon="6.37314">
        <ele>1103</ele>
        <time>2011-08-06T10:41:20Z</time>
      </trkpt>
      <trkpt lat="46.81723" lon="6.37312">
        <ele>1102</ele>
        <time>2011-08-06T10:41:25Z</time>
      </trkpt>
      <trkpt lat="46.81714" lon="6.37311">
        <ele>1101</ele>
        <time>2011-08-06T10:41:28Z</time>
      </trkpt>
      <trkpt lat="46.81681" lon="6.37304">
        <ele>1101</ele>
        <time>2011-08-06T10:41:36Z</time>
      </trkpt>
      <trkpt lat="46.81613" lon="6.37308">
        <ele>1099</ele>
        <time>2011-08-06T10:41:48Z</time>
      </trkpt>
      <trkpt lat="46.81534" lon="6.37335">
        <ele>1103</ele>
        <time>2011-08-06T10:42:03Z</time>
      </trkpt>
      <trkpt lat="46.81511" lon="6.3734">
        <ele>1099</ele>
        <time>2011-08-06T10:42:08Z</time>
      </trkpt>
      <trkpt lat="46.81431" lon="6.37341">
        <ele>1089</ele>
        <time>2011-08-06T10:42:25Z</time>
      </trkpt>
      <trkpt lat="46.8141" lon="6.37339">
        <ele>1087</ele>
        <time>2011-08-06T10:42:29Z</time>
      </trkpt>
      <trkpt lat="46.81379" lon="6.37331">
        <ele>1083</ele>
        <time>2011-08-06T10:42:35Z</time>
      </trkpt>
      <trkpt lat="46.81308" lon="6.3726">
        <ele>1084</ele>
        <time>2011-08-06T10:42:50Z</time>
      </trkpt>
      <trkpt lat="46.81245" lon="6.37192">
        <ele>1083</ele>
        <time>2011-08-06T10:43:07Z</time>
      </trkpt>
      <trkpt lat="46.81213" lon="6.37155">
        <ele>1077</ele>
        <time>2011-08-06T10:43:20Z</time>
      </trkpt>
      <trkpt lat="46.81202" lon="6.37143">
        <ele>1076</ele>
        <time>2011-08-06T10:43:23Z</time>
      </trkpt>
      <trkpt lat="46.81138" lon="6.37115">
        <ele>1079</ele>
        <time>2011-08-06T10:43:37Z</time>
      </trkpt>
      <trkpt lat="46.81036" lon="6.37087">
        <ele>1089</ele>
        <time>2011-08-06T10:43:54Z</time>
      </trkpt>
      <trkpt lat="46.8098" lon="6.37059">
        <ele>1087</ele>
        <time>2011-08-06T10:44:01Z</time>
      </trkpt>
      <trkpt lat="46.80953" lon="6.37044">
        <ele>1085</ele>
        <time>2011-08-06T10:44:06Z</time>
      </trkpt>
      <trkpt lat="46.80894" lon="6.37028">
        <ele>1084</ele>
        <time>2011-08-06T10:44:15Z</time>
      </trkpt>
      <trkpt lat="46.80838" lon="6.37007">
        <ele>1082</ele>
        <time>2011-08-06T10:44:24Z</time>
      </trkpt>
      <trkpt lat="46.80811" lon="6.36998">
        <ele>1078</ele>
        <time>2011-08-06T10:44:29Z</time>
      </trkpt>
      <trkpt lat="46.80789" lon="6.36983">
        <ele>1078</ele>
        <time>2011-08-06T10:44:34Z</time>
      </trkpt>
      <trkpt lat="46.80757" lon="6.36958">
        <ele>1077</ele>
        <time>2011-08-06T10:44:41Z</time>
      </trkpt>
      <trkpt lat="46.80728" lon="6.36953">
        <ele>1079</ele>
        <time>2011-08-06T10:44:47Z</time>
      </trkpt>
      <trkpt lat="46.80697" lon="6.36958">
        <ele>1079</ele>
        <time>2011-08-06T10:44:54Z</time>
      </trkpt>
      <trkpt lat="46.80684" lon="6.36963">
        <ele>1079</ele>
        <time>2011-08-06T10:44:57Z</time>
      </trkpt>
      <trkpt lat="46.80637" lon="6.36967">
        <ele>1080</ele>
        <time>2011-08-06T10:45:07Z</time>
      </trkpt>
      <trkpt lat="46.80607" lon="6.36976">
        <ele>1081</ele>
        <time>2011-08-06T10:45:13Z</time>
      </trkpt>
      <trkpt lat="46.80533" lon="6.37034">
        <ele>1080</ele>
        <time>2011-08-06T10:45:30Z</time>
      </trkpt>
      <trkpt lat="46.80506" lon="6.37044">
        <ele>1079</ele>
        <time>2011-08-06T10:45:34Z</time>
      </trkpt>
      <trkpt lat="46.80482" lon="6.3705">
        <ele>1073</ele>
        <time>2011-08-06T10:45:37Z</time>
      </trkpt>
      <trkpt lat="46.80453" lon="6.37064">
        <ele>1071</ele>
        <time>2011-08-06T10:45:40Z</time>
      </trkpt>
      <trkpt lat="46.80379" lon="6.3707">
        <ele>1064</ele>
        <time>2011-08-06T10:45:47Z</time>
      </trkpt>
      <trkpt lat="46.80338" lon="6.37053">
        <ele>1063</ele>
        <time>2011-08-06T10:45:51Z</time>
      </trkpt>
      <trkpt lat="46.8032" lon="6.37037">
        <ele>1059</ele>
        <time>2011-08-06T10:45:53Z</time>
      </trkpt>
      <trkpt lat="46.80283" lon="6.37025">
        <ele>1058</ele>
        <time>2011-08-06T10:45:57Z</time>
      </trkpt>
      <trkpt lat="46.80149" lon="6.37016">
        <ele>1051</ele>
        <time>2011-08-06T10:46:13Z</time>
      </trkpt>
      <trkpt lat="46.80014" lon="6.36963">
        <ele>1049</ele>
        <time>2011-08-06T10:46:32Z</time>
      </trkpt>
      <trkpt lat="46.79966" lon="6.36949">
        <ele>1049</ele>
        <time>2011-08-06T10:46:40Z</time>
      </trkpt>
      <trkpt lat="46.79929" lon="6.36973">
        <ele>1048</ele>
        <time>2011-08-06T10:46:47Z</time>
      </trkpt>
      <trkpt lat="46.79838" lon="6.37093">
        <ele>1041</ele>
        <time>2011-08-06T10:47:05Z</time>
      </trkpt>
      <trkpt lat="46.7979" lon="6.37139">
        <ele>1041</ele>
        <time>2011-08-06T10:47:14Z</time>
      </trkpt>
      <trkpt lat="46.79767" lon="6.37154">
        <ele>1041</ele>
        <time>2011-08-06T10:47:18Z</time>
      </trkpt>
      <trkpt lat="46.79686" lon="6.37189">
        <ele>1040</ele>
        <time>2011-08-06T10:47:32Z</time>
      </trkpt>
      <trkpt lat="46.79678" lon="6.37215">
        <ele>1040</ele>
        <time>2011-08-06T10:47:37Z</time>
      </trkpt>
      <trkpt lat="46.79679" lon="6.3723">
        <ele>1040</ele>
        <time>2011-08-06T10:47:39Z</time>
      </trkpt>
      <trkpt lat="46.79677" lon="6.37263">
        <ele>1040</ele>
        <time>2011-08-06T10:47:44Z</time>
      </trkpt>
      <trkpt lat="46.79665" lon="6.37295">
        <ele>1040</ele>
        <time>2011-08-06T10:47:50Z</time>
      </trkpt>
      <trkpt lat="46.79623" lon="6.37341">
        <ele>1044</ele>
        <time>2011-08-06T10:48:05Z</time>
      </trkpt>
      <trkpt lat="46.79621" lon="6.37344">
        <ele>1044</ele>
        <time>2011-08-06T10:48:06Z</time>
      </trkpt>
      <trkpt lat="46.79592" lon="6.37379">
        <ele>1045</ele>
        <time>2011-08-06T10:48:18Z</time>
      </trkpt>
      <trkpt lat="46.79587" lon="6.37417">
        <ele>1049</ele>
        <time>2011-08-06T10:48:33Z</time>
      </trkpt>
      <trkpt lat="46.79595" lon="6.37473">
        <ele>1053</ele>
        <time>2011-08-06T10:48:56Z</time>
      </trkpt>
      <trkpt lat="46.796" lon="6.37511">
        <ele>1063</ele>
        <time>2011-08-06T10:49:15Z</time>
      </trkpt>
      <trkpt lat="46.79604" lon="6.37533">
        <ele>1067</ele>
        <time>2011-08-06T10:49:28Z</time>
      </trkpt>
      <trkpt lat="46.79604" lon="6.37543">
        <ele>1069</ele>
        <time>2011-08-06T10:49:33Z</time>
      </trkpt>
      <trkpt lat="46.79587" lon="6.37564">
        <ele>1073</ele>
        <time>2011-08-06T10:49:50Z</time>
      </trkpt>
      <trkpt lat="46.79569" lon="6.37573">
        <ele>1073</ele>
        <time>2011-08-06T10:50:00Z</time>
      </trkpt>
      <trkpt lat="46.79566" lon="6.37574">
        <ele>1073</ele>
        <time>2011-08-06T10:50:02Z</time>
      </trkpt>
      <trkpt lat="46.79539" lon="6.37582">
        <ele>1072</ele>
        <time>2011-08-06T10:50:13Z</time>
      </trkpt>
      <trkpt lat="46.79505" lon="6.37587">
        <ele>1083</ele>
        <time>2011-08-06T10:50:24Z</time>
      </trkpt>
      <trkpt lat="46.7947" lon="6.37582">
        <ele>1074</ele>
        <time>2011-08-06T10:50:34Z</time>
      </trkpt>
      <trkpt lat="46.79434" lon="6.37573">
        <ele>1075</ele>
        <time>2011-08-06T10:50:43Z</time>
      </trkpt>
      <trkpt lat="46.79395" lon="6.37578">
        <ele>1077</ele>
        <time>2011-08-06T10:50:53Z</time>
      </trkpt>
      <trkpt lat="46.79371" lon="6.37577">
        <ele>1077</ele>
        <time>2011-08-06T10:51:03Z</time>
      </trkpt>
      <trkpt lat="46.79339" lon="6.37583">
        <ele>1084</ele>
        <time>2011-08-06T10:51:17Z</time>
      </trkpt>
      <trkpt lat="46.79303" lon="6.37574">
        <ele>1080</ele>
        <time>2011-08-06T10:51:26Z</time>
      </trkpt>
      <trkpt lat="46.79224" lon="6.37543">
        <ele>1077</ele>
        <time>2011-08-06T10:51:37Z</time>
      </trkpt>
      <trkpt lat="46.79117" lon="6.37506">
        <ele>1071</ele>
        <time>2011-08-06T10:51:51Z</time>
      </trkpt>
      <trkpt lat="46.7911" lon="6.37502">
        <ele>1070</ele>
        <time>2011-08-06T10:51:53Z</time>
      </trkpt>
      <trkpt lat="46.79072" lon="6.37516">
        <ele>1069</ele>
        <time>2011-08-06T10:52:06Z</time>
      </trkpt>
      <trkpt lat="46.79031" lon="6.3752">
        <ele>1072</ele>
        <time>2011-08-06T10:52:24Z</time>
      </trkpt>
      <trkpt lat="46.78998" lon="6.37529">
        <ele>1071</ele>
        <time>2011-08-06T10:52:43Z</time>
      </trkpt>
      <trkpt lat="46.78966" lon="6.37545">
        <ele>1073</ele>
        <time>2011-08-06T10:53:01Z</time>
      </trkpt>
      <trkpt lat="46.78935" lon="6.37557">
        <ele>1073</ele>
        <time>2011-08-06T10:53:19Z</time>
      </trkpt>
      <trkpt lat="46.78902" lon="6.37558">
        <ele>1070</ele>
        <time>2011-08-06T10:53:29Z</time>
      </trkpt>
      <trkpt lat="46.78834" lon="6.37567">
        <ele>1071</ele>
        <time>2011-08-06T10:53:41Z</time>
      </trkpt>
      <trkpt lat="46.78806" lon="6.37577">
        <ele>1067</ele>
        <time>2011-08-06T10:53:48Z</time>
      </trkpt>
      <trkpt lat="46.78784" lon="6.37565">
        <ele>1064</ele>
        <time>2011-08-06T10:53:55Z</time>
      </trkpt>
      <trkpt lat="46.7876" lon="6.3756">
        <ele>1064</ele>
        <time>2011-08-06T10:54:00Z</time>
      </trkpt>
      <trkpt lat="46.7871" lon="6.3758">
        <ele>1063</ele>
        <time>2011-08-06T10:54:16Z</time>
      </trkpt>
      <trkpt lat="46.78679" lon="6.37593">
        <ele>1074</ele>
        <time>2011-08-06T10:54:29Z</time>
      </trkpt>
      <trkpt lat="46.78658" lon="6.37586">
        <ele>1075</ele>
        <time>2011-08-06T10:54:39Z</time>
      </trkpt>
      <trkpt lat="46.78653" lon="6.37585">
        <ele>1076</ele>
        <time>2011-08-06T10:54:42Z</time>
      </trkpt>
      <trkpt lat="46.78648" lon="6.37585">
        <ele>1078</ele>
        <time>2011-08-06T10:54:45Z</time>
      </trkpt>
      <trkpt lat="46.7864" lon="6.37586">
        <ele>1079</ele>
        <time>2011-08-06T10:54:50Z</time>
      </trkpt>
      <trkpt lat="46.78637" lon="6.37585">
        <ele>1080</ele>
        <time>2011-08-06T10:54:52Z</time>
      </trkpt>
      <trkpt lat="46.78628" lon="6.37587">
        <ele>1081</ele>
        <time>2011-08-06T10:54:56Z</time>
      </trkpt>
      <trkpt lat="46.78615" lon="6.37586">
        <ele>1082</ele>
        <time>2011-08-06T10:55:01Z</time>
      </trkpt>
      <trkpt lat="46.78593" lon="6.37585">
        <ele>1080</ele>
        <time>2011-08-06T10:55:10Z</time>
      </trkpt>
      <trkpt lat="46.78575" lon="6.37584">
        <ele>1081</ele>
        <time>2011-08-06T10:55:17Z</time>
      </trkpt>
      <trkpt lat="46.78564" lon="6.37584">
        <ele>1083</ele>
        <time>2011-08-06T10:55:25Z</time>
      </trkpt>
      <trkpt lat="46.78554" lon="6.3758">
        <ele>1070</ele>
        <time>2011-08-06T10:55:30Z</time>
      </trkpt>
      <trkpt lat="46.78546" lon="6.3758">
        <ele>1069</ele>
        <time>2011-08-06T10:55:34Z</time>
      </trkpt>
      <trkpt lat="46.78532" lon="6.37576">
        <ele>1069</ele>
        <time>2011-08-06T10:55:46Z</time>
      </trkpt>
      <trkpt lat="46.78524" lon="6.37576">
        <ele>1070</ele>
        <time>2011-08-06T10:56:02Z</time>
      </trkpt>
      <trkpt lat="46.78523" lon="6.37577">
        <ele>1070</ele>
        <time>2011-08-06T10:56:03Z</time>
      </trkpt>
      <trkpt lat="46.78513" lon="6.37578">
        <ele>1072</ele>
        <time>2011-08-06T10:56:09Z</time>
      </trkpt>
      <trkpt lat="46.78503" lon="6.37575">
        <ele>1073</ele>
        <time>2011-08-06T10:56:14Z</time>
      </trkpt>
      <trkpt lat="46.78492" lon="6.37576">
        <ele>1072</ele>
        <time>2011-08-06T10:56:17Z</time>
      </trkpt>
      <trkpt lat="46.78464" lon="6.37572">
        <ele>1069</ele>
        <time>2011-08-06T10:56:24Z</time>
      </trkpt>
      <trkpt lat="46.78455" lon="6.37573">
        <ele>1069</ele>
        <time>2011-08-06T10:56:28Z</time>
      </trkpt>
      <trkpt lat="46.78436" lon="6.37572">
        <ele>1070</ele>
        <time>2011-08-06T10:56:38Z</time>
      </trkpt>
      <trkpt lat="46.78421" lon="6.37579">
        <ele>1075</ele>
        <time>2011-08-06T10:56:47Z</time>
      </trkpt>
      <trkpt lat="46.78415" lon="6.3758">
        <ele>1076</ele>
        <time>2011-08-06T10:56:53Z</time>
      </trkpt>
      <trkpt lat="46.78407" lon="6.37582">
        <ele>1074</ele>
        <time>2011-08-06T10:57:04Z</time>
      </trkpt>
      <trkpt lat="46.78406" lon="6.37582">
        <ele>1074</ele>
        <time>2011-08-06T10:57:05Z</time>
      </trkpt>
      <trkpt lat="46.78397" lon="6.37589">
        <ele>1085</ele>
        <time>2011-08-06T10:57:17Z</time>
      </trkpt>
      <trkpt lat="46.78384" lon="6.37595">
        <ele>1087</ele>
        <time>2011-08-06T10:57:31Z</time>
      </trkpt>
      <trkpt lat="46.78374" lon="6.37599">
        <ele>1087</ele>
        <time>2011-08-06T10:57:44Z</time>
      </trkpt>
      <trkpt lat="46.78363" lon="6.376">
        <ele>1087</ele>
        <time>2011-08-06T10:57:54Z</time>
      </trkpt>
      <trkpt lat="46.78355" lon="6.37599">
        <ele>1087</ele>
        <time>2011-08-06T10:58:05Z</time>
      </trkpt>
      <trkpt lat="46.78355" lon="6.37598">
        <ele>1087</ele>
        <time>2011-08-06T10:58:06Z</time>
      </trkpt>
      <trkpt lat="46.78346" lon="6.37598">
        <ele>1086</ele>
        <time>2011-08-06T10:58:10Z</time>
      </trkpt>
      <trkpt lat="46.78341" lon="6.37597">
        <ele>1085</ele>
        <time>2011-08-06T10:58:13Z</time>
      </trkpt>
      <trkpt lat="46.78312" lon="6.37594">
        <ele>1087</ele>
        <time>2011-08-06T10:58:25Z</time>
      </trkpt>
      <trkpt lat="46.78275" lon="6.37589">
        <ele>1088</ele>
        <time>2011-08-06T10:58:35Z</time>
      </trkpt>
      <trkpt lat="46.7824" lon="6.37579">
        <ele>1078</ele>
        <time>2011-08-06T10:58:44Z</time>
      </trkpt>
      <trkpt lat="46.78203" lon="6.37567">
        <ele>1073</ele>
        <time>2011-08-06T10:58:51Z</time>
      </trkpt>
      <trkpt lat="46.78154" lon="6.37558">
        <ele>1072</ele>
        <time>2011-08-06T10:59:00Z</time>
      </trkpt>
      <trkpt lat="46.78109" lon="6.37557">
        <ele>1069</ele>
        <time>2011-08-06T10:59:06Z</time>
      </trkpt>
      <trkpt lat="46.78052" lon="6.37565">
        <ele>1061</ele>
        <time>2011-08-06T10:59:14Z</time>
      </trkpt>
      <trkpt lat="46.78016" lon="6.37592">
        <ele>1064</ele>
        <time>2011-08-06T10:59:22Z</time>
      </trkpt>
      <trkpt lat="46.78007" lon="6.37605">
        <ele>1065</ele>
        <time>2011-08-06T10:59:26Z</time>
      </trkpt>
      <trkpt lat="46.77994" lon="6.37599">
        <ele>1057</ele>
        <time>2011-08-06T10:59:31Z</time>
      </trkpt>
      <trkpt lat="46.77969" lon="6.376">
        <ele>1056</ele>
        <time>2011-08-06T10:59:35Z</time>
      </trkpt>
      <trkpt lat="46.77917" lon="6.37589">
        <ele>1048</ele>
        <time>2011-08-06T10:59:44Z</time>
      </trkpt>
      <trkpt lat="46.77892" lon="6.37596">
        <ele>1045</ele>
        <time>2011-08-06T10:59:49Z</time>
      </trkpt>
      <trkpt lat="46.77809" lon="6.37663">
        <ele>1035</ele>
        <time>2011-08-06T11:00:02Z</time>
      </trkpt>
      <trkpt lat="46.77789" lon="6.37684">
        <ele>1042</ele>
        <time>2011-08-06T11:00:05Z</time>
      </trkpt>
      <trkpt lat="46.77746" lon="6.37707">
        <ele>1032</ele>
        <time>2011-08-06T11:00:10Z</time>
      </trkpt>
      <trkpt lat="46.777" lon="6.37738">
        <ele>1030</ele>
        <time>2011-08-06T11:00:15Z</time>
      </trkpt>
      <trkpt lat="46.77578" lon="6.37797">
        <ele>1016</ele>
        <time>2011-08-06T11:00:26Z</time>
      </trkpt>
      <trkpt lat="46.77519" lon="6.37824">
        <ele>1014</ele>
        <time>2011-08-06T11:00:32Z</time>
      </trkpt>
      <trkpt lat="46.77483" lon="6.37802">
        <ele>1007</ele>
        <time>2011-08-06T11:00:39Z</time>
      </trkpt>
      <trkpt lat="46.77464" lon="6.37712">
        <ele>1004</ele>
        <time>2011-08-06T11:00:50Z</time>
      </trkpt>
      <trkpt lat="46.7745" lon="6.37687">
        <ele>1005</ele>
        <time>2011-08-06T11:00:59Z</time>
      </trkpt>
      <trkpt lat="46.77449" lon="6.37686">
        <ele>1005</ele>
        <time>2011-08-06T11:01:11Z</time>
      </trkpt>
      <trkpt lat="46.77449" lon="6.37686">
        <ele>1005</ele>
        <time>2011-08-06T11:01:42Z</time>
      </trkpt>
      <trkpt lat="46.77455" lon="6.37691">
        <ele>1004</ele>
        <time>2011-08-06T11:02:09Z</time>
      </trkpt>
      <trkpt lat="46.77457" lon="6.37694">
        <ele>1004</ele>
        <time>2011-08-06T11:02:30Z</time>
      </trkpt>
      <trkpt lat="46.77458" lon="6.37694">
        <ele>1004</ele>
        <time>2011-08-06T11:02:46Z</time>
      </trkpt>
      <trkpt lat="46.77457" lon="6.37695">
        <ele>1004</ele>
        <time>2011-08-06T11:02:49Z</time>
      </trkpt>
      <trkpt lat="46.77456" lon="6.37691">
        <ele>1004</ele>
        <time>2011-08-06T11:03:06Z</time>
      </trkpt>
      <trkpt lat="46.77455" lon="6.37693">
        <ele>1004</ele>
        <time>2011-08-06T11:03:18Z</time>
      </trkpt>
      <trkpt lat="46.7742" lon="6.37697">
        <ele>1005</ele>
        <time>2011-08-06T11:03:32Z</time>
      </trkpt>
      <trkpt lat="46.77417" lon="6.37695">
        <ele>1005</ele>
        <time>2011-08-06T11:03:33Z</time>
      </trkpt>
      <trkpt lat="46.77419" lon="6.37672">
        <ele>1008</ele>
        <time>2011-08-06T11:03:39Z</time>
      </trkpt>
      <trkpt lat="46.77469" lon="6.3761">
        <ele>1012</ele>
        <time>2011-08-06T11:04:00Z</time>
      </trkpt>
      <trkpt lat="46.77504" lon="6.37547">
        <ele>1009</ele>
        <time>2011-08-06T11:04:20Z</time>
      </trkpt>
      <trkpt lat="46.77534" lon="6.3748">
        <ele>1012</ele>
        <time>2011-08-06T11:04:40Z</time>
      </trkpt>
      <trkpt lat="46.77532" lon="6.37431">
        <ele>1012</ele>
        <time>2011-08-06T11:04:53Z</time>
      </trkpt>
      <trkpt lat="46.77497" lon="6.37411">
        <ele>1016</ele>
        <time>2011-08-06T11:05:05Z</time>
      </trkpt>
      <trkpt lat="46.77455" lon="6.37401">
        <ele>1017</ele>
        <time>2011-08-06T11:05:18Z</time>
      </trkpt>
      <trkpt lat="46.77393" lon="6.37358">
        <ele>1024</ele>
        <time>2011-08-06T11:05:36Z</time>
      </trkpt>
      <trkpt lat="46.7731" lon="6.37302">
        <ele>1028</ele>
        <time>2011-08-06T11:06:00Z</time>
      </trkpt>
      <trkpt lat="46.77286" lon="6.37298">
        <ele>1029</ele>
        <time>2011-08-06T11:06:13Z</time>
      </trkpt>
      <trkpt lat="46.77285" lon="6.37298">
        <ele>1029</ele>
        <time>2011-08-06T11:06:18Z</time>
      </trkpt>
      <trkpt lat="46.77292" lon="6.37301">
        <ele>1029</ele>
        <time>2011-08-06T11:06:23Z</time>
      </trkpt>
      <trkpt lat="46.77296" lon="6.37302">
        <ele>1029</ele>
        <time>2011-08-06T11:06:25Z</time>
      </trkpt>
      <trkpt lat="46.77294" lon="6.37293">
        <ele>1028</ele>
        <time>2011-08-06T11:06:32Z</time>
      </trkpt>
      <trkpt lat="46.77241" lon="6.37276">
        <ele>1032</ele>
        <time>2011-08-06T11:06:48Z</time>
      </trkpt>
      <trkpt lat="46.77237" lon="6.37253">
        <ele>1030</ele>
        <time>2011-08-06T11:06:52Z</time>
      </trkpt>
      <trkpt lat="46.7725" lon="6.37157">
        <ele>1027</ele>
        <time>2011-08-06T11:07:07Z</time>
      </trkpt>
      <trkpt lat="46.77255" lon="6.37073">
        <ele>1023</ele>
        <time>2011-08-06T11:07:20Z</time>
      </trkpt>
      <trkpt lat="46.77228" lon="6.37015">
        <ele>1025</ele>
        <time>2011-08-06T11:07:34Z</time>
      </trkpt>
      <trkpt lat="46.77185" lon="6.36968">
        <ele>1021</ele>
        <time>2011-08-06T11:07:44Z</time>
      </trkpt>
      <trkpt lat="46.77173" lon="6.36945">
        <ele>1019</ele>
        <time>2011-08-06T11:07:48Z</time>
      </trkpt>
      <trkpt lat="46.77127" lon="6.36886">
        <ele>1022</ele>
        <time>2011-08-06T11:08:00Z</time>
      </trkpt>
      <trkpt lat="46.77072" lon="6.36828">
        <ele>1024</ele>
        <time>2011-08-06T11:08:15Z</time>
      </trkpt>
      <trkpt lat="46.77036" lon="6.36773">
        <ele>1028</ele>
        <time>2011-08-06T11:08:30Z</time>
      </trkpt>
      <trkpt lat="46.7699" lon="6.36704">
        <ele>1036</ele>
        <time>2011-08-06T11:08:50Z</time>
      </trkpt>
      <trkpt lat="46.76976" lon="6.36668">
        <ele>1037</ele>
        <time>2011-08-06T11:09:03Z</time>
      </trkpt>
      <trkpt lat="46.76966" lon="6.36657">
        <ele>1037</ele>
        <time>2011-08-06T11:09:11Z</time>
      </trkpt>
      <trkpt lat="46.76957" lon="6.36617">
        <ele>1037</ele>
        <time>2011-08-06T11:09:23Z</time>
      </trkpt>
      <trkpt lat="46.76951" lon="6.36548">
        <ele>1033</ele>
        <time>2011-08-06T11:09:37Z</time>
      </trkpt>
      <trkpt lat="46.76931" lon="6.36489">
        <ele>1033</ele>
        <time>2011-08-06T11:09:48Z</time>
      </trkpt>
      <trkpt lat="46.76897" lon="6.36457">
        <ele>1040</ele>
        <time>2011-08-06T11:10:03Z</time>
      </trkpt>
      <trkpt lat="46.76888" lon="6.36438">
        <ele>1041</ele>
        <time>2011-08-06T11:10:14Z</time>
      </trkpt>
      <trkpt lat="46.76886" lon="6.36442">
        <ele>1041</ele>
        <time>2011-08-06T11:10:56Z</time>
      </trkpt>
      <trkpt lat="46.76887" lon="6.36443">
        <ele>1041</ele>
        <time>2011-08-06T11:14:51Z</time>
      </trkpt>
      <trkpt lat="46.76879" lon="6.36467">
        <ele>1041</ele>
        <time>2011-08-06T11:15:02Z</time>
      </trkpt>
      <trkpt lat="46.76861" lon="6.36511">
        <ele>1042</ele>
        <time>2011-08-06T11:15:16Z</time>
      </trkpt>
      <trkpt lat="46.76845" lon="6.36563">
        <ele>1043</ele>
        <time>2011-08-06T11:15:31Z</time>
      </trkpt>
      <trkpt lat="46.76826" lon="6.3663">
        <ele>1048</ele>
        <time>2011-08-06T11:15:49Z</time>
      </trkpt>
      <trkpt lat="46.76803" lon="6.36686">
        <ele>1051</ele>
        <time>2011-08-06T11:16:02Z</time>
      </trkpt>
      <trkpt lat="46.76798" lon="6.36695">
        <ele>1052</ele>
        <time>2011-08-06T11:16:05Z</time>
      </trkpt>
      <trkpt lat="46.76791" lon="6.36703">
        <ele>1052</ele>
        <time>2011-08-06T11:16:09Z</time>
      </trkpt>
      <trkpt lat="46.76767" lon="6.36707">
        <ele>1054</ele>
        <time>2011-08-06T11:16:23Z</time>
      </trkpt>
      <trkpt lat="46.76766" lon="6.36707">
        <ele>1054</ele>
        <time>2011-08-06T11:16:39Z</time>
      </trkpt>
      <trkpt lat="46.76764" lon="6.36702">
        <ele>1053</ele>
        <time>2011-08-06T11:16:43Z</time>
      </trkpt>
      <trkpt lat="46.7673" lon="6.36667">
        <ele>1058</ele>
        <time>2011-08-06T11:17:01Z</time>
      </trkpt>
      <trkpt lat="46.76691" lon="6.36636">
        <ele>1057</ele>
        <time>2011-08-06T11:17:24Z</time>
      </trkpt>
      <trkpt lat="46.76656" lon="6.36609">
        <ele>1065</ele>
        <time>2011-08-06T11:17:46Z</time>
      </trkpt>
      <trkpt lat="46.76646" lon="6.36593">
        <ele>1065</ele>
        <time>2011-08-06T11:17:57Z</time>
      </trkpt>
      <trkpt lat="46.76639" lon="6.36582">
        <ele>1066</ele>
        <time>2011-08-06T11:18:08Z</time>
      </trkpt>
      <trkpt lat="46.76634" lon="6.36571">
        <ele>1067</ele>
        <time>2011-08-06T11:18:16Z</time>
      </trkpt>
      <trkpt lat="46.7662" lon="6.36552">
        <ele>1070</ele>
        <time>2011-08-06T11:18:28Z</time>
      </trkpt>
      <trkpt lat="46.76615" lon="6.36538">
        <ele>1071</ele>
        <time>2011-08-06T11:18:39Z</time>
      </trkpt>
      <trkpt lat="46.76602" lon="6.3653">
        <ele>1072</ele>
        <time>2011-08-06T11:18:45Z</time>
      </trkpt>
      <trkpt lat="46.7658" lon="6.36511">
        <ele>1084</ele>
        <time>2011-08-06T11:18:56Z</time>
      </trkpt>
      <trkpt lat="46.76578" lon="6.36509">
        <ele>1083</ele>
        <time>2011-08-06T11:18:59Z</time>
      </trkpt>
      <trkpt lat="46.76565" lon="6.36505">
        <ele>1085</ele>
        <time>2011-08-06T11:19:13Z</time>
      </trkpt>
      <trkpt lat="46.76556" lon="6.36502">
        <ele>1087</ele>
        <time>2011-08-06T11:19:21Z</time>
      </trkpt>
      <trkpt lat="46.76546" lon="6.36495">
        <ele>1089</ele>
        <time>2011-08-06T11:19:33Z</time>
      </trkpt>
      <trkpt lat="46.76528" lon="6.36488">
        <ele>1092</ele>
        <time>2011-08-06T11:19:47Z</time>
      </trkpt>
      <trkpt lat="46.76518" lon="6.36485">
        <ele>1093</ele>
        <time>2011-08-06T11:19:54Z</time>
      </trkpt>
      <trkpt lat="46.76497" lon="6.36479">
        <ele>1099</ele>
        <time>2011-08-06T11:20:07Z</time>
      </trkpt>
      <trkpt lat="46.76481" lon="6.36471">
        <ele>1099</ele>
        <time>2011-08-06T11:20:23Z</time>
      </trkpt>
      <trkpt lat="46.76479" lon="6.36469">
        <ele>1099</ele>
        <time>2011-08-06T11:20:25Z</time>
      </trkpt>
      <trkpt lat="46.76465" lon="6.36449">
        <ele>1099</ele>
        <time>2011-08-06T11:20:32Z</time>
      </trkpt>
      <trkpt lat="46.76464" lon="6.36445">
        <ele>1099</ele>
        <time>2011-08-06T11:20:34Z</time>
      </trkpt>
      <trkpt lat="46.76469" lon="6.36433">
        <ele>1099</ele>
        <time>2011-08-06T11:20:40Z</time>
      </trkpt>
      <trkpt lat="46.76458" lon="6.36398">
        <ele>1101</ele>
        <time>2011-08-06T11:20:51Z</time>
      </trkpt>
      <trkpt lat="46.7645" lon="6.3638">
        <ele>1101</ele>
        <time>2011-08-06T11:21:02Z</time>
      </trkpt>
      <trkpt lat="46.76432" lon="6.36403">
        <ele>1102</ele>
        <time>2011-08-06T11:21:17Z</time>
      </trkpt>
      <trkpt lat="46.76406" lon="6.36426">
        <ele>1106</ele>
        <time>2011-08-06T11:21:35Z</time>
      </trkpt>
      <trkpt lat="46.76383" lon="6.36445">
        <ele>1110</ele>
        <time>2011-08-06T11:21:52Z</time>
      </trkpt>
      <trkpt lat="46.76378" lon="6.36448">
        <ele>1110</ele>
        <time>2011-08-06T11:21:56Z</time>
      </trkpt>
      <trkpt lat="46.76345" lon="6.36483">
        <ele>1113</ele>
        <time>2011-08-06T11:22:17Z</time>
      </trkpt>
      <trkpt lat="46.76324" lon="6.36505">
        <ele>1122</ele>
        <time>2011-08-06T11:22:29Z</time>
      </trkpt>
      <trkpt lat="46.7632" lon="6.36518">
        <ele>1126</ele>
        <time>2011-08-06T11:22:35Z</time>
      </trkpt>
      <trkpt lat="46.7631" lon="6.36561">
        <ele>1127</ele>
        <time>2011-08-06T11:22:51Z</time>
      </trkpt>
      <trkpt lat="46.76297" lon="6.36587">
        <ele>1125</ele>
        <time>2011-08-06T11:23:01Z</time>
      </trkpt>
      <trkpt lat="46.76284" lon="6.36612">
        <ele>1126</ele>
        <time>2011-08-06T11:23:11Z</time>
      </trkpt>
      <trkpt lat="46.76257" lon="6.36653">
        <ele>1126</ele>
        <time>2011-08-06T11:23:31Z</time>
      </trkpt>
      <trkpt lat="46.76232" lon="6.36654">
        <ele>1138</ele>
        <time>2011-08-06T11:23:45Z</time>
      </trkpt>
      <trkpt lat="46.76211" lon="6.36663">
        <ele>1142</ele>
        <time>2011-08-06T11:23:56Z</time>
      </trkpt>
      <trkpt lat="46.76198" lon="6.36676">
        <ele>1134</ele>
        <time>2011-08-06T11:24:05Z</time>
      </trkpt>
      <trkpt lat="46.76185" lon="6.36689">
        <ele>1135</ele>
        <time>2011-08-06T11:24:15Z</time>
      </trkpt>
      <trkpt lat="46.7618" lon="6.36697">
        <ele>1134</ele>
        <time>2011-08-06T11:24:20Z</time>
      </trkpt>
      <trkpt lat="46.76161" lon="6.36705">
        <ele>1140</ele>
        <time>2011-08-06T11:24:31Z</time>
      </trkpt>
      <trkpt lat="46.76153" lon="6.36705">
        <ele>1141</ele>
        <time>2011-08-06T11:24:34Z</time>
      </trkpt>
      <trkpt lat="46.7613" lon="6.36709">
        <ele>1141</ele>
        <time>2011-08-06T11:24:47Z</time>
      </trkpt>
      <trkpt lat="46.76114" lon="6.36705">
        <ele>1141</ele>
        <time>2011-08-06T11:24:59Z</time>
      </trkpt>
      <trkpt lat="46.7611" lon="6.36701">
        <ele>1142</ele>
        <time>2011-08-06T11:25:04Z</time>
      </trkpt>
      <trkpt lat="46.76087" lon="6.3668">
        <ele>1147</ele>
        <time>2011-08-06T11:25:16Z</time>
      </trkpt>
      <trkpt lat="46.76042" lon="6.36654">
        <ele>1156</ele>
        <time>2011-08-06T11:25:37Z</time>
      </trkpt>
      <trkpt lat="46.76024" lon="6.36641">
        <ele>1156</ele>
        <time>2011-08-06T11:25:48Z</time>
      </trkpt>
      <trkpt lat="46.76009" lon="6.36631">
        <ele>1157</ele>
        <time>2011-08-06T11:25:57Z</time>
      </trkpt>
      <trkpt lat="46.75989" lon="6.36618">
        <ele>1150</ele>
        <time>2011-08-06T11:26:08Z</time>
      </trkpt>
      <trkpt lat="46.75976" lon="6.36605">
        <ele>1150</ele>
        <time>2011-08-06T11:26:15Z</time>
      </trkpt>
      <trkpt lat="46.7596" lon="6.36574">
        <ele>1155</ele>
        <time>2011-08-06T11:26:28Z</time>
      </trkpt>
      <trkpt lat="46.75955" lon="6.36548">
        <ele>1155</ele>
        <time>2011-08-06T11:26:38Z</time>
      </trkpt>
      <trkpt lat="46.75978" lon="6.36519">
        <ele>1160</ele>
        <time>2011-08-06T11:26:55Z</time>
      </trkpt>
      <trkpt lat="46.76004" lon="6.36518">
        <ele>1172</ele>
        <time>2011-08-06T11:27:09Z</time>
      </trkpt>
      <trkpt lat="46.76027" lon="6.36527">
        <ele>1173</ele>
        <time>2011-08-06T11:27:21Z</time>
      </trkpt>
      <trkpt lat="46.76055" lon="6.36539">
        <ele>1173</ele>
        <time>2011-08-06T11:27:35Z</time>
      </trkpt>
      <trkpt lat="46.76096" lon="6.36561">
        <ele>1175</ele>
        <time>2011-08-06T11:27:57Z</time>
      </trkpt>
      <trkpt lat="46.76111" lon="6.3658">
        <ele>1174</ele>
        <time>2011-08-06T11:28:11Z</time>
      </trkpt>
      <trkpt lat="46.76123" lon="6.36587">
        <ele>1163</ele>
        <time>2011-08-06T11:28:17Z</time>
      </trkpt>
      <trkpt lat="46.76137" lon="6.36588">
        <ele>1164</ele>
        <time>2011-08-06T11:28:25Z</time>
      </trkpt>
      <trkpt lat="46.76153" lon="6.36585">
        <ele>1166</ele>
        <time>2011-08-06T11:28:32Z</time>
      </trkpt>
      <trkpt lat="46.76161" lon="6.36584">
        <ele>1169</ele>
        <time>2011-08-06T11:28:36Z</time>
      </trkpt>
      <trkpt lat="46.76188" lon="6.36544">
        <ele>1167</ele>
        <time>2011-08-06T11:28:56Z</time>
      </trkpt>
      <trkpt lat="46.76194" lon="6.36533">
        <ele>1167</ele>
        <time>2011-08-06T11:29:01Z</time>
      </trkpt>
      <trkpt lat="46.76207" lon="6.36498">
        <ele>1174</ele>
        <time>2011-08-06T11:29:15Z</time>
      </trkpt>
      <trkpt lat="46.76208" lon="6.36492">
        <ele>1174</ele>
        <time>2011-08-06T11:29:18Z</time>
      </trkpt>
      <trkpt lat="46.76207" lon="6.36487">
        <ele>1174</ele>
        <time>2011-08-06T11:29:20Z</time>
      </trkpt>
      <trkpt lat="46.76205" lon="6.36476">
        <ele>1175</ele>
        <time>2011-08-06T11:29:24Z</time>
      </trkpt>
      <trkpt lat="46.76206" lon="6.36454">
        <ele>1176</ele>
        <time>2011-08-06T11:29:33Z</time>
      </trkpt>
      <trkpt lat="46.76202" lon="6.36441">
        <ele>1178</ele>
        <time>2011-08-06T11:29:37Z</time>
      </trkpt>
      <trkpt lat="46.76201" lon="6.36414">
        <ele>1183</ele>
        <time>2011-08-06T11:29:47Z</time>
      </trkpt>
      <trkpt lat="46.76202" lon="6.364">
        <ele>1182</ele>
        <time>2011-08-06T11:29:52Z</time>
      </trkpt>
      <trkpt lat="46.76203" lon="6.36395">
        <ele>1182</ele>
        <time>2011-08-06T11:29:54Z</time>
      </trkpt>
      <trkpt lat="46.76205" lon="6.36375">
        <ele>1181</ele>
        <time>2011-08-06T11:30:02Z</time>
      </trkpt>
      <trkpt lat="46.76203" lon="6.36364">
        <ele>1182</ele>
        <time>2011-08-06T11:30:06Z</time>
      </trkpt>
      <trkpt lat="46.76203" lon="6.36354">
        <ele>1182</ele>
        <time>2011-08-06T11:30:10Z</time>
      </trkpt>
      <trkpt lat="46.762" lon="6.36334">
        <ele>1183</ele>
        <time>2011-08-06T11:30:18Z</time>
      </trkpt>
      <trkpt lat="46.76196" lon="6.36322">
        <ele>1182</ele>
        <time>2011-08-06T11:30:23Z</time>
      </trkpt>
      <trkpt lat="46.76177" lon="6.36275">
        <ele>1183</ele>
        <time>2011-08-06T11:30:43Z</time>
      </trkpt>
      <trkpt lat="46.76172" lon="6.3626">
        <ele>1186</ele>
        <time>2011-08-06T11:30:49Z</time>
      </trkpt>
      <trkpt lat="46.76149" lon="6.36212">
        <ele>1190</ele>
        <time>2011-08-06T11:31:11Z</time>
      </trkpt>
      <trkpt lat="46.7613" lon="6.36164">
        <ele>1188</ele>
        <time>2011-08-06T11:31:33Z</time>
      </trkpt>
      <trkpt lat="46.76112" lon="6.3612">
        <ele>1190</ele>
        <time>2011-08-06T11:31:51Z</time>
      </trkpt>
      <trkpt lat="46.76107" lon="6.36104">
        <ele>1191</ele>
        <time>2011-08-06T11:31:57Z</time>
      </trkpt>
      <trkpt lat="46.76113" lon="6.36047">
        <ele>1195</ele>
        <time>2011-08-06T11:32:19Z</time>
      </trkpt>
      <trkpt lat="46.7612" lon="6.35997">
        <ele>1202</ele>
        <time>2011-08-06T11:32:37Z</time>
      </trkpt>
      <trkpt lat="46.76118" lon="6.35961">
        <ele>1203</ele>
        <time>2011-08-06T11:32:51Z</time>
      </trkpt>
      <trkpt lat="46.76117" lon="6.35953">
        <ele>1204</ele>
        <time>2011-08-06T11:32:55Z</time>
      </trkpt>
      <trkpt lat="46.76113" lon="6.35909">
        <ele>1211</ele>
        <time>2011-08-06T11:33:11Z</time>
      </trkpt>
      <trkpt lat="46.7611" lon="6.35853">
        <ele>1214</ele>
        <time>2011-08-06T11:33:31Z</time>
      </trkpt>
      <trkpt lat="46.76107" lon="6.35836">
        <ele>1216</ele>
        <time>2011-08-06T11:33:37Z</time>
      </trkpt>
      <trkpt lat="46.76105" lon="6.35802">
        <ele>1215</ele>
        <time>2011-08-06T11:33:50Z</time>
      </trkpt>
      <trkpt lat="46.76102" lon="6.35791">
        <ele>1215</ele>
        <time>2011-08-06T11:33:54Z</time>
      </trkpt>
      <trkpt lat="46.76095" lon="6.35746">
        <ele>1223</ele>
        <time>2011-08-06T11:34:10Z</time>
      </trkpt>
      <trkpt lat="46.76088" lon="6.35693">
        <ele>1216</ele>
        <time>2011-08-06T11:34:29Z</time>
      </trkpt>
      <trkpt lat="46.76081" lon="6.35635">
        <ele>1236</ele>
        <time>2011-08-06T11:34:49Z</time>
      </trkpt>
      <trkpt lat="46.7606" lon="6.35577">
        <ele>1231</ele>
        <time>2011-08-06T11:35:10Z</time>
      </trkpt>
      <trkpt lat="46.76039" lon="6.3553">
        <ele>1235</ele>
        <time>2011-08-06T11:35:29Z</time>
      </trkpt>
      <trkpt lat="46.76025" lon="6.35494">
        <ele>1234</ele>
        <time>2011-08-06T11:35:46Z</time>
      </trkpt>
      <trkpt lat="46.76022" lon="6.35487">
        <ele>1234</ele>
        <time>2011-08-06T11:35:50Z</time>
      </trkpt>
      <trkpt lat="46.76016" lon="6.35477">
        <ele>1234</ele>
        <time>2011-08-06T11:35:55Z</time>
      </trkpt>
      <trkpt lat="46.76003" lon="6.35452">
        <ele>1233</ele>
        <time>2011-08-06T11:36:07Z</time>
      </trkpt>
      <trkpt lat="46.75997" lon="6.35443">
        <ele>1252</ele>
        <time>2011-08-06T11:36:11Z</time>
      </trkpt>
      <trkpt lat="46.75981" lon="6.35424">
        <ele>1251</ele>
        <time>2011-08-06T11:36:20Z</time>
      </trkpt>
      <trkpt lat="46.75972" lon="6.35417">
        <ele>1253</ele>
        <time>2011-08-06T11:36:26Z</time>
      </trkpt>
      <trkpt lat="46.75958" lon="6.35402">
        <ele>1250</ele>
        <time>2011-08-06T11:36:35Z</time>
      </trkpt>
      <trkpt lat="46.75932" lon="6.35376">
        <ele>1251</ele>
        <time>2011-08-06T11:36:54Z</time>
      </trkpt>
      <trkpt lat="46.75916" lon="6.35359">
        <ele>1264</ele>
        <time>2011-08-06T11:37:04Z</time>
      </trkpt>
      <trkpt lat="46.75904" lon="6.35346">
        <ele>1262</ele>
        <time>2011-08-06T11:37:15Z</time>
      </trkpt>
      <trkpt lat="46.75888" lon="6.35336">
        <ele>1265</ele>
        <time>2011-08-06T11:37:26Z</time>
      </trkpt>
      <trkpt lat="46.75872" lon="6.35323">
        <ele>1258</ele>
        <time>2011-08-06T11:37:35Z</time>
      </trkpt>
      <trkpt lat="46.7585" lon="6.35311">
        <ele>1261</ele>
        <time>2011-08-06T11:37:47Z</time>
      </trkpt>
      <trkpt lat="46.75844" lon="6.35309">
        <ele>1261</ele>
        <time>2011-08-06T11:37:52Z</time>
      </trkpt>
      <trkpt lat="46.7583" lon="6.35298">
        <ele>1274</ele>
        <time>2011-08-06T11:37:58Z</time>
      </trkpt>
      <trkpt lat="46.75811" lon="6.35287">
        <ele>1274</ele>
        <time>2011-08-06T11:38:11Z</time>
      </trkpt>
      <trkpt lat="46.75798" lon="6.3528">
        <ele>1275</ele>
        <time>2011-08-06T11:38:22Z</time>
      </trkpt>
      <trkpt lat="46.7579" lon="6.35274">
        <ele>1276</ele>
        <time>2011-08-06T11:38:28Z</time>
      </trkpt>
      <trkpt lat="46.75779" lon="6.35266">
        <ele>1277</ele>
        <time>2011-08-06T11:38:37Z</time>
      </trkpt>
      <trkpt lat="46.75774" lon="6.35264">
        <ele>1277</ele>
        <time>2011-08-06T11:38:39Z</time>
      </trkpt>
      <trkpt lat="46.75754" lon="6.35246">
        <ele>1277</ele>
        <time>2011-08-06T11:38:50Z</time>
      </trkpt>
      <trkpt lat="46.75728" lon="6.3523">
        <ele>1281</ele>
        <time>2011-08-06T11:39:05Z</time>
      </trkpt>
      <trkpt lat="46.75708" lon="6.35221">
        <ele>1282</ele>
        <time>2011-08-06T11:39:17Z</time>
      </trkpt>
      <trkpt lat="46.75706" lon="6.35221">
        <ele>1282</ele>
        <time>2011-08-06T11:39:19Z</time>
      </trkpt>
      <trkpt lat="46.75684" lon="6.35212">
        <ele>1284</ele>
        <time>2011-08-06T11:39:30Z</time>
      </trkpt>
      <trkpt lat="46.75677" lon="6.35212">
        <ele>1284</ele>
        <time>2011-08-06T11:39:34Z</time>
      </trkpt>
      <trkpt lat="46.75673" lon="6.35212">
        <ele>1285</ele>
        <time>2011-08-06T11:39:37Z</time>
      </trkpt>
      <trkpt lat="46.75643" lon="6.35208">
        <ele>1294</ele>
        <time>2011-08-06T11:39:52Z</time>
      </trkpt>
      <trkpt lat="46.75639" lon="6.35204">
        <ele>1294</ele>
        <time>2011-08-06T11:39:57Z</time>
      </trkpt>
      <trkpt lat="46.75637" lon="6.35193">
        <ele>1293</ele>
        <time>2011-08-06T11:40:06Z</time>
      </trkpt>
      <trkpt lat="46.75636" lon="6.35188">
        <ele>1293</ele>
        <time>2011-08-06T11:40:09Z</time>
      </trkpt>
      <trkpt lat="46.75631" lon="6.35179">
        <ele>1293</ele>
        <time>2011-08-06T11:40:13Z</time>
      </trkpt>
      <trkpt lat="46.75622" lon="6.35162">
        <ele>1288</ele>
        <time>2011-08-06T11:40:20Z</time>
      </trkpt>
      <trkpt lat="46.75602" lon="6.35135">
        <ele>1288</ele>
        <time>2011-08-06T11:40:31Z</time>
      </trkpt>
      <trkpt lat="46.75598" lon="6.3513">
        <ele>1288</ele>
        <time>2011-08-06T11:40:34Z</time>
      </trkpt>
      <trkpt lat="46.75589" lon="6.35117">
        <ele>1288</ele>
        <time>2011-08-06T11:40:43Z</time>
      </trkpt>
      <trkpt lat="46.75578" lon="6.35104">
        <ele>1297</ele>
        <time>2011-08-06T11:40:50Z</time>
      </trkpt>
      <trkpt lat="46.75564" lon="6.35082">
        <ele>1294</ele>
        <time>2011-08-06T11:41:01Z</time>
      </trkpt>
      <trkpt lat="46.75553" lon="6.35063">
        <ele>1295</ele>
        <time>2011-08-06T11:41:13Z</time>
      </trkpt>
      <trkpt lat="46.75539" lon="6.35048">
        <ele>1295</ele>
        <time>2011-08-06T11:41:23Z</time>
      </trkpt>
      <trkpt lat="46.75538" lon="6.35047">
        <ele>1295</ele>
        <time>2011-08-06T11:41:24Z</time>
      </trkpt>
      <trkpt lat="46.75523" lon="6.3504">
        <ele>1296</ele>
        <time>2011-08-06T11:41:31Z</time>
      </trkpt>
      <trkpt lat="46.75512" lon="6.35044">
        <ele>1297</ele>
        <time>2011-08-06T11:41:39Z</time>
      </trkpt>
      <trkpt lat="46.755" lon="6.35048">
        <ele>1307</ele>
        <time>2011-08-06T11:41:47Z</time>
      </trkpt>
      <trkpt lat="46.75492" lon="6.35053">
        <ele>1308</ele>
        <time>2011-08-06T11:41:53Z</time>
      </trkpt>
      <trkpt lat="46.75466" lon="6.35061">
        <ele>1310</ele>
        <time>2011-08-06T11:42:06Z</time>
      </trkpt>
      <trkpt lat="46.75453" lon="6.35057">
        <ele>1310</ele>
        <time>2011-08-06T11:42:13Z</time>
      </trkpt>
      <trkpt lat="46.75434" lon="6.35039">
        <ele>1311</ele>
        <time>2011-08-06T11:42:27Z</time>
      </trkpt>
      <trkpt lat="46.75425" lon="6.35028">
        <ele>1311</ele>
        <time>2011-08-06T11:42:33Z</time>
      </trkpt>
      <trkpt lat="46.75415" lon="6.35005">
        <ele>1317</ele>
        <time>2011-08-06T11:42:43Z</time>
      </trkpt>
      <trkpt lat="46.75416" lon="6.34999">
        <ele>1314</ele>
        <time>2011-08-06T11:42:46Z</time>
      </trkpt>
      <trkpt lat="46.75409" lon="6.34978">
        <ele>1318</ele>
        <time>2011-08-06T11:42:53Z</time>
      </trkpt>
      <trkpt lat="46.75408" lon="6.34962">
        <ele>1319</ele>
        <time>2011-08-06T11:43:00Z</time>
      </trkpt>
      <trkpt lat="46.754" lon="6.34939">
        <ele>1318</ele>
        <time>2011-08-06T11:43:09Z</time>
      </trkpt>
      <trkpt lat="46.75399" lon="6.34929">
        <ele>1317</ele>
        <time>2011-08-06T11:43:14Z</time>
      </trkpt>
      <trkpt lat="46.75391" lon="6.34907">
        <ele>1314</ele>
        <time>2011-08-06T11:43:25Z</time>
      </trkpt>
      <trkpt lat="46.75362" lon="6.3487">
        <ele>1317</ele>
        <time>2011-08-06T11:43:42Z</time>
      </trkpt>
      <trkpt lat="46.75338" lon="6.34849">
        <ele>1320</ele>
        <time>2011-08-06T11:43:53Z</time>
      </trkpt>
      <trkpt lat="46.75319" lon="6.34827">
        <ele>1324</ele>
        <time>2011-08-06T11:44:07Z</time>
      </trkpt>
      <trkpt lat="46.75295" lon="6.34839">
        <ele>1333</ele>
        <time>2011-08-06T11:44:22Z</time>
      </trkpt>
      <trkpt lat="46.75293" lon="6.34843">
        <ele>1333</ele>
        <time>2011-08-06T11:44:24Z</time>
      </trkpt>
      <trkpt lat="46.75297" lon="6.34856">
        <ele>1333</ele>
        <time>2011-08-06T11:44:30Z</time>
      </trkpt>
      <trkpt lat="46.75314" lon="6.34881">
        <ele>1333</ele>
        <time>2011-08-06T11:44:44Z</time>
      </trkpt>
      <trkpt lat="46.75328" lon="6.34903">
        <ele>1332</ele>
        <time>2011-08-06T11:44:53Z</time>
      </trkpt>
      <trkpt lat="46.75339" lon="6.3494">
        <ele>1326</ele>
        <time>2011-08-06T11:45:05Z</time>
      </trkpt>
      <trkpt lat="46.75338" lon="6.34943">
        <ele>1326</ele>
        <time>2011-08-06T11:45:06Z</time>
      </trkpt>
      <trkpt lat="46.75339" lon="6.3498">
        <ele>1329</ele>
        <time>2011-08-06T11:45:19Z</time>
      </trkpt>
      <trkpt lat="46.75344" lon="6.34996">
        <ele>1331</ele>
        <time>2011-08-06T11:45:26Z</time>
      </trkpt>
      <trkpt lat="46.75346" lon="6.35004">
        <ele>1333</ele>
        <time>2011-08-06T11:45:29Z</time>
      </trkpt>
      <trkpt lat="46.75348" lon="6.35027">
        <ele>1332</ele>
        <time>2011-08-06T11:45:38Z</time>
      </trkpt>
      <trkpt lat="46.75345" lon="6.35049">
        <ele>1333</ele>
        <time>2011-08-06T11:45:48Z</time>
      </trkpt>
      <trkpt lat="46.75341" lon="6.35059">
        <ele>1335</ele>
        <time>2011-08-06T11:45:52Z</time>
      </trkpt>
      <trkpt lat="46.75339" lon="6.35071">
        <ele>1339</ele>
        <time>2011-08-06T11:45:56Z</time>
      </trkpt>
      <trkpt lat="46.7534" lon="6.35078">
        <ele>1341</ele>
        <time>2011-08-06T11:45:59Z</time>
      </trkpt>
      <trkpt lat="46.75339" lon="6.35084">
        <ele>1344</ele>
        <time>2011-08-06T11:46:01Z</time>
      </trkpt>
      <trkpt lat="46.75347" lon="6.3511">
        <ele>1340</ele>
        <time>2011-08-06T11:46:13Z</time>
      </trkpt>
      <trkpt lat="46.75351" lon="6.35122">
        <ele>1340</ele>
        <time>2011-08-06T11:46:18Z</time>
      </trkpt>
      <trkpt lat="46.75352" lon="6.35128">
        <ele>1340</ele>
        <time>2011-08-06T11:46:21Z</time>
      </trkpt>
      <trkpt lat="46.75355" lon="6.35145">
        <ele>1341</ele>
        <time>2011-08-06T11:46:28Z</time>
      </trkpt>
      <trkpt lat="46.75354" lon="6.35149">
        <ele>1342</ele>
        <time>2011-08-06T11:46:30Z</time>
      </trkpt>
      <trkpt lat="46.75361" lon="6.35203">
        <ele>1344</ele>
        <time>2011-08-06T11:46:49Z</time>
      </trkpt>
      <trkpt lat="46.75356" lon="6.3525">
        <ele>1349</ele>
        <time>2011-08-06T11:47:06Z</time>
      </trkpt>
      <trkpt lat="46.75348" lon="6.35275">
        <ele>1349</ele>
        <time>2011-08-06T11:47:16Z</time>
      </trkpt>
      <trkpt lat="46.75346" lon="6.35282">
        <ele>1349</ele>
        <time>2011-08-06T11:47:19Z</time>
      </trkpt>
      <trkpt lat="46.75345" lon="6.35321">
        <ele>1352</ele>
        <time>2011-08-06T11:47:33Z</time>
      </trkpt>
      <trkpt lat="46.75358" lon="6.35361">
        <ele>1348</ele>
        <time>2011-08-06T11:47:50Z</time>
      </trkpt>
      <trkpt lat="46.7536" lon="6.35373">
        <ele>1348</ele>
        <time>2011-08-06T11:47:54Z</time>
      </trkpt>
      <trkpt lat="46.75338" lon="6.35415">
        <ele>1356</ele>
        <time>2011-08-06T11:48:10Z</time>
      </trkpt>
      <trkpt lat="46.75297" lon="6.35427">
        <ele>1365</ele>
        <time>2011-08-06T11:48:30Z</time>
      </trkpt>
      <trkpt lat="46.7528" lon="6.3544">
        <ele>1367</ele>
        <time>2011-08-06T11:48:45Z</time>
      </trkpt>
      <trkpt lat="46.75268" lon="6.35454">
        <ele>1368</ele>
        <time>2011-08-06T11:48:56Z</time>
      </trkpt>
      <trkpt lat="46.75265" lon="6.3546">
        <ele>1368</ele>
        <time>2011-08-06T11:49:00Z</time>
      </trkpt>
      <trkpt lat="46.75252" lon="6.35475">
        <ele>1370</ele>
        <time>2011-08-06T11:49:11Z</time>
      </trkpt>
      <trkpt lat="46.75246" lon="6.35488">
        <ele>1377</ele>
        <time>2011-08-06T11:49:18Z</time>
      </trkpt>
      <trkpt lat="46.75242" lon="6.35496">
        <ele>1376</ele>
        <time>2011-08-06T11:49:23Z</time>
      </trkpt>
      <trkpt lat="46.75232" lon="6.35506">
        <ele>1377</ele>
        <time>2011-08-06T11:49:33Z</time>
      </trkpt>
      <trkpt lat="46.75226" lon="6.35504">
        <ele>1378</ele>
        <time>2011-08-06T11:49:37Z</time>
      </trkpt>
      <trkpt lat="46.75222" lon="6.35497">
        <ele>1380</ele>
        <time>2011-08-06T11:49:41Z</time>
      </trkpt>
      <trkpt lat="46.75214" lon="6.35455">
        <ele>1381</ele>
        <time>2011-08-06T11:50:00Z</time>
      </trkpt>
      <trkpt lat="46.75211" lon="6.35403">
        <ele>1384</ele>
        <time>2011-08-06T11:50:24Z</time>
      </trkpt>
      <trkpt lat="46.75206" lon="6.35346">
        <ele>1387</ele>
        <time>2011-08-06T11:50:49Z</time>
      </trkpt>
      <trkpt lat="46.75192" lon="6.35321">
        <ele>1390</ele>
        <time>2011-08-06T11:51:04Z</time>
      </trkpt>
      <trkpt lat="46.75177" lon="6.35299">
        <ele>1390</ele>
        <time>2011-08-06T11:51:19Z</time>
      </trkpt>
      <trkpt lat="46.75163" lon="6.35277">
        <ele>1399</ele>
        <time>2011-08-06T11:51:33Z</time>
      </trkpt>
      <trkpt lat="46.75151" lon="6.35259">
        <ele>1398</ele>
        <time>2011-08-06T11:51:43Z</time>
      </trkpt>
      <trkpt lat="46.75139" lon="6.35222">
        <ele>1396</ele>
        <time>2011-08-06T11:51:58Z</time>
      </trkpt>
      <trkpt lat="46.75129" lon="6.35202">
        <ele>1396</ele>
        <time>2011-08-06T11:52:09Z</time>
      </trkpt>
      <trkpt lat="46.75105" lon="6.35206">
        <ele>1398</ele>
        <time>2011-08-06T11:52:23Z</time>
      </trkpt>
      <trkpt lat="46.75097" lon="6.35227">
        <ele>1400</ele>
        <time>2011-08-06T11:52:33Z</time>
      </trkpt>
      <trkpt lat="46.75103" lon="6.35269">
        <ele>1404</ele>
        <time>2011-08-06T11:52:55Z</time>
      </trkpt>
      <trkpt lat="46.75105" lon="6.35274">
        <ele>1404</ele>
        <time>2011-08-06T11:53:07Z</time>
      </trkpt>
      <trkpt lat="46.75105" lon="6.35275">
        <ele>1404</ele>
        <time>2011-08-06T11:53:10Z</time>
      </trkpt>
      <trkpt lat="46.75103" lon="6.35294">
        <ele>1404</ele>
        <time>2011-08-06T11:53:25Z</time>
      </trkpt>
      <trkpt lat="46.75105" lon="6.35328">
        <ele>1406</ele>
        <time>2011-08-06T11:53:47Z</time>
      </trkpt>
      <trkpt lat="46.75108" lon="6.35333">
        <ele>1406</ele>
        <time>2011-08-06T11:54:07Z</time>
      </trkpt>
      <trkpt lat="46.75104" lon="6.35345">
        <ele>1406</ele>
        <time>2011-08-06T11:54:50Z</time>
      </trkpt>
      <trkpt lat="46.75095" lon="6.35359">
        <ele>1406</ele>
        <time>2011-08-06T11:55:07Z</time>
      </trkpt>
      <trkpt lat="46.75094" lon="6.35361">
        <ele>1406</ele>
        <time>2011-08-06T11:55:12Z</time>
      </trkpt>
      <trkpt lat="46.75094" lon="6.35376">
        <ele>1405</ele>
        <time>2011-08-06T11:55:27Z</time>
      </trkpt>
      <trkpt lat="46.75094" lon="6.354">
        <ele>1406</ele>
        <time>2011-08-06T11:55:41Z</time>
      </trkpt>
      <trkpt lat="46.75094" lon="6.35403">
        <ele>1406</ele>
        <time>2011-08-06T11:55:55Z</time>
      </trkpt>
      <trkpt lat="46.75094" lon="6.354">
        <ele>1406</ele>
        <time>2011-08-06T11:56:14Z</time>
      </trkpt>
      <trkpt lat="46.75094" lon="6.35399">
        <ele>1406</ele>
        <time>2011-08-06T11:58:45Z</time>
      </trkpt>
      <trkpt lat="46.75093" lon="6.35397">
        <ele>1406</ele>
        <time>2011-08-06T11:59:07Z</time>
      </trkpt>
      <trkpt lat="46.75095" lon="6.35397">
        <ele>1406</ele>
        <time>2011-08-06T12:03:59Z</time>
      </trkpt>
      <trkpt lat="46.75096" lon="6.35399">
        <ele>1406</ele>
        <time>2011-08-06T12:04:09Z</time>
      </trkpt>
      <trkpt lat="46.75093" lon="6.35405">
        <ele>1406</ele>
        <time>2011-08-06T12:04:20Z</time>
      </trkpt>
      <trkpt lat="46.75088" lon="6.35411">
        <ele>1408</ele>
        <time>2011-08-06T12:04:26Z</time>
      </trkpt>
      <trkpt lat="46.75085" lon="6.35419">
        <ele>1408</ele>
        <time>2011-08-06T12:04:37Z</time>
      </trkpt>
      <trkpt lat="46.75062" lon="6.35451">
        <ele>1398</ele>
        <time>2011-08-06T12:04:49Z</time>
      </trkpt>
      <trkpt lat="46.75039" lon="6.35478">
        <ele>1395</ele>
        <time>2011-08-06T12:05:00Z</time>
      </trkpt>
      <trkpt lat="46.75037" lon="6.35492">
        <ele>1394</ele>
        <time>2011-08-06T12:05:19Z</time>
      </trkpt>
      <trkpt lat="46.75037" lon="6.3549">
        <ele>1394</ele>
        <time>2011-08-06T12:05:21Z</time>
      </trkpt>
      <trkpt lat="46.75037" lon="6.35481">
        <ele>1394</ele>
        <time>2011-08-06T12:05:27Z</time>
      </trkpt>
      <trkpt lat="46.75038" lon="6.35468">
        <ele>1395</ele>
        <time>2011-08-06T12:05:45Z</time>
      </trkpt>
      <trkpt lat="46.75037" lon="6.35464">
        <ele>1395</ele>
        <time>2011-08-06T12:05:49Z</time>
      </trkpt>
      <trkpt lat="46.75031" lon="6.35454">
        <ele>1395</ele>
        <time>2011-08-06T12:06:06Z</time>
      </trkpt>
      <trkpt lat="46.75027" lon="6.35453">
        <ele>1395</ele>
        <time>2011-08-06T12:06:17Z</time>
      </trkpt>
      <trkpt lat="46.75024" lon="6.35462">
        <ele>1394</ele>
        <time>2011-08-06T12:06:24Z</time>
      </trkpt>
      <trkpt lat="46.75021" lon="6.35484">
        <ele>1392</ele>
        <time>2011-08-06T12:06:33Z</time>
      </trkpt>
      <trkpt lat="46.75018" lon="6.3549">
        <ele>1391</ele>
        <time>2011-08-06T12:06:36Z</time>
      </trkpt>
      <trkpt lat="46.75013" lon="6.35496">
        <ele>1390</ele>
        <time>2011-08-06T12:06:40Z</time>
      </trkpt>
      <trkpt lat="46.75002" lon="6.35518">
        <ele>1385</ele>
        <time>2011-08-06T12:06:50Z</time>
      </trkpt>
      <trkpt lat="46.74992" lon="6.35525">
        <ele>1377</ele>
        <time>2011-08-06T12:06:54Z</time>
      </trkpt>
      <trkpt lat="46.74985" lon="6.35537">
        <ele>1375</ele>
        <time>2011-08-06T12:06:58Z</time>
      </trkpt>
      <trkpt lat="46.74983" lon="6.35545">
        <ele>1374</ele>
        <time>2011-08-06T12:07:00Z</time>
      </trkpt>
      <trkpt lat="46.74964" lon="6.35569">
        <ele>1371</ele>
        <time>2011-08-06T12:07:09Z</time>
      </trkpt>
      <trkpt lat="46.74959" lon="6.35576">
        <ele>1370</ele>
        <time>2011-08-06T12:07:11Z</time>
      </trkpt>
      <trkpt lat="46.74942" lon="6.3559">
        <ele>1364</ele>
        <time>2011-08-06T12:07:19Z</time>
      </trkpt>
      <trkpt lat="46.74924" lon="6.35595">
        <ele>1362</ele>
        <time>2011-08-06T12:07:23Z</time>
      </trkpt>
      <trkpt lat="46.74898" lon="6.35597">
        <ele>1356</ele>
        <time>2011-08-06T12:07:29Z</time>
      </trkpt>
      <trkpt lat="46.74878" lon="6.356">
        <ele>1354</ele>
        <time>2011-08-06T12:07:33Z</time>
      </trkpt>
      <trkpt lat="46.74844" lon="6.35612">
        <ele>1352</ele>
        <time>2011-08-06T12:07:39Z</time>
      </trkpt>
      <trkpt lat="46.74812" lon="6.35621">
        <ele>1346</ele>
        <time>2011-08-06T12:07:48Z</time>
      </trkpt>
      <trkpt lat="46.74807" lon="6.35622">
        <ele>1346</ele>
        <time>2011-08-06T12:07:49Z</time>
      </trkpt>
      <trkpt lat="46.74799" lon="6.35626">
        <ele>1346</ele>
        <time>2011-08-06T12:07:51Z</time>
      </trkpt>
      <trkpt lat="46.74792" lon="6.35627">
        <ele>1345</ele>
        <time>2011-08-06T12:07:55Z</time>
      </trkpt>
      <trkpt lat="46.74753" lon="6.35643">
        <ele>1345</ele>
        <time>2011-08-06T12:08:07Z</time>
      </trkpt>
      <trkpt lat="46.74747" lon="6.35646">
        <ele>1343</ele>
        <time>2011-08-06T12:08:10Z</time>
      </trkpt>
      <trkpt lat="46.74722" lon="6.35656">
        <ele>1344</ele>
        <time>2011-08-06T12:08:24Z</time>
      </trkpt>
      <trkpt lat="46.74717" lon="6.35658">
        <ele>1344</ele>
        <time>2011-08-06T12:08:28Z</time>
      </trkpt>
      <trkpt lat="46.74697" lon="6.35675">
        <ele>1349</ele>
        <time>2011-08-06T12:08:45Z</time>
      </trkpt>
      <trkpt lat="46.74671" lon="6.35682">
        <ele>1350</ele>
        <time>2011-08-06T12:09:04Z</time>
      </trkpt>
      <trkpt lat="46.74667" lon="6.35681">
        <ele>1354</ele>
        <time>2011-08-06T12:09:08Z</time>
      </trkpt>
      <trkpt lat="46.74641" lon="6.35691">
        <ele>1358</ele>
        <time>2011-08-06T12:09:27Z</time>
      </trkpt>
      <trkpt lat="46.74633" lon="6.35694">
        <ele>1359</ele>
        <time>2011-08-06T12:09:41Z</time>
      </trkpt>
      <trkpt lat="46.74625" lon="6.35697">
        <ele>1360</ele>
        <time>2011-08-06T12:09:58Z</time>
      </trkpt>
      <trkpt lat="46.74619" lon="6.35697">
        <ele>1360</ele>
        <time>2011-08-06T12:10:05Z</time>
      </trkpt>
      <trkpt lat="46.74601" lon="6.35702">
        <ele>1362</ele>
        <time>2011-08-06T12:10:24Z</time>
      </trkpt>
      <trkpt lat="46.74597" lon="6.35702">
        <ele>1362</ele>
        <time>2011-08-06T12:10:33Z</time>
      </trkpt>
      <trkpt lat="46.74573" lon="6.35707">
        <ele>1371</ele>
        <time>2011-08-06T12:10:56Z</time>
      </trkpt>
      <trkpt lat="46.74569" lon="6.35706">
        <ele>1371</ele>
        <time>2011-08-06T12:11:00Z</time>
      </trkpt>
      <trkpt lat="46.74562" lon="6.35707">
        <ele>1371</ele>
        <time>2011-08-06T12:11:07Z</time>
      </trkpt>
      <trkpt lat="46.74558" lon="6.35708">
        <ele>1372</ele>
        <time>2011-08-06T12:11:11Z</time>
      </trkpt>
      <trkpt lat="46.74544" lon="6.35703">
        <ele>1372</ele>
        <time>2011-08-06T12:11:27Z</time>
      </trkpt>
      <trkpt lat="46.74518" lon="6.35684">
        <ele>1373</ele>
        <time>2011-08-06T12:11:43Z</time>
      </trkpt>
      <trkpt lat="46.7449" lon="6.35673">
        <ele>1376</ele>
        <time>2011-08-06T12:11:58Z</time>
      </trkpt>
      <trkpt lat="46.74484" lon="6.35672">
        <ele>1377</ele>
        <time>2011-08-06T12:12:02Z</time>
      </trkpt>
      <trkpt lat="46.7448" lon="6.35672">
        <ele>1378</ele>
        <time>2011-08-06T12:12:06Z</time>
      </trkpt>
      <trkpt lat="46.74446" lon="6.35665">
        <ele>1374</ele>
        <time>2011-08-06T12:12:30Z</time>
      </trkpt>
      <trkpt lat="46.74439" lon="6.35666">
        <ele>1375</ele>
        <time>2011-08-06T12:12:35Z</time>
      </trkpt>
      <trkpt lat="46.74414" lon="6.35655">
        <ele>1379</ele>
        <time>2011-08-06T12:12:53Z</time>
      </trkpt>
      <trkpt lat="46.74392" lon="6.35659">
        <ele>1380</ele>
        <time>2011-08-06T12:13:09Z</time>
      </trkpt>
      <trkpt lat="46.74381" lon="6.35659">
        <ele>1380</ele>
        <time>2011-08-06T12:13:16Z</time>
      </trkpt>
      <trkpt lat="46.74376" lon="6.35659">
        <ele>1381</ele>
        <time>2011-08-06T12:13:20Z</time>
      </trkpt>
      <trkpt lat="46.74355" lon="6.35652">
        <ele>1382</ele>
        <time>2011-08-06T12:13:36Z</time>
      </trkpt>
      <trkpt lat="46.74346" lon="6.35653">
        <ele>1383</ele>
        <time>2011-08-06T12:13:49Z</time>
      </trkpt>
      <trkpt lat="46.74339" lon="6.35653">
        <ele>1384</ele>
        <time>2011-08-06T12:14:03Z</time>
      </trkpt>
      <trkpt lat="46.74332" lon="6.35652">
        <ele>1387</ele>
        <time>2011-08-06T12:14:14Z</time>
      </trkpt>
      <trkpt lat="46.74328" lon="6.3565">
        <ele>1387</ele>
        <time>2011-08-06T12:14:19Z</time>
      </trkpt>
      <trkpt lat="46.74313" lon="6.3564">
        <ele>1387</ele>
        <time>2011-08-06T12:14:30Z</time>
      </trkpt>
      <trkpt lat="46.7429" lon="6.3564">
        <ele>1387</ele>
        <time>2011-08-06T12:14:45Z</time>
      </trkpt>
      <trkpt lat="46.74286" lon="6.35639">
        <ele>1387</ele>
        <time>2011-08-06T12:14:48Z</time>
      </trkpt>
      <trkpt lat="46.74281" lon="6.35639">
        <ele>1387</ele>
        <time>2011-08-06T12:15:00Z</time>
      </trkpt>
      <trkpt lat="46.74279" lon="6.35638">
        <ele>1387</ele>
        <time>2011-08-06T12:15:20Z</time>
      </trkpt>
      <trkpt lat="46.74279" lon="6.35639">
        <ele>1387</ele>
        <time>2011-08-06T12:15:23Z</time>
      </trkpt>
      <trkpt lat="46.7427" lon="6.35627">
        <ele>1387</ele>
        <time>2011-08-06T12:15:32Z</time>
      </trkpt>
      <trkpt lat="46.74243" lon="6.35608">
        <ele>1386</ele>
        <time>2011-08-06T12:15:51Z</time>
      </trkpt>
      <trkpt lat="46.7421" lon="6.35616">
        <ele>1382</ele>
        <time>2011-08-06T12:16:07Z</time>
      </trkpt>
      <trkpt lat="46.74172" lon="6.35606">
        <ele>1384</ele>
        <time>2011-08-06T12:16:20Z</time>
      </trkpt>
      <trkpt lat="46.74141" lon="6.35572">
        <ele>1396</ele>
        <time>2011-08-06T12:16:38Z</time>
      </trkpt>
      <trkpt lat="46.74135" lon="6.35572">
        <ele>1395</ele>
        <time>2011-08-06T12:16:48Z</time>
      </trkpt>
      <trkpt lat="46.74132" lon="6.35585">
        <ele>1368</ele>
        <time>2011-08-06T12:17:05Z</time>
      </trkpt>
      <trkpt lat="46.74133" lon="6.35583">
        <ele>1368</ele>
        <time>2011-08-06T12:17:34Z</time>
      </trkpt>
      <trkpt lat="46.74134" lon="6.35569">
        <ele>1395</ele>
        <time>2011-08-06T12:17:40Z</time>
      </trkpt>
      <trkpt lat="46.74124" lon="6.35562">
        <ele>1395</ele>
        <time>2011-08-06T12:17:54Z</time>
      </trkpt>
      <trkpt lat="46.74108" lon="6.35551">
        <ele>1395</ele>
        <time>2011-08-06T12:22:51Z</time>
      </trkpt>
      <trkpt lat="46.74052" lon="6.35538">
        <ele>1394</ele>
        <time>2011-08-06T12:23:05Z</time>
      </trkpt>
      <trkpt lat="46.74021" lon="6.35542">
        <ele>1393</ele>
        <time>2011-08-06T12:23:17Z</time>
      </trkpt>
      <trkpt lat="46.74001" lon="6.35545">
        <ele>1392</ele>
        <time>2011-08-06T12:23:26Z</time>
      </trkpt>
      <trkpt lat="46.7396" lon="6.35509">
        <ele>1385</ele>
        <time>2011-08-06T12:23:41Z</time>
      </trkpt>
      <trkpt lat="46.73905" lon="6.35446">
        <ele>1408</ele>
        <time>2011-08-06T12:23:59Z</time>
      </trkpt>
      <trkpt lat="46.73887" lon="6.35446">
        <ele>1409</ele>
        <time>2011-08-06T12:24:08Z</time>
      </trkpt>
      <trkpt lat="46.7388" lon="6.35449">
        <ele>1409</ele>
        <time>2011-08-06T12:24:20Z</time>
      </trkpt>
      <trkpt lat="46.73875" lon="6.35453">
        <ele>1409</ele>
        <time>2011-08-06T12:24:37Z</time>
      </trkpt>
      <trkpt lat="46.73869" lon="6.35455">
        <ele>1410</ele>
        <time>2011-08-06T12:24:43Z</time>
      </trkpt>
      <trkpt lat="46.7386" lon="6.35454">
        <ele>1411</ele>
        <time>2011-08-06T12:25:02Z</time>
      </trkpt>
      <trkpt lat="46.73816" lon="6.35449">
        <ele>1413</ele>
        <time>2011-08-06T12:25:20Z</time>
      </trkpt>
      <trkpt lat="46.73805" lon="6.35448">
        <ele>1413</ele>
        <time>2011-08-06T12:25:33Z</time>
      </trkpt>
      <trkpt lat="46.73805" lon="6.35449">
        <ele>1413</ele>
        <time>2011-08-06T12:25:38Z</time>
      </trkpt>
      <trkpt lat="46.73804" lon="6.35452">
        <ele>1412</ele>
        <time>2011-08-06T12:25:41Z</time>
      </trkpt>
      <trkpt lat="46.73796" lon="6.35455">
        <ele>1412</ele>
        <time>2011-08-06T12:25:52Z</time>
      </trkpt>
      <trkpt lat="46.73786" lon="6.35461">
        <ele>1410</ele>
        <time>2011-08-06T12:25:59Z</time>
      </trkpt>
      <trkpt lat="46.7376" lon="6.35471">
        <ele>1407</ele>
        <time>2011-08-06T12:26:12Z</time>
      </trkpt>
      <trkpt lat="46.73725" lon="6.35468">
        <ele>1403</ele>
        <time>2011-08-06T12:26:28Z</time>
      </trkpt>
      <trkpt lat="46.73696" lon="6.35458">
        <ele>1405</ele>
        <time>2011-08-06T12:26:41Z</time>
      </trkpt>
      <trkpt lat="46.73673" lon="6.35459">
        <ele>1404</ele>
        <time>2011-08-06T12:26:53Z</time>
      </trkpt>
      <trkpt lat="46.73666" lon="6.35459">
        <ele>1402</ele>
        <time>2011-08-06T12:27:05Z</time>
      </trkpt>
      <trkpt lat="46.73659" lon="6.35458">
        <ele>1402</ele>
        <time>2011-08-06T12:27:25Z</time>
      </trkpt>
      <trkpt lat="46.73635" lon="6.35451">
        <ele>1403</ele>
        <time>2011-08-06T12:27:39Z</time>
      </trkpt>
      <trkpt lat="46.73625" lon="6.35448">
        <ele>1404</ele>
        <time>2011-08-06T12:27:44Z</time>
      </trkpt>
      <trkpt lat="46.73588" lon="6.35464">
        <ele>1398</ele>
        <time>2011-08-06T12:27:57Z</time>
      </trkpt>
      <trkpt lat="46.73564" lon="6.35478">
        <ele>1402</ele>
        <time>2011-08-06T12:28:11Z</time>
      </trkpt>
      <trkpt lat="46.73538" lon="6.35477">
        <ele>1411</ele>
        <time>2011-08-06T12:28:26Z</time>
      </trkpt>
      <trkpt lat="46.73534" lon="6.3548">
        <ele>1412</ele>
        <time>2011-08-06T12:28:40Z</time>
      </trkpt>
      <trkpt lat="46.73532" lon="6.3548">
        <ele>1412</ele>
        <time>2011-08-06T12:32:00Z</time>
      </trkpt>
      <trkpt lat="46.73519" lon="6.35477">
        <ele>1415</ele>
        <time>2011-08-06T12:32:06Z</time>
      </trkpt>
      <trkpt lat="46.73507" lon="6.35478">
        <ele>1417</ele>
        <time>2011-08-06T12:32:10Z</time>
      </trkpt>
      <trkpt lat="46.73504" lon="6.35467">
        <ele>1417</ele>
        <time>2011-08-06T12:32:15Z</time>
      </trkpt>
      <trkpt lat="46.73502" lon="6.35463">
        <ele>1417</ele>
        <time>2011-08-06T12:32:27Z</time>
      </trkpt>
      <trkpt lat="46.73501" lon="6.3547">
        <ele>1417</ele>
        <time>2011-08-06T12:32:31Z</time>
      </trkpt>
      <trkpt lat="46.73503" lon="6.35481">
        <ele>1418</ele>
        <time>2011-08-06T12:32:46Z</time>
      </trkpt>
      <trkpt lat="46.73503" lon="6.3548">
        <ele>1418</ele>
        <time>2011-08-06T12:38:37Z</time>
      </trkpt>
      <trkpt lat="46.73502" lon="6.35479">
        <ele>1418</ele>
        <time>2011-08-06T12:38:50Z</time>
      </trkpt>
      <trkpt lat="46.735" lon="6.35458">
        <ele>1427</ele>
        <time>2011-08-06T12:39:03Z</time>
      </trkpt>
      <trkpt lat="46.73501" lon="6.35455">
        <ele>1417</ele>
        <time>2011-08-06T12:39:18Z</time>
      </trkpt>
      <trkpt lat="46.73498" lon="6.35443">
        <ele>1427</ele>
        <time>2011-08-06T12:39:27Z</time>
      </trkpt>
      <trkpt lat="46.73481" lon="6.35391">
        <ele>1423</ele>
        <time>2011-08-06T12:39:38Z</time>
      </trkpt>
      <trkpt lat="46.73477" lon="6.35368">
        <ele>1422</ele>
        <time>2011-08-06T12:39:42Z</time>
      </trkpt>
      <trkpt lat="46.73471" lon="6.35348">
        <ele>1421</ele>
        <time>2011-08-06T12:39:45Z</time>
      </trkpt>
      <trkpt lat="46.73469" lon="6.35307">
        <ele>1415</ele>
        <time>2011-08-06T12:39:55Z</time>
      </trkpt>
      <trkpt lat="46.7347" lon="6.353">
        <ele>1414</ele>
        <time>2011-08-06T12:40:14Z</time>
      </trkpt>
      <trkpt lat="46.73444" lon="6.3528">
        <ele>1413</ele>
        <time>2011-08-06T12:40:26Z</time>
      </trkpt>
      <trkpt lat="46.73415" lon="6.35242">
        <ele>1409</ele>
        <time>2011-08-06T12:40:41Z</time>
      </trkpt>
      <trkpt lat="46.73387" lon="6.3519">
        <ele>1406</ele>
        <time>2011-08-06T12:40:52Z</time>
      </trkpt>
      <trkpt lat="46.73335" lon="6.35065">
        <ele>1391</ele>
        <time>2011-08-06T12:41:03Z</time>
      </trkpt>
      <trkpt lat="46.7331" lon="6.34985">
        <ele>1382</ele>
        <time>2011-08-06T12:41:09Z</time>
      </trkpt>
      <trkpt lat="46.73307" lon="6.34956">
        <ele>1380</ele>
        <time>2011-08-06T12:41:13Z</time>
      </trkpt>
      <trkpt lat="46.73306" lon="6.34955">
        <ele>1380</ele>
        <time>2011-08-06T12:41:17Z</time>
      </trkpt>
      <trkpt lat="46.73314" lon="6.34994">
        <ele>1383</ele>
        <time>2011-08-06T12:41:30Z</time>
      </trkpt>
      <trkpt lat="46.73314" lon="6.34996">
        <ele>1383</ele>
        <time>2011-08-06T12:41:31Z</time>
      </trkpt>
      <trkpt lat="46.73324" lon="6.34996">
        <ele>1385</ele>
        <time>2011-08-06T12:41:37Z</time>
      </trkpt>
      <trkpt lat="46.73334" lon="6.34983">
        <ele>1385</ele>
        <time>2011-08-06T12:41:42Z</time>
      </trkpt>
      <trkpt lat="46.73376" lon="6.34949">
        <ele>1382</ele>
        <time>2011-08-06T12:41:57Z</time>
      </trkpt>
      <trkpt lat="46.73381" lon="6.3494">
        <ele>1382</ele>
        <time>2011-08-06T12:42:11Z</time>
      </trkpt>
      <trkpt lat="46.73385" lon="6.34932">
        <ele>1382</ele>
        <time>2011-08-06T12:42:13Z</time>
      </trkpt>
      <trkpt lat="46.73392" lon="6.34903">
        <ele>1375</ele>
        <time>2011-08-06T12:42:17Z</time>
      </trkpt>
      <trkpt lat="46.73394" lon="6.34887">
        <ele>1374</ele>
        <time>2011-08-06T12:42:20Z</time>
      </trkpt>
      <trkpt lat="46.7339" lon="6.34869">
        <ele>1373</ele>
        <time>2011-08-06T12:42:26Z</time>
      </trkpt>
      <trkpt lat="46.73394" lon="6.34831">
        <ele>1365</ele>
        <time>2011-08-06T12:42:35Z</time>
      </trkpt>
      <trkpt lat="46.73396" lon="6.3483">
        <ele>1366</ele>
        <time>2011-08-06T12:42:37Z</time>
      </trkpt>
      <trkpt lat="46.734" lon="6.3483">
        <ele>1366</ele>
        <time>2011-08-06T12:42:46Z</time>
      </trkpt>
      <trkpt lat="46.73425" lon="6.34802">
        <ele>1364</ele>
        <time>2011-08-06T12:42:57Z</time>
      </trkpt>
      <trkpt lat="46.73439" lon="6.34791">
        <ele>1363</ele>
        <time>2011-08-06T12:43:00Z</time>
      </trkpt>
      <trkpt lat="46.73475" lon="6.3478">
        <ele>1362</ele>
        <time>2011-08-06T12:43:06Z</time>
      </trkpt>
      <trkpt lat="46.73505" lon="6.34767">
        <ele>1359</ele>
        <time>2011-08-06T12:43:16Z</time>
      </trkpt>
      <trkpt lat="46.73507" lon="6.34767">
        <ele>1359</ele>
        <time>2011-08-06T12:43:17Z</time>
      </trkpt>
      <trkpt lat="46.73516" lon="6.34768">
        <ele>1360</ele>
        <time>2011-08-06T12:43:21Z</time>
      </trkpt>
      <trkpt lat="46.73529" lon="6.34758">
        <ele>1359</ele>
        <time>2011-08-06T12:43:26Z</time>
      </trkpt>
      <trkpt lat="46.73549" lon="6.3472">
        <ele>1352</ele>
        <time>2011-08-06T12:43:37Z</time>
      </trkpt>
      <trkpt lat="46.73574" lon="6.34694">
        <ele>1349</ele>
        <time>2011-08-06T12:43:47Z</time>
      </trkpt>
      <trkpt lat="46.73583" lon="6.34681">
        <ele>1348</ele>
        <time>2011-08-06T12:43:50Z</time>
      </trkpt>
      <trkpt lat="46.73596" lon="6.34663">
        <ele>1342</ele>
        <time>2011-08-06T12:43:54Z</time>
      </trkpt>
      <trkpt lat="46.73615" lon="6.34624">
        <ele>1338</ele>
        <time>2011-08-06T12:44:00Z</time>
      </trkpt>
      <trkpt lat="46.73617" lon="6.34602">
        <ele>1337</ele>
        <time>2011-08-06T12:44:03Z</time>
      </trkpt>
      <trkpt lat="46.73616" lon="6.34574">
        <ele>1330</ele>
        <time>2011-08-06T12:44:06Z</time>
      </trkpt>
      <trkpt lat="46.73623" lon="6.34549">
        <ele>1329</ele>
        <time>2011-08-06T12:44:10Z</time>
      </trkpt>
      <trkpt lat="46.73629" lon="6.3454">
        <ele>1328</ele>
        <time>2011-08-06T12:44:12Z</time>
      </trkpt>
      <trkpt lat="46.73653" lon="6.3449">
        <ele>1321</ele>
        <time>2011-08-06T12:44:22Z</time>
      </trkpt>
      <trkpt lat="46.73706" lon="6.34433">
        <ele>1318</ele>
        <time>2011-08-06T12:44:35Z</time>
      </trkpt>
      <trkpt lat="46.73721" lon="6.34413">
        <ele>1315</ele>
        <time>2011-08-06T12:44:38Z</time>
      </trkpt>
      <trkpt lat="46.73739" lon="6.34397">
        <ele>1314</ele>
        <time>2011-08-06T12:44:42Z</time>
      </trkpt>
      <trkpt lat="46.73743" lon="6.3439">
        <ele>1314</ele>
        <time>2011-08-06T12:44:44Z</time>
      </trkpt>
      <trkpt lat="46.73752" lon="6.3438">
        <ele>1310</ele>
        <time>2011-08-06T12:44:56Z</time>
      </trkpt>
      <trkpt lat="46.73752" lon="6.3438">
        <ele>1310</ele>
        <time>2011-08-06T12:45:02Z</time>
      </trkpt>
      <trkpt lat="46.7375" lon="6.34383">
        <ele>1310</ele>
        <time>2011-08-06T12:45:05Z</time>
      </trkpt>
      <trkpt lat="46.73737" lon="6.34382">
        <ele>1314</ele>
        <time>2011-08-06T12:45:19Z</time>
      </trkpt>
      <trkpt lat="46.73727" lon="6.34377">
        <ele>1314</ele>
        <time>2011-08-06T12:45:33Z</time>
      </trkpt>
      <trkpt lat="46.73728" lon="6.34377">
        <ele>1314</ele>
        <time>2011-08-06T12:45:38Z</time>
      </trkpt>
      <trkpt lat="46.73708" lon="6.34381">
        <ele>1315</ele>
        <time>2011-08-06T12:45:55Z</time>
      </trkpt>
      <trkpt lat="46.73701" lon="6.34379">
        <ele>1315</ele>
        <time>2011-08-06T12:46:09Z</time>
      </trkpt>
      <trkpt lat="46.73689" lon="6.34368">
        <ele>1315</ele>
        <time>2011-08-06T12:46:23Z</time>
      </trkpt>
      <trkpt lat="46.73682" lon="6.34362">
        <ele>1315</ele>
        <time>2011-08-06T12:46:33Z</time>
      </trkpt>
      <trkpt lat="46.73685" lon="6.34353">
        <ele>1315</ele>
        <time>2011-08-06T12:46:39Z</time>
      </trkpt>
      <trkpt lat="46.73686" lon="6.34347">
        <ele>1315</ele>
        <time>2011-08-06T12:46:41Z</time>
      </trkpt>
      <trkpt lat="46.73687" lon="6.34335">
        <ele>1315</ele>
        <time>2011-08-06T12:46:45Z</time>
      </trkpt>
      <trkpt lat="46.73688" lon="6.34326">
        <ele>1314</ele>
        <time>2011-08-06T12:46:48Z</time>
      </trkpt>
      <trkpt lat="46.73688" lon="6.34295">
        <ele>1313</ele>
        <time>2011-08-06T12:46:59Z</time>
      </trkpt>
      <trkpt lat="46.73687" lon="6.34291">
        <ele>1313</ele>
        <time>2011-08-06T12:47:00Z</time>
      </trkpt>
      <trkpt lat="46.73694" lon="6.34239">
        <ele>1309</ele>
        <time>2011-08-06T12:47:12Z</time>
      </trkpt>
      <trkpt lat="46.73698" lon="6.34218">
        <ele>1308</ele>
        <time>2011-08-06T12:47:15Z</time>
      </trkpt>
      <trkpt lat="46.73697" lon="6.34191">
        <ele>1307</ele>
        <time>2011-08-06T12:47:20Z</time>
      </trkpt>
      <trkpt lat="46.73706" lon="6.3417">
        <ele>1306</ele>
        <time>2011-08-06T12:47:25Z</time>
      </trkpt>
      <trkpt lat="46.73714" lon="6.34165">
        <ele>1302</ele>
        <time>2011-08-06T12:47:28Z</time>
      </trkpt>
      <trkpt lat="46.73739" lon="6.34137">
        <ele>1300</ele>
        <time>2011-08-06T12:47:38Z</time>
      </trkpt>
      <trkpt lat="46.73753" lon="6.34124">
        <ele>1291</ele>
        <time>2011-08-06T12:47:44Z</time>
      </trkpt>
      <trkpt lat="46.73755" lon="6.34113">
        <ele>1291</ele>
        <time>2011-08-06T12:47:47Z</time>
      </trkpt>
      <trkpt lat="46.73762" lon="6.34105">
        <ele>1290</ele>
        <time>2011-08-06T12:47:51Z</time>
      </trkpt>
      <trkpt lat="46.73784" lon="6.3407">
        <ele>1284</ele>
        <time>2011-08-06T12:48:01Z</time>
      </trkpt>
      <trkpt lat="46.73788" lon="6.34068">
        <ele>1284</ele>
        <time>2011-08-06T12:48:03Z</time>
      </trkpt>
      <trkpt lat="46.73796" lon="6.34053">
        <ele>1282</ele>
        <time>2011-08-06T12:48:07Z</time>
      </trkpt>
      <trkpt lat="46.73799" lon="6.34042">
        <ele>1282</ele>
        <time>2011-08-06T12:48:09Z</time>
      </trkpt>
      <trkpt lat="46.73821" lon="6.33998">
        <ele>1275</ele>
        <time>2011-08-06T12:48:17Z</time>
      </trkpt>
      <trkpt lat="46.73821" lon="6.33973">
        <ele>1275</ele>
        <time>2011-08-06T12:48:21Z</time>
      </trkpt>
      <trkpt lat="46.7382" lon="6.33954">
        <ele>1274</ele>
        <time>2011-08-06T12:48:24Z</time>
      </trkpt>
      <trkpt lat="46.73823" lon="6.33924">
        <ele>1271</ele>
        <time>2011-08-06T12:48:28Z</time>
      </trkpt>
      <trkpt lat="46.73823" lon="6.33877">
        <ele>1270</ele>
        <time>2011-08-06T12:48:34Z</time>
      </trkpt>
      <trkpt lat="46.73836" lon="6.33833">
        <ele>1264</ele>
        <time>2011-08-06T12:48:40Z</time>
      </trkpt>
      <trkpt lat="46.7384" lon="6.33778">
        <ele>1262</ele>
        <time>2011-08-06T12:48:46Z</time>
      </trkpt>
      <trkpt lat="46.73836" lon="6.33751">
        <ele>1264</ele>
        <time>2011-08-06T12:48:50Z</time>
      </trkpt>
      <trkpt lat="46.73836" lon="6.33729">
        <ele>1261</ele>
        <time>2011-08-06T12:48:55Z</time>
      </trkpt>
      <trkpt lat="46.73844" lon="6.33698">
        <ele>1259</ele>
        <time>2011-08-06T12:49:01Z</time>
      </trkpt>
      <trkpt lat="46.73842" lon="6.33674">
        <ele>1259</ele>
        <time>2011-08-06T12:49:05Z</time>
      </trkpt>
      <trkpt lat="46.73819" lon="6.33536">
        <ele>1254</ele>
        <time>2011-08-06T12:49:23Z</time>
      </trkpt>
      <trkpt lat="46.73814" lon="6.33456">
        <ele>1249</ele>
        <time>2011-08-06T12:49:30Z</time>
      </trkpt>
      <trkpt lat="46.73804" lon="6.3341">
        <ele>1246</ele>
        <time>2011-08-06T12:49:34Z</time>
      </trkpt>
      <trkpt lat="46.73802" lon="6.33345">
        <ele>1244</ele>
        <time>2011-08-06T12:49:40Z</time>
      </trkpt>
      <trkpt lat="46.73799" lon="6.3331">
        <ele>1239</ele>
        <time>2011-08-06T12:49:43Z</time>
      </trkpt>
      <trkpt lat="46.73781" lon="6.33273">
        <ele>1237</ele>
        <time>2011-08-06T12:49:47Z</time>
      </trkpt>
      <trkpt lat="46.73779" lon="6.33186">
        <ele>1229</ele>
        <time>2011-08-06T12:49:55Z</time>
      </trkpt>
      <trkpt lat="46.73788" lon="6.33137">
        <ele>1224</ele>
        <time>2011-08-06T12:50:03Z</time>
      </trkpt>
      <trkpt lat="46.73758" lon="6.33126">
        <ele>1222</ele>
        <time>2011-08-06T12:50:11Z</time>
      </trkpt>
      <trkpt lat="46.73738" lon="6.33124">
        <ele>1219</ele>
        <time>2011-08-06T12:50:14Z</time>
      </trkpt>
      <trkpt lat="46.73697" lon="6.33132">
        <ele>1219</ele>
        <time>2011-08-06T12:50:20Z</time>
      </trkpt>
      <trkpt lat="46.73682" lon="6.33107">
        <ele>1217</ele>
        <time>2011-08-06T12:50:26Z</time>
      </trkpt>
      <trkpt lat="46.73683" lon="6.33091">
        <ele>1216</ele>
        <time>2011-08-06T12:50:28Z</time>
      </trkpt>
      <trkpt lat="46.73683" lon="6.33055">
        <ele>1211</ele>
        <time>2011-08-06T12:50:32Z</time>
      </trkpt>
      <trkpt lat="46.73686" lon="6.32983">
        <ele>1207</ele>
        <time>2011-08-06T12:50:39Z</time>
      </trkpt>
      <trkpt lat="46.73708" lon="6.32858">
        <ele>1202</ele>
        <time>2011-08-06T12:50:51Z</time>
      </trkpt>
      <trkpt lat="46.73713" lon="6.3279">
        <ele>1199</ele>
        <time>2011-08-06T12:50:59Z</time>
      </trkpt>
      <trkpt lat="46.73709" lon="6.32763">
        <ele>1199</ele>
        <time>2011-08-06T12:51:04Z</time>
      </trkpt>
      <trkpt lat="46.73664" lon="6.32708">
        <ele>1204</ele>
        <time>2011-08-06T12:51:24Z</time>
      </trkpt>
      <trkpt lat="46.7365" lon="6.32681">
        <ele>1202</ele>
        <time>2011-08-06T12:51:35Z</time>
      </trkpt>
      <trkpt lat="46.73611" lon="6.32647">
        <ele>1203</ele>
        <time>2011-08-06T12:51:50Z</time>
      </trkpt>
      <trkpt lat="46.73578" lon="6.32626">
        <ele>1211</ele>
        <time>2011-08-06T12:52:10Z</time>
      </trkpt>
      <trkpt lat="46.73552" lon="6.32621">
        <ele>1212</ele>
        <time>2011-08-06T12:52:29Z</time>
      </trkpt>
      <trkpt lat="46.73552" lon="6.32622">
        <ele>1212</ele>
        <time>2011-08-06T12:53:27Z</time>
      </trkpt>
      <trkpt lat="46.7355" lon="6.32619">
        <ele>1212</ele>
        <time>2011-08-06T12:53:29Z</time>
      </trkpt>
      <trkpt lat="46.73544" lon="6.32619">
        <ele>1212</ele>
        <time>2011-08-06T12:53:33Z</time>
      </trkpt>
      <trkpt lat="46.73499" lon="6.32613">
        <ele>1221</ele>
        <time>2011-08-06T12:53:57Z</time>
      </trkpt>
      <trkpt lat="46.73467" lon="6.32607">
        <ele>1222</ele>
        <time>2011-08-06T12:54:14Z</time>
      </trkpt>
      <trkpt lat="46.73433" lon="6.32583">
        <ele>1223</ele>
        <time>2011-08-06T12:54:30Z</time>
      </trkpt>
      <trkpt lat="46.73406" lon="6.3254">
        <ele>1228</ele>
        <time>2011-08-06T12:54:45Z</time>
      </trkpt>
      <trkpt lat="46.73403" lon="6.32534">
        <ele>1228</ele>
        <time>2011-08-06T12:54:47Z</time>
      </trkpt>
      <trkpt lat="46.73387" lon="6.32524">
        <ele>1229</ele>
        <time>2011-08-06T12:54:57Z</time>
      </trkpt>
      <trkpt lat="46.73384" lon="6.32517">
        <ele>1229</ele>
        <time>2011-08-06T12:55:10Z</time>
      </trkpt>
      <trkpt lat="46.73383" lon="6.32516">
        <ele>1229</ele>
        <time>2011-08-06T12:55:24Z</time>
      </trkpt>
      <trkpt lat="46.73361" lon="6.32502">
        <ele>1230</ele>
        <time>2011-08-06T12:55:39Z</time>
      </trkpt>
      <trkpt lat="46.73331" lon="6.32457">
        <ele>1232</ele>
        <time>2011-08-06T12:55:56Z</time>
      </trkpt>
      <trkpt lat="46.73295" lon="6.32429">
        <ele>1232</ele>
        <time>2011-08-06T12:56:12Z</time>
      </trkpt>
      <trkpt lat="46.73275" lon="6.32374">
        <ele>1230</ele>
        <time>2011-08-06T12:56:25Z</time>
      </trkpt>
      <trkpt lat="46.73244" lon="6.32342">
        <ele>1230</ele>
        <time>2011-08-06T12:56:33Z</time>
      </trkpt>
      <trkpt lat="46.73209" lon="6.3234">
        <ele>1232</ele>
        <time>2011-08-06T12:56:44Z</time>
      </trkpt>
      <trkpt lat="46.73201" lon="6.32342">
        <ele>1232</ele>
        <time>2011-08-06T12:56:47Z</time>
      </trkpt>
      <trkpt lat="46.73166" lon="6.32343">
        <ele>1232</ele>
        <time>2011-08-06T12:56:57Z</time>
      </trkpt>
      <trkpt lat="46.7314" lon="6.32316">
        <ele>1228</ele>
        <time>2011-08-06T12:57:07Z</time>
      </trkpt>
      <trkpt lat="46.73134" lon="6.3231">
        <ele>1228</ele>
        <time>2011-08-06T12:57:09Z</time>
      </trkpt>
      <trkpt lat="46.73118" lon="6.32309">
        <ele>1227</ele>
        <time>2011-08-06T12:57:13Z</time>
      </trkpt>
      <trkpt lat="46.73091" lon="6.32316">
        <ele>1227</ele>
        <time>2011-08-06T12:57:20Z</time>
      </trkpt>
      <trkpt lat="46.73068" lon="6.32285">
        <ele>1222</ele>
        <time>2011-08-06T12:57:28Z</time>
      </trkpt>
      <trkpt lat="46.73063" lon="6.32255">
        <ele>1222</ele>
        <time>2011-08-06T12:57:32Z</time>
      </trkpt>
      <trkpt lat="46.73046" lon="6.32222">
        <ele>1219</ele>
        <time>2011-08-06T12:57:36Z</time>
      </trkpt>
      <trkpt lat="46.73001" lon="6.32163">
        <ele>1216</ele>
        <time>2011-08-06T12:57:46Z</time>
      </trkpt>
      <trkpt lat="46.72987" lon="6.32143">
        <ele>1219</ele>
        <time>2011-08-06T12:57:58Z</time>
      </trkpt>
      <trkpt lat="46.72986" lon="6.32139">
        <ele>1219</ele>
        <time>2011-08-06T12:58:44Z</time>
      </trkpt>
      <trkpt lat="46.72979" lon="6.3212">
        <ele>1219</ele>
        <time>2011-08-06T12:58:57Z</time>
      </trkpt>
      <trkpt lat="46.72949" lon="6.32085">
        <ele>1221</ele>
        <time>2011-08-06T12:59:13Z</time>
      </trkpt>
      <trkpt lat="46.72934" lon="6.32072">
        <ele>1225</ele>
        <time>2011-08-06T12:59:27Z</time>
      </trkpt>
      <trkpt lat="46.72927" lon="6.32061">
        <ele>1225</ele>
        <time>2011-08-06T12:59:42Z</time>
      </trkpt>
      <trkpt lat="46.72894" lon="6.32047">
        <ele>1228</ele>
        <time>2011-08-06T12:59:59Z</time>
      </trkpt>
      <trkpt lat="46.72862" lon="6.32032">
        <ele>1228</ele>
        <time>2011-08-06T13:00:09Z</time>
      </trkpt>
      <trkpt lat="46.72832" lon="6.31994">
        <ele>1229</ele>
        <time>2011-08-06T13:00:24Z</time>
      </trkpt>
      <trkpt lat="46.72799" lon="6.31931">
        <ele>1229</ele>
        <time>2011-08-06T13:00:42Z</time>
      </trkpt>
      <trkpt lat="46.72772" lon="6.31861">
        <ele>1225</ele>
        <time>2011-08-06T13:00:58Z</time>
      </trkpt>
      <trkpt lat="46.72745" lon="6.31782">
        <ele>1224</ele>
        <time>2011-08-06T13:01:08Z</time>
      </trkpt>
      <trkpt lat="46.7271" lon="6.3169">
        <ele>1222</ele>
        <time>2011-08-06T13:01:23Z</time>
      </trkpt>
      <trkpt lat="46.72698" lon="6.3165">
        <ele>1219</ele>
        <time>2011-08-06T13:01:36Z</time>
      </trkpt>
      <trkpt lat="46.727" lon="6.31651">
        <ele>1219</ele>
        <time>2011-08-06T13:01:47Z</time>
      </trkpt>
      <trkpt lat="46.72699" lon="6.31648">
        <ele>1219</ele>
        <time>2011-08-06T13:02:04Z</time>
      </trkpt>
      <trkpt lat="46.72699" lon="6.31641">
        <ele>1218</ele>
        <time>2011-08-06T13:02:19Z</time>
      </trkpt>
      <trkpt lat="46.727" lon="6.31594">
        <ele>1217</ele>
        <time>2011-08-06T13:02:33Z</time>
      </trkpt>
      <trkpt lat="46.72704" lon="6.31545">
        <ele>1213</ele>
        <time>2011-08-06T13:02:44Z</time>
      </trkpt>
      <trkpt lat="46.72697" lon="6.31484">
        <ele>1210</ele>
        <time>2011-08-06T13:02:56Z</time>
      </trkpt>
      <trkpt lat="46.72689" lon="6.31434">
        <ele>1209</ele>
        <time>2011-08-06T13:03:05Z</time>
      </trkpt>
      <trkpt lat="46.72681" lon="6.31409">
        <ele>1207</ele>
        <time>2011-08-06T13:03:10Z</time>
      </trkpt>
      <trkpt lat="46.72658" lon="6.31334">
        <ele>1205</ele>
        <time>2011-08-06T13:03:26Z</time>
      </trkpt>
      <trkpt lat="46.72641" lon="6.31275">
        <ele>1203</ele>
        <time>2011-08-06T13:03:38Z</time>
      </trkpt>
      <trkpt lat="46.72638" lon="6.31262">
        <ele>1203</ele>
        <time>2011-08-06T13:03:40Z</time>
      </trkpt>
      <trkpt lat="46.72626" lon="6.31204">
        <ele>1200</ele>
        <time>2011-08-06T13:03:46Z</time>
      </trkpt>
      <trkpt lat="46.72614" lon="6.31162">
        <ele>1197</ele>
        <time>2011-08-06T13:03:51Z</time>
      </trkpt>
      <trkpt lat="46.72607" lon="6.31119">
        <ele>1195</ele>
        <time>2011-08-06T13:04:01Z</time>
      </trkpt>
      <trkpt lat="46.72594" lon="6.31084">
        <ele>1193</ele>
        <time>2011-08-06T13:04:13Z</time>
      </trkpt>
      <trkpt lat="46.72592" lon="6.31078">
        <ele>1192</ele>
        <time>2011-08-06T13:04:14Z</time>
      </trkpt>
      <trkpt lat="46.72584" lon="6.31045">
        <ele>1191</ele>
        <time>2011-08-06T13:04:20Z</time>
      </trkpt>
      <trkpt lat="46.72566" lon="6.30973">
        <ele>1184</ele>
        <time>2011-08-06T13:04:32Z</time>
      </trkpt>
      <trkpt lat="46.72551" lon="6.30914">
        <ele>1178</ele>
        <time>2011-08-06T13:04:45Z</time>
      </trkpt>
      <trkpt lat="46.72544" lon="6.30888">
        <ele>1177</ele>
        <time>2011-08-06T13:04:50Z</time>
      </trkpt>
      <trkpt lat="46.72531" lon="6.3086">
        <ele>1175</ele>
        <time>2011-08-06T13:04:56Z</time>
      </trkpt>
      <trkpt lat="46.72529" lon="6.30831">
        <ele>1171</ele>
        <time>2011-08-06T13:05:02Z</time>
      </trkpt>
      <trkpt lat="46.72529" lon="6.30744">
        <ele>1168</ele>
        <time>2011-08-06T13:05:12Z</time>
      </trkpt>
      <trkpt lat="46.72522" lon="6.30689">
        <ele>1167</ele>
        <time>2011-08-06T13:05:19Z</time>
      </trkpt>
      <trkpt lat="46.72513" lon="6.30663">
        <ele>1164</ele>
        <time>2011-08-06T13:05:24Z</time>
      </trkpt>
      <trkpt lat="46.72479" lon="6.30654">
        <ele>1162</ele>
        <time>2011-08-06T13:05:34Z</time>
      </trkpt>
      <trkpt lat="46.72467" lon="6.30646">
        <ele>1161</ele>
        <time>2011-08-06T13:05:37Z</time>
      </trkpt>
      <trkpt lat="46.72453" lon="6.30647">
        <ele>1161</ele>
        <time>2011-08-06T13:05:41Z</time>
      </trkpt>
      <trkpt lat="46.72435" lon="6.30655">
        <ele>1161</ele>
        <time>2011-08-06T13:05:48Z</time>
      </trkpt>
      <trkpt lat="46.72428" lon="6.30653">
        <ele>1161</ele>
        <time>2011-08-06T13:05:51Z</time>
      </trkpt>
      <trkpt lat="46.72415" lon="6.30603">
        <ele>1159</ele>
        <time>2011-08-06T13:06:01Z</time>
      </trkpt>
      <trkpt lat="46.72411" lon="6.30599">
        <ele>1159</ele>
        <time>2011-08-06T13:06:03Z</time>
      </trkpt>
      <trkpt lat="46.72413" lon="6.30575">
        <ele>1157</ele>
        <time>2011-08-06T13:06:09Z</time>
      </trkpt>
      <trkpt lat="46.72415" lon="6.30556">
        <ele>1157</ele>
        <time>2011-08-06T13:06:12Z</time>
      </trkpt>
      <trkpt lat="46.72423" lon="6.30515">
        <ele>1157</ele>
        <time>2011-08-06T13:06:18Z</time>
      </trkpt>
      <trkpt lat="46.72437" lon="6.30396">
        <ele>1150</ele>
        <time>2011-08-06T13:06:30Z</time>
      </trkpt>
      <trkpt lat="46.72458" lon="6.30263">
        <ele>1147</ele>
        <time>2011-08-06T13:06:45Z</time>
      </trkpt>
      <trkpt lat="46.72492" lon="6.30154">
        <ele>1147</ele>
        <time>2011-08-06T13:07:02Z</time>
      </trkpt>
      <trkpt lat="46.7251" lon="6.30113">
        <ele>1153</ele>
        <time>2011-08-06T13:07:15Z</time>
      </trkpt>
      <trkpt lat="46.7253" lon="6.30139">
        <ele>1154</ele>
        <time>2011-08-06T13:07:26Z</time>
      </trkpt>
      <trkpt lat="46.72551" lon="6.30155">
        <ele>1155</ele>
        <time>2011-08-06T13:07:35Z</time>
      </trkpt>
      <trkpt lat="46.7257" lon="6.30156">
        <ele>1157</ele>
        <time>2011-08-06T13:07:45Z</time>
      </trkpt>
      <trkpt lat="46.72586" lon="6.30159">
        <ele>1160</ele>
        <time>2011-08-06T13:07:52Z</time>
      </trkpt>
      <trkpt lat="46.72603" lon="6.30162">
        <ele>1161</ele>
        <time>2011-08-06T13:08:01Z</time>
      </trkpt>
      <trkpt lat="46.72623" lon="6.30176">
        <ele>1157</ele>
        <time>2011-08-06T13:08:07Z</time>
      </trkpt>
      <trkpt lat="46.7268" lon="6.30191">
        <ele>1158</ele>
        <time>2011-08-06T13:08:18Z</time>
      </trkpt>
      <trkpt lat="46.7272" lon="6.30209">
        <ele>1158</ele>
        <time>2011-08-06T13:08:27Z</time>
      </trkpt>
      <trkpt lat="46.72738" lon="6.3022">
        <ele>1157</ele>
        <time>2011-08-06T13:08:34Z</time>
      </trkpt>
      <trkpt lat="46.72781" lon="6.30223">
        <ele>1157</ele>
        <time>2011-08-06T13:08:46Z</time>
      </trkpt>
      <trkpt lat="46.72808" lon="6.30203">
        <ele>1157</ele>
        <time>2011-08-06T13:08:53Z</time>
      </trkpt>
      <trkpt lat="46.72821" lon="6.30189">
        <ele>1157</ele>
        <time>2011-08-06T13:08:56Z</time>
      </trkpt>
      <trkpt lat="46.72833" lon="6.30173">
        <ele>1156</ele>
        <time>2011-08-06T13:08:59Z</time>
      </trkpt>
      <trkpt lat="46.7285" lon="6.3015">
        <ele>1155</ele>
        <time>2011-08-06T13:09:04Z</time>
      </trkpt>
      <trkpt lat="46.72858" lon="6.30141">
        <ele>1155</ele>
        <time>2011-08-06T13:09:06Z</time>
      </trkpt>
      <trkpt lat="46.72875" lon="6.3013">
        <ele>1155</ele>
        <time>2011-08-06T13:09:09Z</time>
      </trkpt>
      <trkpt lat="46.72897" lon="6.30103">
        <ele>1155</ele>
        <time>2011-08-06T13:09:16Z</time>
      </trkpt>
      <trkpt lat="46.72935" lon="6.30062">
        <ele>1154</ele>
        <time>2011-08-06T13:09:26Z</time>
      </trkpt>
      <trkpt lat="46.72949" lon="6.3002">
        <ele>1154</ele>
        <time>2011-08-06T13:09:34Z</time>
      </trkpt>
      <trkpt lat="46.72958" lon="6.29999">
        <ele>1154</ele>
        <time>2011-08-06T13:09:37Z</time>
      </trkpt>
      <trkpt lat="46.72994" lon="6.29962">
        <ele>1153</ele>
        <time>2011-08-06T13:09:44Z</time>
      </trkpt>
      <trkpt lat="46.73057" lon="6.29876">
        <ele>1150</ele>
        <time>2011-08-06T13:09:58Z</time>
      </trkpt>
      <trkpt lat="46.73077" lon="6.29852">
        <ele>1149</ele>
        <time>2011-08-06T13:10:02Z</time>
      </trkpt>
      <trkpt lat="46.73107" lon="6.29804">
        <ele>1143</ele>
        <time>2011-08-06T13:10:08Z</time>
      </trkpt>
      <trkpt lat="46.73126" lon="6.29759">
        <ele>1141</ele>
        <time>2011-08-06T13:10:12Z</time>
      </trkpt>
      <trkpt lat="46.73137" lon="6.29704">
        <ele>1136</ele>
        <time>2011-08-06T13:10:17Z</time>
      </trkpt>
      <trkpt lat="46.73131" lon="6.29665">
        <ele>1134</ele>
        <time>2011-08-06T13:10:20Z</time>
      </trkpt>
      <trkpt lat="46.73113" lon="6.29547">
        <ele>1129</ele>
        <time>2011-08-06T13:10:28Z</time>
      </trkpt>
      <trkpt lat="46.73092" lon="6.29515">
        <ele>1128</ele>
        <time>2011-08-06T13:10:32Z</time>
      </trkpt>
      <trkpt lat="46.73076" lon="6.29502">
        <ele>1128</ele>
        <time>2011-08-06T13:10:34Z</time>
      </trkpt>
      <trkpt lat="46.73027" lon="6.29464">
        <ele>1123</ele>
        <time>2011-08-06T13:10:40Z</time>
      </trkpt>
      <trkpt lat="46.72999" lon="6.29449">
        <ele>1124</ele>
        <time>2011-08-06T13:10:43Z</time>
      </trkpt>
      <trkpt lat="46.72984" lon="6.29406">
        <ele>1119</ele>
        <time>2011-08-06T13:10:48Z</time>
      </trkpt>
      <trkpt lat="46.72986" lon="6.29386">
        <ele>1119</ele>
        <time>2011-08-06T13:10:52Z</time>
      </trkpt>
      <trkpt lat="46.72993" lon="6.29336">
        <ele>1115</ele>
        <time>2011-08-06T13:10:59Z</time>
      </trkpt>
      <trkpt lat="46.72997" lon="6.29316">
        <ele>1114</ele>
        <time>2011-08-06T13:11:01Z</time>
      </trkpt>
      <trkpt lat="46.73" lon="6.29303">
        <ele>1110</ele>
        <time>2011-08-06T13:11:03Z</time>
      </trkpt>
      <trkpt lat="46.72983" lon="6.29213">
        <ele>1108</ele>
        <time>2011-08-06T13:11:10Z</time>
      </trkpt>
      <trkpt lat="46.72971" lon="6.29132">
        <ele>1101</ele>
        <time>2011-08-06T13:11:17Z</time>
      </trkpt>
      <trkpt lat="46.72971" lon="6.2909">
        <ele>1099</ele>
        <time>2011-08-06T13:11:24Z</time>
      </trkpt>
      <trkpt lat="46.72963" lon="6.29084">
        <ele>1100</ele>
        <time>2011-08-06T13:11:28Z</time>
      </trkpt>
      <trkpt lat="46.72925" lon="6.29085">
        <ele>1101</ele>
        <time>2011-08-06T13:11:42Z</time>
      </trkpt>
      <trkpt lat="46.72891" lon="6.29091">
        <ele>1106</ele>
        <time>2011-08-06T13:11:54Z</time>
      </trkpt>
      <trkpt lat="46.7282" lon="6.29095">
        <ele>1111</ele>
        <time>2011-08-06T13:12:13Z</time>
      </trkpt>
      <trkpt lat="46.72793" lon="6.29096">
        <ele>1113</ele>
        <time>2011-08-06T13:12:23Z</time>
      </trkpt>
      <trkpt lat="46.72754" lon="6.29119">
        <ele>1115</ele>
        <time>2011-08-06T13:12:36Z</time>
      </trkpt>
      <trkpt lat="46.72711" lon="6.29131">
        <ele>1120</ele>
        <time>2011-08-06T13:12:46Z</time>
      </trkpt>
      <trkpt lat="46.72698" lon="6.29126">
        <ele>1120</ele>
        <time>2011-08-06T13:12:49Z</time>
      </trkpt>
      <trkpt lat="46.72682" lon="6.29109">
        <ele>1120</ele>
        <time>2011-08-06T13:12:54Z</time>
      </trkpt>
      <trkpt lat="46.72679" lon="6.29063">
        <ele>1118</ele>
        <time>2011-08-06T13:13:01Z</time>
      </trkpt>
      <trkpt lat="46.72682" lon="6.29041">
        <ele>1117</ele>
        <time>2011-08-06T13:13:04Z</time>
      </trkpt>
      <trkpt lat="46.72687" lon="6.29025">
        <ele>1117</ele>
        <time>2011-08-06T13:13:06Z</time>
      </trkpt>
      <trkpt lat="46.72735" lon="6.28964">
        <ele>1114</ele>
        <time>2011-08-06T13:13:17Z</time>
      </trkpt>
      <trkpt lat="46.72764" lon="6.2895">
        <ele>1111</ele>
        <time>2011-08-06T13:13:23Z</time>
      </trkpt>
      <trkpt lat="46.72779" lon="6.28954">
        <ele>1111</ele>
        <time>2011-08-06T13:13:26Z</time>
      </trkpt>
      <trkpt lat="46.72798" lon="6.28953">
        <ele>1111</ele>
        <time>2011-08-06T13:13:30Z</time>
      </trkpt>
      <trkpt lat="46.72815" lon="6.28931">
        <ele>1111</ele>
        <time>2011-08-06T13:13:34Z</time>
      </trkpt>
      <trkpt lat="46.72847" lon="6.28855">
        <ele>1111</ele>
        <time>2011-08-06T13:13:44Z</time>
      </trkpt>
      <trkpt lat="46.72854" lon="6.28823">
        <ele>1111</ele>
        <time>2011-08-06T13:13:48Z</time>
      </trkpt>
      <trkpt lat="46.72856" lon="6.28799">
        <ele>1111</ele>
        <time>2011-08-06T13:13:51Z</time>
      </trkpt>
      <trkpt lat="46.72862" lon="6.28766">
        <ele>1110</ele>
        <time>2011-08-06T13:13:55Z</time>
      </trkpt>
      <trkpt lat="46.72885" lon="6.28676">
        <ele>1109</ele>
        <time>2011-08-06T13:14:06Z</time>
      </trkpt>
      <trkpt lat="46.729" lon="6.28602">
        <ele>1106</ele>
        <time>2011-08-06T13:14:14Z</time>
      </trkpt>
      <trkpt lat="46.72903" lon="6.28561">
        <ele>1106</ele>
        <time>2011-08-06T13:14:19Z</time>
      </trkpt>
      <trkpt lat="46.72887" lon="6.28437">
        <ele>1110</ele>
        <time>2011-08-06T13:14:36Z</time>
      </trkpt>
      <trkpt lat="46.7288" lon="6.28409">
        <ele>1114</ele>
        <time>2011-08-06T13:14:40Z</time>
      </trkpt>
      <trkpt lat="46.72878" lon="6.28374">
        <ele>1115</ele>
        <time>2011-08-06T13:14:45Z</time>
      </trkpt>
      <trkpt lat="46.72884" lon="6.28332">
        <ele>1117</ele>
        <time>2011-08-06T13:14:52Z</time>
      </trkpt>
      <trkpt lat="46.72886" lon="6.28309">
        <ele>1117</ele>
        <time>2011-08-06T13:14:56Z</time>
      </trkpt>
      <trkpt lat="46.72886" lon="6.28289">
        <ele>1117</ele>
        <time>2011-08-06T13:14:59Z</time>
      </trkpt>
      <trkpt lat="46.72886" lon="6.28259">
        <ele>1117</ele>
        <time>2011-08-06T13:15:03Z</time>
      </trkpt>
      <trkpt lat="46.72881" lon="6.28217">
        <ele>1119</ele>
        <time>2011-08-06T13:15:09Z</time>
      </trkpt>
      <trkpt lat="46.7289" lon="6.28177">
        <ele>1117</ele>
        <time>2011-08-06T13:15:14Z</time>
      </trkpt>
      <trkpt lat="46.72904" lon="6.28149">
        <ele>1116</ele>
        <time>2011-08-06T13:15:18Z</time>
      </trkpt>
      <trkpt lat="46.7292" lon="6.28071">
        <ele>1109</ele>
        <time>2011-08-06T13:15:28Z</time>
      </trkpt>
      <trkpt lat="46.72944" lon="6.27991">
        <ele>1106</ele>
        <time>2011-08-06T13:15:38Z</time>
      </trkpt>
      <trkpt lat="46.72947" lon="6.27976">
        <ele>1105</ele>
        <time>2011-08-06T13:15:40Z</time>
      </trkpt>
      <trkpt lat="46.72941" lon="6.27921">
        <ele>1105</ele>
        <time>2011-08-06T13:15:52Z</time>
      </trkpt>
      <trkpt lat="46.72937" lon="6.27895">
        <ele>1103</ele>
        <time>2011-08-06T13:15:59Z</time>
      </trkpt>
      <trkpt lat="46.72934" lon="6.27884">
        <ele>1102</ele>
        <time>2011-08-06T13:16:03Z</time>
      </trkpt>
      <trkpt lat="46.7291" lon="6.2784">
        <ele>1104</ele>
        <time>2011-08-06T13:16:19Z</time>
      </trkpt>
      <trkpt lat="46.72887" lon="6.27809">
        <ele>1103</ele>
        <time>2011-08-06T13:16:34Z</time>
      </trkpt>
      <trkpt lat="46.72862" lon="6.27792">
        <ele>1103</ele>
        <time>2011-08-06T13:16:50Z</time>
      </trkpt>
      <trkpt lat="46.7286" lon="6.27782">
        <ele>1103</ele>
        <time>2011-08-06T13:16:54Z</time>
      </trkpt>
      <trkpt lat="46.72836" lon="6.27726">
        <ele>1100</ele>
        <time>2011-08-06T13:17:13Z</time>
      </trkpt>
      <trkpt lat="46.72798" lon="6.27651">
        <ele>1100</ele>
        <time>2011-08-06T13:17:34Z</time>
      </trkpt>
      <trkpt lat="46.72766" lon="6.27592">
        <ele>1100</ele>
        <time>2011-08-06T13:17:50Z</time>
      </trkpt>
      <trkpt lat="46.72757" lon="6.27575">
        <ele>1098</ele>
        <time>2011-08-06T13:17:53Z</time>
      </trkpt>
      <trkpt lat="46.72736" lon="6.2755">
        <ele>1103</ele>
        <time>2011-08-06T13:18:03Z</time>
      </trkpt>
      <trkpt lat="46.72708" lon="6.27527">
        <ele>1104</ele>
        <time>2011-08-06T13:18:15Z</time>
      </trkpt>
      <trkpt lat="46.72666" lon="6.27507">
        <ele>1106</ele>
        <time>2011-08-06T13:18:33Z</time>
      </trkpt>
      <trkpt lat="46.72643" lon="6.27475">
        <ele>1107</ele>
        <time>2011-08-06T13:18:48Z</time>
      </trkpt>
      <trkpt lat="46.72628" lon="6.27426">
        <ele>1107</ele>
        <time>2011-08-06T13:19:03Z</time>
      </trkpt>
      <trkpt lat="46.72623" lon="6.27371">
        <ele>1107</ele>
        <time>2011-08-06T13:19:15Z</time>
      </trkpt>
      <trkpt lat="46.72628" lon="6.27315">
        <ele>1108</ele>
        <time>2011-08-06T13:19:26Z</time>
      </trkpt>
      <trkpt lat="46.72619" lon="6.27252">
        <ele>1109</ele>
        <time>2011-08-06T13:19:38Z</time>
      </trkpt>
      <trkpt lat="46.72615" lon="6.27218">
        <ele>1110</ele>
        <time>2011-08-06T13:19:42Z</time>
      </trkpt>
      <trkpt lat="46.72615" lon="6.27182">
        <ele>1111</ele>
        <time>2011-08-06T13:19:46Z</time>
      </trkpt>
      <trkpt lat="46.7262" lon="6.27148">
        <ele>1111</ele>
        <time>2011-08-06T13:19:50Z</time>
      </trkpt>
      <trkpt lat="46.72635" lon="6.27117">
        <ele>1111</ele>
        <time>2011-08-06T13:19:54Z</time>
      </trkpt>
      <trkpt lat="46.72642" lon="6.27087">
        <ele>1110</ele>
        <time>2011-08-06T13:19:58Z</time>
      </trkpt>
      <trkpt lat="46.72641" lon="6.27069">
        <ele>1109</ele>
        <time>2011-08-06T13:20:00Z</time>
      </trkpt>
      <trkpt lat="46.72652" lon="6.27026">
        <ele>1107</ele>
        <time>2011-08-06T13:20:06Z</time>
      </trkpt>
      <trkpt lat="46.72658" lon="6.27007">
        <ele>1105</ele>
        <time>2011-08-06T13:20:09Z</time>
      </trkpt>
      <trkpt lat="46.7266" lon="6.26984">
        <ele>1104</ele>
        <time>2011-08-06T13:20:14Z</time>
      </trkpt>
      <trkpt lat="46.72659" lon="6.26948">
        <ele>1102</ele>
        <time>2011-08-06T13:20:18Z</time>
      </trkpt>
      <trkpt lat="46.72657" lon="6.26921">
        <ele>1100</ele>
        <time>2011-08-06T13:20:21Z</time>
      </trkpt>
      <trkpt lat="46.72638" lon="6.26865">
        <ele>1097</ele>
        <time>2011-08-06T13:20:29Z</time>
      </trkpt>
      <trkpt lat="46.72616" lon="6.2682">
        <ele>1094</ele>
        <time>2011-08-06T13:20:38Z</time>
      </trkpt>
      <trkpt lat="46.72578" lon="6.26746">
        <ele>1096</ele>
        <time>2011-08-06T13:20:52Z</time>
      </trkpt>
      <trkpt lat="46.72553" lon="6.26689">
        <ele>1094</ele>
        <time>2011-08-06T13:21:03Z</time>
      </trkpt>
      <trkpt lat="46.72551" lon="6.26612">
        <ele>1090</ele>
        <time>2011-08-06T13:21:17Z</time>
      </trkpt>
      <trkpt lat="46.7256" lon="6.26567">
        <ele>1088</ele>
        <time>2011-08-06T13:21:26Z</time>
      </trkpt>
      <trkpt lat="46.72556" lon="6.26532">
        <ele>1088</ele>
        <time>2011-08-06T13:21:33Z</time>
      </trkpt>
      <trkpt lat="46.72576" lon="6.26448">
        <ele>1084</ele>
        <time>2011-08-06T13:21:43Z</time>
      </trkpt>
      <trkpt lat="46.72571" lon="6.26402">
        <ele>1080</ele>
        <time>2011-08-06T13:21:49Z</time>
      </trkpt>
      <trkpt lat="46.72564" lon="6.26393">
        <ele>1081</ele>
        <time>2011-08-06T13:21:51Z</time>
      </trkpt>
      <trkpt lat="46.72542" lon="6.26356">
        <ele>1084</ele>
        <time>2011-08-06T13:21:59Z</time>
      </trkpt>
      <trkpt lat="46.72501" lon="6.26307">
        <ele>1084</ele>
        <time>2011-08-06T13:22:16Z</time>
      </trkpt>
      <trkpt lat="46.72474" lon="6.26262">
        <ele>1095</ele>
        <time>2011-08-06T13:22:30Z</time>
      </trkpt>
      <trkpt lat="46.72467" lon="6.26249">
        <ele>1091</ele>
        <time>2011-08-06T13:22:34Z</time>
      </trkpt>
      <trkpt lat="46.72453" lon="6.26221">
        <ele>1092</ele>
        <time>2011-08-06T13:22:43Z</time>
      </trkpt>
      <trkpt lat="46.7242" lon="6.26178">
        <ele>1095</ele>
        <time>2011-08-06T13:22:58Z</time>
      </trkpt>
      <trkpt lat="46.72395" lon="6.26154">
        <ele>1097</ele>
        <time>2011-08-06T13:23:08Z</time>
      </trkpt>
      <trkpt lat="46.72381" lon="6.26142">
        <ele>1097</ele>
        <time>2011-08-06T13:23:13Z</time>
      </trkpt>
      <trkpt lat="46.72354" lon="6.26113">
        <ele>1097</ele>
        <time>2011-08-06T13:23:25Z</time>
      </trkpt>
      <trkpt lat="46.72312" lon="6.26097">
        <ele>1102</ele>
        <time>2011-08-06T13:23:41Z</time>
      </trkpt>
      <trkpt lat="46.72264" lon="6.2606">
        <ele>1098</ele>
        <time>2011-08-06T13:24:00Z</time>
      </trkpt>
      <trkpt lat="46.72223" lon="6.26037">
        <ele>1105</ele>
        <time>2011-08-06T13:24:15Z</time>
      </trkpt>
      <trkpt lat="46.7218" lon="6.26001">
        <ele>1107</ele>
        <time>2011-08-06T13:24:33Z</time>
      </trkpt>
      <trkpt lat="46.72146" lon="6.25952">
        <ele>1110</ele>
        <time>2011-08-06T13:24:51Z</time>
      </trkpt>
      <trkpt lat="46.72144" lon="6.25949">
        <ele>1110</ele>
        <time>2011-08-06T13:24:52Z</time>
      </trkpt>
      <trkpt lat="46.72128" lon="6.2589">
        <ele>1106</ele>
        <time>2011-08-06T13:25:09Z</time>
      </trkpt>
      <trkpt lat="46.72124" lon="6.25871">
        <ele>1105</ele>
        <time>2011-08-06T13:25:13Z</time>
      </trkpt>
      <trkpt lat="46.7211" lon="6.25847">
        <ele>1106</ele>
        <time>2011-08-06T13:25:17Z</time>
      </trkpt>
      <trkpt lat="46.72094" lon="6.2583">
        <ele>1104</ele>
        <time>2011-08-06T13:25:20Z</time>
      </trkpt>
      <trkpt lat="46.72082" lon="6.25816">
        <ele>1108</ele>
        <time>2011-08-06T13:25:22Z</time>
      </trkpt>
      <trkpt lat="46.72016" lon="6.25677">
        <ele>1099</ele>
        <time>2011-08-06T13:25:35Z</time>
      </trkpt>
      <trkpt lat="46.7201" lon="6.25627">
        <ele>1092</ele>
        <time>2011-08-06T13:25:39Z</time>
      </trkpt>
      <trkpt lat="46.72011" lon="6.25601">
        <ele>1091</ele>
        <time>2011-08-06T13:25:41Z</time>
      </trkpt>
      <trkpt lat="46.72" lon="6.25517">
        <ele>1082</ele>
        <time>2011-08-06T13:25:47Z</time>
      </trkpt>
      <trkpt lat="46.7199" lon="6.25462">
        <ele>1085</ele>
        <time>2011-08-06T13:25:51Z</time>
      </trkpt>
      <trkpt lat="46.71928" lon="6.25288">
        <ele>1075</ele>
        <time>2011-08-06T13:26:04Z</time>
      </trkpt>
      <trkpt lat="46.71903" lon="6.25234">
        <ele>1082</ele>
        <time>2011-08-06T13:26:08Z</time>
      </trkpt>
      <trkpt lat="46.71887" lon="6.25177">
        <ele>1081</ele>
        <time>2011-08-06T13:26:12Z</time>
      </trkpt>
      <trkpt lat="46.71855" lon="6.25131">
        <ele>1080</ele>
        <time>2011-08-06T13:26:20Z</time>
      </trkpt>
      <trkpt lat="46.71824" lon="6.25095">
        <ele>1089</ele>
        <time>2011-08-06T13:26:34Z</time>
      </trkpt>
      <trkpt lat="46.71782" lon="6.25039">
        <ele>1084</ele>
        <time>2011-08-06T13:26:51Z</time>
      </trkpt>
      <trkpt lat="46.71751" lon="6.25007">
        <ele>1084</ele>
        <time>2011-08-06T13:27:08Z</time>
      </trkpt>
      <trkpt lat="46.71721" lon="6.2498">
        <ele>1086</ele>
        <time>2011-08-06T13:27:28Z</time>
      </trkpt>
      <trkpt lat="46.71698" lon="6.24958">
        <ele>1088</ele>
        <time>2011-08-06T13:27:43Z</time>
      </trkpt>
      <trkpt lat="46.71669" lon="6.2493">
        <ele>1089</ele>
        <time>2011-08-06T13:28:01Z</time>
      </trkpt>
      <trkpt lat="46.71636" lon="6.24895">
        <ele>1093</ele>
        <time>2011-08-06T13:28:20Z</time>
      </trkpt>
      <trkpt lat="46.71635" lon="6.24893">
        <ele>1093</ele>
        <time>2011-08-06T13:28:21Z</time>
      </trkpt>
      <trkpt lat="46.71612" lon="6.24868">
        <ele>1094</ele>
        <time>2011-08-06T13:28:36Z</time>
      </trkpt>
      <trkpt lat="46.71608" lon="6.24857">
        <ele>1094</ele>
        <time>2011-08-06T13:28:39Z</time>
      </trkpt>
      <trkpt lat="46.71603" lon="6.24858">
        <ele>1094</ele>
        <time>2011-08-06T13:28:41Z</time>
      </trkpt>
      <trkpt lat="46.71568" lon="6.2482">
        <ele>1099</ele>
        <time>2011-08-06T13:29:00Z</time>
      </trkpt>
      <trkpt lat="46.71536" lon="6.24781">
        <ele>1099</ele>
        <time>2011-08-06T13:29:16Z</time>
      </trkpt>
      <trkpt lat="46.71522" lon="6.24737">
        <ele>1094</ele>
        <time>2011-08-06T13:29:25Z</time>
      </trkpt>
      <trkpt lat="46.71488" lon="6.2469">
        <ele>1099</ele>
        <time>2011-08-06T13:29:37Z</time>
      </trkpt>
      <trkpt lat="46.71468" lon="6.24613">
        <ele>1096</ele>
        <time>2011-08-06T13:29:55Z</time>
      </trkpt>
      <trkpt lat="46.7145" lon="6.24549">
        <ele>1094</ele>
        <time>2011-08-06T13:30:10Z</time>
      </trkpt>
      <trkpt lat="46.71419" lon="6.24508">
        <ele>1098</ele>
        <time>2011-08-06T13:30:21Z</time>
      </trkpt>
      <trkpt lat="46.71382" lon="6.2447">
        <ele>1097</ele>
        <time>2011-08-06T13:30:35Z</time>
      </trkpt>
      <trkpt lat="46.71343" lon="6.24459">
        <ele>1098</ele>
        <time>2011-08-06T13:30:47Z</time>
      </trkpt>
      <trkpt lat="46.71309" lon="6.24457">
        <ele>1097</ele>
        <time>2011-08-06T13:30:55Z</time>
      </trkpt>
      <trkpt lat="46.71273" lon="6.24432">
        <ele>1096</ele>
        <time>2011-08-06T13:31:03Z</time>
      </trkpt>
      <trkpt lat="46.71272" lon="6.24429">
        <ele>1096</ele>
        <time>2011-08-06T13:31:04Z</time>
      </trkpt>
      <trkpt lat="46.7128" lon="6.24406">
        <ele>1098</ele>
        <time>2011-08-06T13:31:11Z</time>
      </trkpt>
      <trkpt lat="46.71285" lon="6.24393">
        <ele>1098</ele>
        <time>2011-08-06T13:31:16Z</time>
      </trkpt>
      <trkpt lat="46.71255" lon="6.24356">
        <ele>1101</ele>
        <time>2011-08-06T13:31:31Z</time>
      </trkpt>
      <trkpt lat="46.71249" lon="6.24323">
        <ele>1105</ele>
        <time>2011-08-06T13:31:39Z</time>
      </trkpt>
      <trkpt lat="46.71246" lon="6.24289">
        <ele>1106</ele>
        <time>2011-08-06T13:31:47Z</time>
      </trkpt>
      <trkpt lat="46.71232" lon="6.24241">
        <ele>1106</ele>
        <time>2011-08-06T13:32:00Z</time>
      </trkpt>
      <trkpt lat="46.7123" lon="6.24237">
        <ele>1106</ele>
        <time>2011-08-06T13:32:01Z</time>
      </trkpt>
      <trkpt lat="46.71223" lon="6.24218">
        <ele>1106</ele>
        <time>2011-08-06T13:32:08Z</time>
      </trkpt>
      <trkpt lat="46.71211" lon="6.2417">
        <ele>1105</ele>
        <time>2011-08-06T13:32:21Z</time>
      </trkpt>
      <trkpt lat="46.71181" lon="6.24091">
        <ele>1102</ele>
        <time>2011-08-06T13:32:37Z</time>
      </trkpt>
      <trkpt lat="46.71156" lon="6.24044">
        <ele>1104</ele>
        <time>2011-08-06T13:32:47Z</time>
      </trkpt>
      <trkpt lat="46.71144" lon="6.2401">
        <ele>1103</ele>
        <time>2011-08-06T13:32:52Z</time>
      </trkpt>
      <trkpt lat="46.71122" lon="6.23979">
        <ele>1101</ele>
        <time>2011-08-06T13:33:00Z</time>
      </trkpt>
      <trkpt lat="46.71116" lon="6.23969">
        <ele>1101</ele>
        <time>2011-08-06T13:33:29Z</time>
      </trkpt>
      <trkpt lat="46.71117" lon="6.23955">
        <ele>1101</ele>
        <time>2011-08-06T13:33:33Z</time>
      </trkpt>
      <trkpt lat="46.71121" lon="6.23942">
        <ele>1100</ele>
        <time>2011-08-06T13:33:35Z</time>
      </trkpt>
      <trkpt lat="46.71127" lon="6.23914">
        <ele>1098</ele>
        <time>2011-08-06T13:33:39Z</time>
      </trkpt>
      <trkpt lat="46.71135" lon="6.23875">
        <ele>1097</ele>
        <time>2011-08-06T13:33:43Z</time>
      </trkpt>
      <trkpt lat="46.71143" lon="6.23762">
        <ele>1092</ele>
        <time>2011-08-06T13:33:52Z</time>
      </trkpt>
      <trkpt lat="46.71146" lon="6.2375">
        <ele>1092</ele>
        <time>2011-08-06T13:33:53Z</time>
      </trkpt>
      <trkpt lat="46.7116" lon="6.23708">
        <ele>1088</ele>
        <time>2011-08-06T13:33:58Z</time>
      </trkpt>
      <trkpt lat="46.71164" lon="6.23693">
        <ele>1087</ele>
        <time>2011-08-06T13:34:00Z</time>
      </trkpt>
      <trkpt lat="46.71166" lon="6.23647">
        <ele>1082</ele>
        <time>2011-08-06T13:34:05Z</time>
      </trkpt>
      <trkpt lat="46.71138" lon="6.2352">
        <ele>1075</ele>
        <time>2011-08-06T13:34:15Z</time>
      </trkpt>
      <trkpt lat="46.71122" lon="6.23448">
        <ele>1068</ele>
        <time>2011-08-06T13:34:20Z</time>
      </trkpt>
      <trkpt lat="46.7109" lon="6.23387">
        <ele>1063</ele>
        <time>2011-08-06T13:34:26Z</time>
      </trkpt>
      <trkpt lat="46.71082" lon="6.23335">
        <ele>1066</ele>
        <time>2011-08-06T13:34:30Z</time>
      </trkpt>
      <trkpt lat="46.71088" lon="6.23282">
        <ele>1057</ele>
        <time>2011-08-06T13:34:34Z</time>
      </trkpt>
      <trkpt lat="46.71096" lon="6.23155">
        <ele>1049</ele>
        <time>2011-08-06T13:34:44Z</time>
      </trkpt>
      <trkpt lat="46.71085" lon="6.23072">
        <ele>1042</ele>
        <time>2011-08-06T13:34:51Z</time>
      </trkpt>
      <trkpt lat="46.71085" lon="6.22962">
        <ele>1028</ele>
        <time>2011-08-06T13:34:57Z</time>
      </trkpt>
      <trkpt lat="46.71069" lon="6.22911">
        <ele>1031</ele>
        <time>2011-08-06T13:35:01Z</time>
      </trkpt>
      <trkpt lat="46.71066" lon="6.22875">
        <ele>1031</ele>
        <time>2011-08-06T13:35:05Z</time>
      </trkpt>
      <trkpt lat="46.71049" lon="6.22786">
        <ele>1023</ele>
        <time>2011-08-06T13:35:18Z</time>
      </trkpt>
      <trkpt lat="46.71034" lon="6.22716">
        <ele>1018</ele>
        <time>2011-08-06T13:35:26Z</time>
      </trkpt>
      <trkpt lat="46.70997" lon="6.22624">
        <ele>1024</ele>
        <time>2011-08-06T13:35:38Z</time>
      </trkpt>
      <trkpt lat="46.70989" lon="6.22611">
        <ele>1023</ele>
        <time>2011-08-06T13:35:40Z</time>
      </trkpt>
      <trkpt lat="46.7097" lon="6.22591">
        <ele>1023</ele>
        <time>2011-08-06T13:35:44Z</time>
      </trkpt>
      <trkpt lat="46.70959" lon="6.22573">
        <ele>1020</ele>
        <time>2011-08-06T13:35:47Z</time>
      </trkpt>
      <trkpt lat="46.70951" lon="6.22522">
        <ele>1020</ele>
        <time>2011-08-06T13:35:57Z</time>
      </trkpt>
      <trkpt lat="46.7094" lon="6.22469">
        <ele>1018</ele>
        <time>2011-08-06T13:36:12Z</time>
      </trkpt>
      <trkpt lat="46.70933" lon="6.22451">
        <ele>1018</ele>
        <time>2011-08-06T13:36:18Z</time>
      </trkpt>
      <trkpt lat="46.70924" lon="6.22429">
        <ele>1020</ele>
        <time>2011-08-06T13:36:26Z</time>
      </trkpt>
      <trkpt lat="46.70919" lon="6.2239">
        <ele>1017</ele>
        <time>2011-08-06T13:36:36Z</time>
      </trkpt>
      <trkpt lat="46.70923" lon="6.22367">
        <ele>1015</ele>
        <time>2011-08-06T13:36:39Z</time>
      </trkpt>
      <trkpt lat="46.70918" lon="6.22337">
        <ele>1018</ele>
        <time>2011-08-06T13:36:43Z</time>
      </trkpt>
      <trkpt lat="46.70912" lon="6.22324">
        <ele>1023</ele>
        <time>2011-08-06T13:36:45Z</time>
      </trkpt>
      <trkpt lat="46.70905" lon="6.2227">
        <ele>1024</ele>
        <time>2011-08-06T13:36:53Z</time>
      </trkpt>
      <trkpt lat="46.7091" lon="6.2219">
        <ele>1015</ele>
        <time>2011-08-06T13:37:00Z</time>
      </trkpt>
      <trkpt lat="46.70898" lon="6.22145">
        <ele>1010</ele>
        <time>2011-08-06T13:37:05Z</time>
      </trkpt>
      <trkpt lat="46.70882" lon="6.22107">
        <ele>1009</ele>
        <time>2011-08-06T13:37:10Z</time>
      </trkpt>
      <trkpt lat="46.70859" lon="6.2204">
        <ele>1005</ele>
        <time>2011-08-06T13:37:20Z</time>
      </trkpt>
      <trkpt lat="46.70842" lon="6.2199">
        <ele>1004</ele>
        <time>2011-08-06T13:37:29Z</time>
      </trkpt>
      <trkpt lat="46.70825" lon="6.21925">
        <ele>1010</ele>
        <time>2011-08-06T13:37:40Z</time>
      </trkpt>
      <trkpt lat="46.70807" lon="6.21881">
        <ele>1010</ele>
        <time>2011-08-06T13:37:50Z</time>
      </trkpt>
      <trkpt lat="46.70799" lon="6.21842">
        <ele>1009</ele>
        <time>2011-08-06T13:37:56Z</time>
      </trkpt>
      <trkpt lat="46.70785" lon="6.21806">
        <ele>1005</ele>
        <time>2011-08-06T13:38:02Z</time>
      </trkpt>
      <trkpt lat="46.70792" lon="6.21759">
        <ele>1002</ele>
        <time>2011-08-06T13:38:09Z</time>
      </trkpt>
      <trkpt lat="46.70785" lon="6.21728">
        <ele>997</ele>
        <time>2011-08-06T13:38:13Z</time>
      </trkpt>
      <trkpt lat="46.70775" lon="6.21688">
        <ele>997</ele>
        <time>2011-08-06T13:38:18Z</time>
      </trkpt>
      <trkpt lat="46.70761" lon="6.21617">
        <ele>990</ele>
        <time>2011-08-06T13:38:25Z</time>
      </trkpt>
      <trkpt lat="46.70753" lon="6.21586">
        <ele>994</ele>
        <time>2011-08-06T13:38:28Z</time>
      </trkpt>
      <trkpt lat="46.70754" lon="6.21541">
        <ele>984</ele>
        <time>2011-08-06T13:38:31Z</time>
      </trkpt>
      <trkpt lat="46.70749" lon="6.21454">
        <ele>992</ele>
        <time>2011-08-06T13:38:37Z</time>
      </trkpt>
      <trkpt lat="46.70722" lon="6.21274">
        <ele>977</ele>
        <time>2011-08-06T13:38:49Z</time>
      </trkpt>
      <trkpt lat="46.70703" lon="6.21188">
        <ele>970</ele>
        <time>2011-08-06T13:38:56Z</time>
      </trkpt>
      <trkpt lat="46.70719" lon="6.21157">
        <ele>961</ele>
        <time>2011-08-06T13:39:02Z</time>
      </trkpt>
      <trkpt lat="46.70786" lon="6.2113">
        <ele>948</ele>
        <time>2011-08-06T13:39:14Z</time>
      </trkpt>
      <trkpt lat="46.70805" lon="6.21111">
        <ele>946</ele>
        <time>2011-08-06T13:39:18Z</time>
      </trkpt>
      <trkpt lat="46.70829" lon="6.21087">
        <ele>944</ele>
        <time>2011-08-06T13:39:24Z</time>
      </trkpt>
      <trkpt lat="46.7082" lon="6.21066">
        <ele>944</ele>
        <time>2011-08-06T13:39:31Z</time>
      </trkpt>
      <trkpt lat="46.70777" lon="6.21032">
        <ele>944</ele>
        <time>2011-08-06T13:39:45Z</time>
      </trkpt>
      <trkpt lat="46.7075" lon="6.20995">
        <ele>944</ele>
        <time>2011-08-06T13:39:59Z</time>
      </trkpt>
      <trkpt lat="46.70719" lon="6.20958">
        <ele>947</ele>
        <time>2011-08-06T13:40:14Z</time>
      </trkpt>
      <trkpt lat="46.70698" lon="6.2092">
        <ele>947</ele>
        <time>2011-08-06T13:40:28Z</time>
      </trkpt>
      <trkpt lat="46.70693" lon="6.20916">
        <ele>944</ele>
        <time>2011-08-06T13:40:31Z</time>
      </trkpt>
      <trkpt lat="46.70691" lon="6.20911">
        <ele>944</ele>
        <time>2011-08-06T13:40:45Z</time>
      </trkpt>
      <trkpt lat="46.70692" lon="6.20916">
        <ele>944</ele>
        <time>2011-08-06T13:42:16Z</time>
      </trkpt>
      <trkpt lat="46.70692" lon="6.20917">
        <ele>947</ele>
        <time>2011-08-06T13:42:34Z</time>
      </trkpt>
      <trkpt lat="46.70701" lon="6.20923">
        <ele>947</ele>
        <time>2011-08-06T13:42:55Z</time>
      </trkpt>
      <trkpt lat="46.70704" lon="6.20925">
        <ele>947</ele>
        <time>2011-08-06T13:50:32Z</time>
      </trkpt>
      <trkpt lat="46.7072" lon="6.20962">
        <ele>947</ele>
        <time>2011-08-06T13:50:46Z</time>
      </trkpt>
      <trkpt lat="46.70763" lon="6.21019">
        <ele>944</ele>
        <time>2011-08-06T13:51:03Z</time>
      </trkpt>
      <trkpt lat="46.70779" lon="6.21042">
        <ele>944</ele>
        <time>2011-08-06T13:51:09Z</time>
      </trkpt>
      <trkpt lat="46.70834" lon="6.21072">
        <ele>943</ele>
        <time>2011-08-06T13:51:26Z</time>
      </trkpt>
      <trkpt lat="46.70864" lon="6.21028">
        <ele>944</ele>
        <time>2011-08-06T13:51:38Z</time>
      </trkpt>
      <trkpt lat="46.70895" lon="6.20927">
        <ele>945</ele>
        <time>2011-08-06T13:51:58Z</time>
      </trkpt>
      <trkpt lat="46.70912" lon="6.20868">
        <ele>946</ele>
        <time>2011-08-06T13:52:13Z</time>
      </trkpt>
      <trkpt lat="46.70946" lon="6.20779">
        <ele>949</ele>
        <time>2011-08-06T13:52:32Z</time>
      </trkpt>
      <trkpt lat="46.70975" lon="6.2067">
        <ele>949</ele>
        <time>2011-08-06T13:52:52Z</time>
      </trkpt>
      <trkpt lat="46.70971" lon="6.20549">
        <ele>947</ele>
        <time>2011-08-06T13:53:11Z</time>
      </trkpt>
      <trkpt lat="46.7098" lon="6.20405">
        <ele>944</ele>
        <time>2011-08-06T13:53:34Z</time>
      </trkpt>
      <trkpt lat="46.70987" lon="6.2038">
        <ele>943</ele>
        <time>2011-08-06T13:53:38Z</time>
      </trkpt>
      <trkpt lat="46.71037" lon="6.20279">
        <ele>942</ele>
        <time>2011-08-06T13:53:52Z</time>
      </trkpt>
      <trkpt lat="46.71099" lon="6.20212">
        <ele>944</ele>
        <time>2011-08-06T13:54:05Z</time>
      </trkpt>
      <trkpt lat="46.71102" lon="6.20206">
        <ele>944</ele>
        <time>2011-08-06T13:54:06Z</time>
      </trkpt>
      <trkpt lat="46.7114" lon="6.20116">
        <ele>945</ele>
        <time>2011-08-06T13:54:23Z</time>
      </trkpt>
      <trkpt lat="46.71149" lon="6.2004">
        <ele>946</ele>
        <time>2011-08-06T13:54:39Z</time>
      </trkpt>
      <trkpt lat="46.71119" lon="6.19959">
        <ele>944</ele>
        <time>2011-08-06T13:54:55Z</time>
      </trkpt>
      <trkpt lat="46.71102" lon="6.19925">
        <ele>943</ele>
        <time>2011-08-06T13:55:02Z</time>
      </trkpt>
      <trkpt lat="46.71095" lon="6.1991">
        <ele>943</ele>
        <time>2011-08-06T13:55:05Z</time>
      </trkpt>
      <trkpt lat="46.71048" lon="6.19815">
        <ele>941</ele>
        <time>2011-08-06T13:55:22Z</time>
      </trkpt>
      <trkpt lat="46.71001" lon="6.19686">
        <ele>939</ele>
        <time>2011-08-06T13:55:43Z</time>
      </trkpt>
      <trkpt lat="46.71" lon="6.19679">
        <ele>938</ele>
        <time>2011-08-06T13:55:44Z</time>
      </trkpt>
      <trkpt lat="46.70998" lon="6.19602">
        <ele>936</ele>
        <time>2011-08-06T13:55:56Z</time>
      </trkpt>
      <trkpt lat="46.71004" lon="6.1956">
        <ele>937</ele>
        <time>2011-08-06T13:56:02Z</time>
      </trkpt>
      <trkpt lat="46.71013" lon="6.19538">
        <ele>938</ele>
        <time>2011-08-06T13:56:06Z</time>
      </trkpt>
      <trkpt lat="46.7106" lon="6.19486">
        <ele>940</ele>
        <time>2011-08-06T13:56:20Z</time>
      </trkpt>
      <trkpt lat="46.71074" lon="6.19427">
        <ele>940</ele>
        <time>2011-08-06T13:56:33Z</time>
      </trkpt>
      <trkpt lat="46.71057" lon="6.19316">
        <ele>935</ele>
        <time>2011-08-06T13:56:48Z</time>
      </trkpt>
      <trkpt lat="46.71053" lon="6.19287">
        <ele>936</ele>
        <time>2011-08-06T13:56:52Z</time>
      </trkpt>
      <trkpt lat="46.71053" lon="6.19267">
        <ele>936</ele>
        <time>2011-08-06T13:56:56Z</time>
      </trkpt>
      <trkpt lat="46.71056" lon="6.19261">
        <ele>936</ele>
        <time>2011-08-06T13:56:59Z</time>
      </trkpt>
      <trkpt lat="46.71058" lon="6.1926">
        <ele>936</ele>
        <time>2011-08-06T13:57:01Z</time>
      </trkpt>
      <trkpt lat="46.71054" lon="6.19248">
        <ele>936</ele>
        <time>2011-08-06T13:57:06Z</time>
      </trkpt>
      <trkpt lat="46.70991" lon="6.19191">
        <ele>936</ele>
        <time>2011-08-06T13:57:29Z</time>
      </trkpt>
      <trkpt lat="46.70951" lon="6.1915">
        <ele>936</ele>
        <time>2011-08-06T13:57:45Z</time>
      </trkpt>
      <trkpt lat="46.70907" lon="6.19107">
        <ele>934</ele>
        <time>2011-08-06T13:58:02Z</time>
      </trkpt>
      <trkpt lat="46.70889" lon="6.19082">
        <ele>934</ele>
        <time>2011-08-06T13:58:11Z</time>
      </trkpt>
      <trkpt lat="46.70889" lon="6.19097">
        <ele>934</ele>
        <time>2011-08-06T13:58:18Z</time>
      </trkpt>
      <trkpt lat="46.70934" lon="6.19148">
        <ele>936</ele>
        <time>2011-08-06T13:58:38Z</time>
      </trkpt>
      <trkpt lat="46.70934" lon="6.19149">
        <ele>936</ele>
        <time>2011-08-06T13:58:58Z</time>
      </trkpt>
      <trkpt lat="46.7095" lon="6.19156">
        <ele>936</ele>
        <time>2011-08-06T14:02:33Z</time>
      </trkpt>
      <trkpt lat="46.71002" lon="6.19197">
        <ele>936</ele>
        <time>2011-08-06T14:02:53Z</time>
      </trkpt>
      <trkpt lat="46.71006" lon="6.19197">
        <ele>936</ele>
        <time>2011-08-06T14:02:55Z</time>
      </trkpt>
      <trkpt lat="46.71009" lon="6.19198">
        <ele>936</ele>
        <time>2011-08-06T14:03:11Z</time>
      </trkpt>
      <trkpt lat="46.71008" lon="6.19199">
        <ele>936</ele>
        <time>2011-08-06T14:07:39Z</time>
      </trkpt>
      <trkpt lat="46.71012" lon="6.1921">
        <ele>936</ele>
        <time>2011-08-06T14:07:43Z</time>
      </trkpt>
      <trkpt lat="46.71015" lon="6.19218">
        <ele>936</ele>
        <time>2011-08-06T14:07:45Z</time>
      </trkpt>
      <trkpt lat="46.7105" lon="6.1927">
        <ele>936</ele>
        <time>2011-08-06T14:07:59Z</time>
      </trkpt>
      <trkpt lat="46.7106" lon="6.19339">
        <ele>936</ele>
        <time>2011-08-06T14:08:11Z</time>
      </trkpt>
      <trkpt lat="46.71069" lon="6.19412">
        <ele>939</ele>
        <time>2011-08-06T14:08:24Z</time>
      </trkpt>
      <trkpt lat="46.71074" lon="6.19435">
        <ele>940</ele>
        <time>2011-08-06T14:08:29Z</time>
      </trkpt>
      <trkpt lat="46.71047" lon="6.19494">
        <ele>939</ele>
        <time>2011-08-06T14:08:43Z</time>
      </trkpt>
      <trkpt lat="46.71004" lon="6.19553">
        <ele>938</ele>
        <time>2011-08-06T14:08:56Z</time>
      </trkpt>
      <trkpt lat="46.70997" lon="6.19588">
        <ele>936</ele>
        <time>2011-08-06T14:09:02Z</time>
      </trkpt>
      <trkpt lat="46.70998" lon="6.19642">
        <ele>937</ele>
        <time>2011-08-06T14:09:11Z</time>
      </trkpt>
      <trkpt lat="46.70998" lon="6.19665">
        <ele>938</ele>
        <time>2011-08-06T14:09:15Z</time>
      </trkpt>
      <trkpt lat="46.71002" lon="6.19703">
        <ele>939</ele>
        <time>2011-08-06T14:09:21Z</time>
      </trkpt>
      <trkpt lat="46.71021" lon="6.19759">
        <ele>940</ele>
        <time>2011-08-06T14:09:31Z</time>
      </trkpt>
      <trkpt lat="46.71064" lon="6.19847">
        <ele>941</ele>
        <time>2011-08-06T14:09:49Z</time>
      </trkpt>
      <trkpt lat="46.71117" lon="6.19959">
        <ele>944</ele>
        <time>2011-08-06T14:10:11Z</time>
      </trkpt>
      <trkpt lat="46.71143" lon="6.20041">
        <ele>945</ele>
        <time>2011-08-06T14:10:26Z</time>
      </trkpt>
      <trkpt lat="46.71145" lon="6.20071">
        <ele>946</ele>
        <time>2011-08-06T14:10:31Z</time>
      </trkpt>
      <trkpt lat="46.71123" lon="6.20155">
        <ele>945</ele>
        <time>2011-08-06T14:10:48Z</time>
      </trkpt>
      <trkpt lat="46.71108" lon="6.20188">
        <ele>944</ele>
        <time>2011-08-06T14:10:53Z</time>
      </trkpt>
      <trkpt lat="46.7108" lon="6.20228">
        <ele>942</ele>
        <time>2011-08-06T14:11:00Z</time>
      </trkpt>
      <trkpt lat="46.71015" lon="6.20307">
        <ele>943</ele>
        <time>2011-08-06T14:11:19Z</time>
      </trkpt>
      <trkpt lat="46.70975" lon="6.20412">
        <ele>944</ele>
        <time>2011-08-06T14:11:41Z</time>
      </trkpt>
      <trkpt lat="46.70966" lon="6.20526">
        <ele>947</ele>
        <time>2011-08-06T14:12:01Z</time>
      </trkpt>
      <trkpt lat="46.70966" lon="6.20558">
        <ele>947</ele>
        <time>2011-08-06T14:12:06Z</time>
      </trkpt>
      <trkpt lat="46.7097" lon="6.20664">
        <ele>948</ele>
        <time>2011-08-06T14:12:24Z</time>
      </trkpt>
      <trkpt lat="46.70969" lon="6.20696">
        <ele>949</ele>
        <time>2011-08-06T14:12:29Z</time>
      </trkpt>
      <trkpt lat="46.7096" lon="6.20733">
        <ele>949</ele>
        <time>2011-08-06T14:12:35Z</time>
      </trkpt>
      <trkpt lat="46.70928" lon="6.20814">
        <ele>948</ele>
        <time>2011-08-06T14:12:51Z</time>
      </trkpt>
      <trkpt lat="46.70915" lon="6.2085">
        <ele>947</ele>
        <time>2011-08-06T14:12:58Z</time>
      </trkpt>
      <trkpt lat="46.7088" lon="6.20976">
        <ele>944</ele>
        <time>2011-08-06T14:13:15Z</time>
      </trkpt>
      <trkpt lat="46.70856" lon="6.21047">
        <ele>944</ele>
        <time>2011-08-06T14:13:23Z</time>
      </trkpt>
      <trkpt lat="46.70842" lon="6.21067">
        <ele>943</ele>
        <time>2011-08-06T14:13:26Z</time>
      </trkpt>
      <trkpt lat="46.70812" lon="6.21107">
        <ele>946</ele>
        <time>2011-08-06T14:13:37Z</time>
      </trkpt>
      <trkpt lat="46.70775" lon="6.21137">
        <ele>949</ele>
        <time>2011-08-06T14:13:55Z</time>
      </trkpt>
      <trkpt lat="46.70742" lon="6.21152">
        <ele>958</ele>
        <time>2011-08-06T14:14:11Z</time>
      </trkpt>
      <trkpt lat="46.70732" lon="6.21156">
        <ele>959</ele>
        <time>2011-08-06T14:14:16Z</time>
      </trkpt>
      <trkpt lat="46.70732" lon="6.21158">
        <ele>959</ele>
        <time>2011-08-06T14:14:26Z</time>
      </trkpt>
      <trkpt lat="46.70736" lon="6.21163">
        <ele>958</ele>
        <time>2011-08-06T14:14:38Z</time>
      </trkpt>
      <trkpt lat="46.70737" lon="6.21165">
        <ele>958</ele>
        <time>2011-08-06T14:14:40Z</time>
      </trkpt>
      <trkpt lat="46.7075" lon="6.21177">
        <ele>960</ele>
        <time>2011-08-06T14:14:54Z</time>
      </trkpt>
      <trkpt lat="46.70763" lon="6.21187">
        <ele>954</ele>
        <time>2011-08-06T14:15:09Z</time>
      </trkpt>
      <trkpt lat="46.7077" lon="6.21186">
        <ele>954</ele>
        <time>2011-08-06T14:15:24Z</time>
      </trkpt>
      <trkpt lat="46.7077" lon="6.21186">
        <ele>954</ele>
        <time>2011-08-06T14:16:11Z</time>
      </trkpt>
      <trkpt lat="46.70771" lon="6.21183">
        <ele>954</ele>
        <time>2011-08-06T14:16:57Z</time>
      </trkpt>
    </trkseg>
  </trk>
</gpx>